[[{"header":{"parameterUnit":"m.s-1","parameterCategory":1,"la1":31.0,"la2":29.5877,"lo1":-88.7671,"lo2":-86.6584,"dy":0.0162,"dx":0.0185,"nx":115,"ny":88,"refTime":"2023-11-16T06:00:00:Z","depth":0,"parameterNumber":2,"parameterNumberName":"U-component_of_WINDS"},"data":[0.0,0.0,0.0,0.0,0.0,0.0,0.0,0.0,0.0,0.0,0.0,0.0,0.0,0.0,0.0,0.0,0.0,0.0,0.0,0.0,0.0,0.0,0.0,0.0,0.0,0.0,0.0,0.0,0.0,0.0,0.0,0.0,0.0,0.0,0.0,0.0,0.0,0.0,0.0,0.0,0.0,0.0,0.0,0.0,0.0,0.0,0.0,0.0,0.0,0.0,0.0,0.0,0.0,0.0,0.0,0.0,0.0,0.0,0.0,0.0,0.0,0.0,0.0,0.0,0.0,0.0,0.0,0.0,0.0,0.0,0.0,0.0,0.0,0.0,0.0,0.0,0.0,0.0,0.0,0.0,0.0,0.0,0.0,0.0,0.0,0.0,0.0,0.0,0.0,0.0,0.0,0.0,0.0,0.0,0.0,0.0,0.0,0.0,0.0,0.0,0.0,0.0,0.0,0.0,0.0,0.0,0.0,0.0,0.0,0.0,0.0,0.0,0.0,0.0,0.0,0.0,0.0,0.0,0.0,0.0,0.0,0.0,0.0,0.0,0.0,0.0,0.0,0.0,0.0,0.0,0.0,0.0,0.0,0.0,0.0,0.0,0.0,0.0,0.0,0.0,0.0,0.0,0.0,0.0,0.0,0.0,0.0,0.0,0.0,0.0,0.0,0.0,0.0,0.0,0.0,0.0,0.0,0.0,0.0,0.0,0.0,0.0,0.0,0.0,0.0,0.0,0.0,0.0,0.0,0.0,0.0,0.0,0.0,0.0,0.0,0.0,0.0,0.0,0.0,0.0,0.0,0.0,0.0,0.0,0.0,0.0,0.0,0.0,0.0,0.0,0.0,0.0,0.0,0.0,0.0,0.0,0.0,0.0,0.0,0.0,0.0,0.0,0.0,0.0,0.0,0.0,0.0,0.0,0.0,0.0,0.0,0.0,0.0,0.0,0.0,0.0,0.0,0.0,0.0,0.0,0.0,0.0,0.0,0.0,0.0,0.0,0.0,0.0,0.0,0.0,0.0,0.0,0.0,0.0,0.0,0.0,0.0,0.0,0.0,0.0,0.0,0.0,0.0,0.0,0.0,0.0,0.0,0.0,0.0,0.0,0.0,0.0,0.0,0.0,0.0,0.0,0.0,0.0,0.0,0.0,0.0,0.0,0.0,0.0,0.0,0.0,0.0,0.0,0.0,0.0,0.0,0.0,0.0,0.0,0.0,0.0,0.0,0.0,0.0,0.0,0.0,0.0,0.0,0.0,0.0,0.0,0.0,0.0,0.0,0.0,0.0,0.0,0.0,0.0,0.0,0.0,0.0,0.0,0.0,0.0,0.0,0.0,0.0,0.0,0.0,0.0,0.0,0.0,0.0,0.0,0.0,0.0,0.0,0.0,0.0,0.0,0.0,0.0,0.0,0.0,0.0,0.0,0.0,0.0,0.0,0.0,0.0,0.0,0.0,0.0,0.0,0.0,0.0,0.0,0.0,0.0,0.0,0.0,0.0,0.0,0.0,0.0,0.0,0.0,0.0,0.0,0.0,0.0,0.0,0.0,0.0,0.0,0.0,0.0,0.0,0.0,0.0,0.0,0.0,0.0,0.0,0.0,0.0,0.0,0.0,0.0,0.0,0.0,0.0,0.0,0.0,0.0,0.0,0.0,0.0,0.0,0.0,0.0,0.0,0.0,0.0,0.0,0.0,0.0,0.0,0.0,0.0,0.0,0.0,0.0,0.0,0.0,0.0,0.0,0.0,0.0,0.0,0.0,0.0,0.0,0.0,0.0,0.0,0.0,0.0,0.0,0.0,0.0,0.0,0.0,0.0,0.0,0.0,0.0,0.0,0.0,0.0,0.0,0.0,0.0,0.0,0.0,0.0,0.0,0.0,0.0,0.0,0.0,0.0,0.0,0.0,0.0,0.0,0.0,0.0,0.0,0.0,0.0,0.0,0.0,0.0,0.0,0.0,0.0,0.0,0.0,0.0,0.0,0.0,0.0,0.0,0.0,0.0,0.0,0.0,0.0,0.0,0.0,0.0,0.0,0.0,0.0,0.0,0.0,0.0,0.0,0.0,0.0,0.0,0.0,0.0,0.0,0.0,0.0,0.0,0.0,0.0,0.0,0.0,0.0,0.0,0.0,0.0,0.0,0.0,0.0,0.0,0.0,0.0,0.0,0.0,0.0,0.0,0.0,0.0,0.0,0.0,0.0,0.0,0.0,0.0,0.0,0.0,0.0,0.0,0.0,0.0,0.0,0.0,0.0,0.0,0.0,0.0,0.0,0.0,0.0,0.0,0.0,0.0,0.0,0.0,0.0,0.0,0.0,0.0,0.0,0.0,0.0,0.0,0.0,0.0,0.0,0.0,0.0,0.0,0.0,0.0,0.0,0.0,0.0,0.0,0.0,0.0,0.0,0.0,0.0,0.0,0.0,0.0,0.0,0.0,0.0,0.0,0.0,0.0,0.0,0.0,0.0,0.0,0.0,0.0,0.0,0.0,0.0,0.0,0.0,0.0,0.0,0.0,0.0,0.0,0.0,0.0,0.0,0.0,0.0,0.0,0.0,0.0,0.0,0.0,0.0,0.0,0.0,0.0,0.0,0.0,0.0,0.0,0.0,0.0,0.0,0.0,0.0,0.0,0.0,0.0,0.0,0.0,0.0,0.0,0.0,0.0,0.0,0.0,0.0,0.0,0.0,0.0,0.0,0.0,0.0,0.0,0.0,0.0,0.0,0.0,0.0,0.0,0.0,0.0,0.0,0.0,0.0,0.0,0.0,0.0,0.0,0.0,0.0,0.0,0.0,0.0,0.0,0.0,0.0,0.0,0.0,0.0,0.0,0.0,0.0,0.0,0.0,0.0,0.0,0.0,0.0,0.0,0.0,0.0,0.0,0.0,0.0,0.0,0.0,0.0,0.0,0.0,0.0,0.0,0.0,0.0,0.0,0.0,0.0,0.0,0.0,0.0,0.0,0.0,0.0,0.0,0.0,0.0,0.0,0.0,0.0,0.0,0.0,0.0,0.0,0.0,0.0,0.0,0.0,0.0,0.0,0.0,0.0,0.0,0.0,0.0,0.0,0.0,0.0,0.0,0.0,0.0,0.0,0.0,0.0,0.0,0.0,0.0,0.0,0.0,0.0,0.0,0.0,0.0,0.0,0.0,0.0,0.0,0.0,0.0,0.0,0.0,0.0,0.0,0.0,0.0,0.0,0.0,0.0,0.0,0.0,0.0,0.0,0.0,0.0,0.0,0.0,0.0,0.0,0.0,0.0,0.0,0.0,0.0,0.0,0.0,0.0,0.0,0.0,0.0,0.0,0.0,0.0,0.0,0.0,0.0,0.0,0.0,0.0,0.0,0.0,0.0,0.0,0.0,0.0,0.0,0.0,0.0,0.0,0.0,0.0,0.0,0.0,0.0,0.0,0.0,0.0,0.0,0.0,0.0,0.0,0.0,0.0,0.0,0.0,0.0,0.0,0.0,0.0,0.0,0.0,0.0,0.0,0.0,0.0,0.0,0.0,0.0,0.0,0.0,0.0,0.0,0.0,0.0,0.0,0.0,0.0,0.0,0.0,0.0,0.0,0.0,0.0,0.0,0.0,0.0,0.0,0.0,0.0,0.0,0.0,0.0,0.0,0.0,0.0,0.0,0.0,0.0,0.0,0.0,0.0,0.0,0.0,0.0,0.0,0.0,0.0,0.0,0.0,0.0,0.0,0.0,0.0,0.0,0.0,0.0,0.0,0.0,0.0,0.0,0.0,0.0,0.0,0.0,0.0,0.0,0.0,0.0,0.0,0.0,0.0,0.0,0.0,0.0,0.0,0.0,0.0,0.0,0.0,0.0,0.0,0.0,0.0,0.0,0.0,0.0,0.0,0.0,0.0,0.0,0.0,0.0,0.0,0.0,0.0,0.0,0.0,0.0,0.0,0.0,0.0,0.0,0.0,0.0,0.0,0.0,0.0,0.0,0.0,0.0,0.0,0.0,0.0,0.0,0.0,0.0,0.0,0.0,0.0,0.0,0.0,0.0,0.0,0.0,0.0,0.0,0.0,0.0,0.0,0.0,0.0,0.0,0.0,0.0,0.0,0.0,0.0,0.0,0.0,0.0,0.0,0.0,0.0,0.0,0.0,0.0,0.0,0.0,0.0,0.0,0.0,0.0,0.0,0.0,0.0,0.0,0.0,0.0,0.0,0.0,0.0,0.0,0.0,0.0,0.0,0.0,0.0,0.0,0.0,0.0,0.0,0.0,0.0,0.0,0.0,0.0,0.0,0.0,0.0,3.6071,0.0,0.0,0.0,0.0,0.0,0.0,0.0,0.0,0.0,0.0,0.0,0.0,0.0,0.0,0.0,0.0,0.0,0.0,0.0,0.0,0.0,0.0,0.0,0.0,0.0,0.0,0.0,0.0,0.0,0.0,0.0,0.0,0.0,0.0,0.0,0.0,0.0,0.0,0.0,0.0,0.0,0.0,0.0,0.0,0.0,0.0,0.0,0.0,0.0,0.0,0.0,0.0,0.0,0.0,0.0,0.0,0.0,0.0,0.0,0.0,0.0,0.0,0.0,0.0,0.0,0.0,0.0,0.0,0.0,0.0,0.0,0.0,0.0,0.0,0.0,0.0,0.0,0.0,0.0,0.0,0.0,0.0,0.0,0.0,0.0,0.0,0.0,0.0,0.0,0.0,0.0,0.0,0.0,0.0,0.0,0.0,0.0,0.0,0.0,0.0,0.0,0.0,0.0,0.0,0.0,0.0,0.0,0.0,0.0,0.0,3.9486,3.9516,3.8625,3.7769,3.6996,0.0,0.0,0.0,0.0,0.0,0.0,0.0,0.0,0.0,0.0,0.0,0.0,0.0,0.0,0.0,0.0,0.0,0.0,0.0,0.0,0.0,0.0,0.0,0.0,0.0,0.0,0.0,0.0,0.0,0.0,0.0,0.0,0.0,0.0,0.0,0.0,0.0,0.0,0.0,0.0,0.0,0.0,0.0,0.0,0.0,0.0,0.0,0.0,0.0,0.0,0.0,0.0,0.0,0.0,0.0,0.0,0.0,0.0,0.0,0.0,0.0,0.0,0.0,0.0,0.0,0.0,0.0,0.0,0.0,0.0,0.0,0.0,0.0,0.0,0.0,0.0,0.0,0.0,0.0,0.0,0.0,0.0,0.0,0.0,0.0,0.0,0.0,0.0,0.0,0.0,0.0,0.0,0.0,0.0,0.0,0.0,0.0,0.0,0.0,0.0,0.0,0.0,0.0,0.0,0.0,0.0,0.0,0.0,0.0,0.0,0.0,0.0,3.9332,3.8387,3.7541,0.0,0.0,0.0,0.0,0.0,0.0,0.0,0.0,0.0,0.0,0.0,0.0,0.0,0.0,0.0,0.0,0.0,0.0,0.0,0.0,0.0,0.0,0.0,0.0,0.0,0.0,0.0,0.0,0.0,0.0,0.0,0.0,0.0,0.0,0.0,0.0,0.0,0.0,0.0,0.0,0.0,0.0,0.0,0.0,0.0,0.0,0.0,0.0,0.0,0.0,0.0,0.0,0.0,0.0,0.0,0.0,0.0,0.0,0.0,0.0,0.0,0.0,0.0,0.0,0.0,0.0,0.0,0.0,0.0,0.0,0.0,0.0,0.0,0.0,0.0,0.0,0.0,0.0,0.0,0.0,0.0,0.0,0.0,0.0,0.0,0.0,0.0,0.0,0.0,0.0,0.0,0.0,0.0,0.0,0.0,0.0,0.0,0.0,0.0,0.0,0.0,0.0,0.0,0.0,0.0,0.0,0.0,0.0,0.0,0.0,4.0509,4.0128,3.928,0.0,3.6739,0.0,0.0,0.0,0.0,0.0,0.0,0.0,0.0,0.0,0.0,0.0,0.0,0.0,0.0,0.0,0.0,0.0,0.0,0.0,0.0,0.0,0.0,0.0,0.0,0.0,0.0,0.0,0.0,0.0,0.0,0.0,0.0,0.0,0.0,0.0,0.0,0.0,0.0,0.0,0.0,0.0,0.0,0.0,0.0,0.0,0.0,0.0,0.0,0.0,0.0,0.0,0.0,0.0,0.0,0.0,0.0,0.0,0.0,0.0,0.0,0.0,0.0,0.0,0.0,0.0,0.0,0.0,0.0,0.0,0.0,0.0,0.0,0.0,0.0,0.0,0.0,0.0,0.0,0.0,0.0,0.0,0.0,0.0,0.0,0.0,0.0,0.0,0.0,0.0,0.0,0.0,0.0,0.0,0.0,0.0,0.0,0.0,0.0,0.0,0.0,0.0,0.0,0.0,0.0,0.0,0.0,0.0,0.0,0.0,0.0,4.1312,4.1241,3.9838,3.84,0.0,0.0,0.0,0.0,0.0,0.0,0.0,0.0,0.0,0.0,0.0,0.0,0.0,0.0,0.0,0.0,0.0,0.0,0.0,0.0,0.0,0.0,0.0,0.0,0.0,0.0,0.0,0.0,0.0,0.0,0.0,0.0,0.0,0.0,0.0,0.0,0.0,0.0,0.0,0.0,0.0,0.0,0.0,0.0,0.0,0.0,0.0,0.0,0.0,0.0,0.0,0.0,0.0,0.0,0.0,0.0,0.0,0.0,0.0,0.0,0.0,0.0,0.0,0.0,0.0,0.0,0.0,0.0,0.0,0.0,0.0,0.0,0.0,0.0,0.0,0.0,0.0,0.0,0.0,0.0,0.0,0.0,0.0,0.0,0.0,0.0,0.0,0.0,0.0,0.0,0.0,0.0,0.0,0.0,0.0,0.0,0.0,0.0,0.0,0.0,0.0,0.0,0.0,0.0,0.0,0.0,0.0,0.0,0.0,0.0,4.1568,4.1895,4.1582,4.0055,3.8526,3.7127,0.0,0.0,0.0,0.0,0.0,0.0,0.0,0.0,0.0,0.0,0.0,0.0,0.0,0.0,0.0,0.0,0.0,0.0,0.0,0.0,0.0,0.0,0.0,0.0,0.0,0.0,0.0,0.0,0.0,0.0,0.0,0.0,0.0,0.0,0.0,0.0,0.0,0.0,0.0,0.0,0.0,0.0,0.0,0.0,0.0,0.0,0.0,0.0,0.0,0.0,0.0,0.0,0.0,0.0,0.0,0.0,0.0,0.0,0.0,0.0,0.0,0.0,0.0,0.0,0.0,0.0,0.0,0.0,0.0,0.0,0.0,0.0,0.0,0.0,0.0,0.0,0.0,0.0,0.0,0.0,0.0,0.0,0.0,0.0,0.0,0.0,0.0,0.0,0.0,0.0,0.0,0.0,0.0,0.0,0.0,0.0,0.0,0.0,0.0,0.0,0.0,0.0,0.0,0.0,0.0,0.0,0.0,0.0,4.0821,4.1981,4.2046,4.0816,3.9574,3.8345,0.0,0.0,0.0,0.0,0.0,0.0,0.0,0.0,0.0,0.0,0.0,0.0,0.0,0.0,0.0,0.0,0.0,0.0,0.0,0.0,0.0,0.0,0.0,0.0,0.0,0.0,0.0,0.0,0.0,0.0,0.0,0.0,0.0,0.0,0.0,0.0,0.0,0.0,0.0,0.0,0.0,0.0,0.0,0.0,0.0,0.0,0.0,0.0,0.0,0.0,0.0,0.0,0.0,0.0,0.0,0.0,0.0,0.0,0.0,0.0,0.0,0.0,0.0,0.0,0.0,0.0,0.0,0.0,0.0,0.0,0.0,0.0,0.0,0.0,0.0,0.0,0.0,0.0,0.0,0.0,0.0,0.0,0.0,0.0,0.0,0.0,0.0,0.0,0.0,0.0,0.0,0.0,0.0,0.0,0.0,0.0,0.0,0.0,0.0,0.0,0.0,0.0,0.0,0.0,0.0,0.0,0.0,0.0,0.0,4.0637,4.1578,4.1673,4.0923,3.9618,3.8319,0.0,0.0,0.0,0.0,0.0,0.0,0.0,0.0,0.0,0.0,0.0,0.0,0.0,0.0,0.0,0.0,0.0,0.0,0.0,0.0,0.0,0.0,0.0,0.0,0.0,0.0,0.0,0.0,0.0,0.0,0.0,0.0,0.0,0.0,0.0,0.0,0.0,0.0,0.0,0.0,0.0,0.0,0.0,0.0,0.0,0.0,0.0,0.0,0.0,0.0,0.0,0.0,0.0,0.0,0.0,0.0,0.0,0.0,0.0,0.0,0.0,0.0,0.0,0.0,0.0,0.0,0.0,0.0,0.0,0.0,0.0,0.0,0.0,0.0,0.0,0.0,0.0,0.0,0.0,0.0,0.0,0.0,0.0,0.0,0.0,0.0,0.0,0.0,0.0,0.0,0.0,0.0,0.0,0.0,0.0,0.0,0.0,0.0,0.0,0.0,0.0,0.0,0.0,0.0,0.0,0.0,0.0,0.0,0.0,4.1377,0.0,4.1653,4.125,3.9778,3.8428,0.0,0.0,0.0,0.0,0.0,0.0,0.0,0.0,0.0,0.0,0.0,0.0,0.0,0.0,0.0,0.0,0.0,0.0,0.0,0.0,0.0,0.0,0.0,0.0,0.0,0.0,0.0,0.0,0.0,0.0,0.0,0.0,0.0,0.0,0.0,0.0,0.0,0.0,0.0,0.0,0.0,0.0,0.0,0.0,0.0,0.0,0.0,0.0,0.0,0.0,0.0,0.0,0.0,0.0,0.0,0.0,0.0,0.0,0.0,0.0,0.0,0.0,0.0,0.0,0.0,0.0,0.0,0.0,0.0,0.0,0.0,0.0,0.0,0.0,0.0,0.0,0.0,0.0,0.0,0.0,0.0,0.0,0.0,0.0,0.0,0.0,0.0,0.0,0.0,0.0,0.0,0.0,0.0,0.0,0.0,0.0,0.0,0.0,0.0,0.0,0.0,0.0,0.0,0.0,0.0,0.0,0.0,0.0,4.1235,4.3157,4.2538,4.2072,4.1786,4.0076,3.864,0.0,0.0,0.0,0.0,0.0,0.0,0.0,0.0,0.0,0.0,0.0,0.0,0.0,0.0,0.0,0.0,0.0,0.0,0.0,0.0,0.0,0.0,0.0,0.0,0.0,0.0,0.0,0.0,0.0,0.0,0.0,0.0,0.0,0.0,0.0,0.0,0.0,0.0,0.0,0.0,0.0,0.0,0.0,0.0,0.0,0.0,0.0,0.0,0.0,0.0,0.0,0.0,0.0,0.0,0.0,0.0,0.0,0.0,0.0,0.0,0.0,0.0,0.0,0.0,0.0,0.0,0.0,0.0,0.0,0.0,0.0,0.0,0.0,0.0,0.0,0.0,0.0,0.0,0.0,0.0,0.0,0.0,0.0,0.0,0.0,0.0,0.0,0.0,0.0,0.0,0.0,0.0,0.0,0.0,0.0,0.0,0.0,0.0,0.0,0.0,0.0,0.0,0.0,0.0,0.0,0.0,0.0,0.0,0.0,4.3588,4.2901,4.2343,4.2046,4.0542,3.8894,0.0,0.0,0.0,0.0,0.0,0.0,0.0,0.0,0.0,0.0,0.0,0.0,0.0,0.0,0.0,0.0,0.0,0.0,0.0,0.0,0.0,0.0,0.0,0.0,0.0,0.0,0.0,0.0,0.0,0.0,0.0,0.0,0.0,0.0,0.0,0.0,0.0,0.0,0.0,0.0,0.0,0.0,0.0,0.0,0.0,0.0,0.0,0.0,0.0,0.0,0.0,0.0,0.0,0.0,0.0,0.0,0.0,0.0,0.0,0.0,0.0,0.0,0.0,0.0,0.0,0.0,0.0,0.0,0.0,0.0,0.0,0.0,0.0,0.0,0.0,0.0,0.0,0.0,0.0,0.0,0.0,0.0,0.0,0.0,0.0,0.0,0.0,0.0,0.0,0.0,0.0,0.0,0.0,0.0,0.0,0.0,0.0,0.0,0.0,0.0,0.0,0.0,0.0,0.0,0.0,0.0,0.0,0.0,0.0,4.5017,4.4049,4.3386,4.3283,4.1351,3.9322,3.7221,0.0,0.0,0.0,0.0,0.0,0.0,0.0,0.0,0.0,0.0,0.0,0.0,0.0,0.0,0.0,0.0,0.0,0.0,0.0,0.0,0.0,0.0,0.0,0.0,0.0,0.0,0.0,0.0,0.0,0.0,0.0,0.0,0.0,0.0,0.0,0.0,0.0,0.0,0.0,0.0,0.0,0.0,0.0,0.0,0.0,0.0,0.0,0.0,0.0,0.0,0.0,0.0,0.0,0.0,0.0,0.0,0.0,0.0,0.0,0.0,0.0,0.0,0.0,0.0,0.0,0.0,0.0,0.0,0.0,0.0,0.0,0.0,0.0,0.0,0.0,0.0,0.0,0.0,0.0,0.0,0.0,0.0,0.0,0.0,0.0,0.0,0.0,0.0,0.0,0.0,0.0,0.0,0.0,0.0,0.0,0.0,0.0,0.0,0.0,0.0,0.0,0.0,0.0,0.0,0.0,0.0,0.0,0.0,4.75,4.6035,4.5262,4.5203,4.2519,4.0018,0.0,0.0,0.0,0.0,0.0,0.0,0.0,0.0,0.0,0.0,0.0,0.0,0.0,0.0,0.0,0.0,0.0,0.0,0.0,0.0,0.0,0.0,0.0,0.0,0.0,0.0,0.0,0.0,0.0,0.0,0.0,0.0,0.0,0.0,0.0,0.0,0.0,0.0,0.0,0.0,0.0,0.0,0.0,0.0,0.0,0.0,0.0,0.0,0.0,0.0,0.0,0.0,0.0,0.0,0.0,0.0,0.0,0.0,0.0,0.0,0.0,0.0,0.0,0.0,0.0,0.0,0.0,0.0,0.0,0.0,0.0,0.0,0.0,0.0,0.0,0.0,0.0,0.0,0.0,0.0,0.0,0.0,0.0,0.0,0.0,0.0,0.0,0.0,0.0,0.0,0.0,0.0,0.0,0.0,0.0,0.0,0.0,0.0,0.0,0.0,0.0,0.0,0.0,0.0,0.0,0.0,0.0,0.0,0.0,4.8722,4.9261,4.8646,4.6908,4.4335,4.152,0.0,0.0,0.0,0.0,0.0,0.0,0.0,0.0,0.0,0.0,0.0,0.0,0.0,0.0,0.0,0.0,0.0,0.0,0.0,0.0,0.0,0.0,0.0,0.0,0.0,0.0,0.0,0.0,0.0,0.0,0.0,0.0,0.0,0.0,0.0,0.0,0.0,0.0,0.0,0.0,0.0,0.0,0.0,0.0,0.0,0.0,0.0,0.0,0.0,0.0,0.0,0.0,0.0,0.0,0.0,0.0,0.0,0.0,0.0,0.0,0.0,0.0,0.0,0.0,0.0,0.0,0.0,0.0,0.0,0.0,0.0,0.0,0.0,0.0,0.0,0.0,0.0,0.0,0.0,0.0,0.0,0.0,0.0,0.0,0.0,0.0,0.0,0.0,0.0,0.0,0.0,0.0,0.0,0.0,0.0,0.0,0.0,0.0,0.0,0.0,0.0,0.0,0.0,0.0,0.0,0.0,0.0,0.0,4.8481,5.0346,5.1881,5.1708,4.9601,4.5987,4.2502,0.0,0.0,0.0,0.0,0.0,0.0,0.0,0.0,0.0,0.0,0.0,0.0,0.0,0.0,0.0,0.0,0.0,0.0,0.0,0.0,0.0,0.0,0.0,0.0,0.0,0.0,0.0,0.0,0.0,0.0,0.0,0.0,0.0,0.0,0.0,0.0,0.0,0.0,0.0,0.0,0.0,0.0,0.0,0.0,0.0,0.0,0.0,0.0,0.0,0.0,0.0,0.0,0.0,0.0,0.0,0.0,0.0,0.0,0.0,0.0,0.0,0.0,0.0,0.0,0.0,0.0,0.0,0.0,0.0,0.0,0.0,0.0,0.0,0.0,0.0,0.0,0.0,0.0,0.0,0.0,0.0,0.0,0.0,0.0,0.0,0.0,0.0,0.0,0.0,0.0,0.0,0.0,0.0,0.0,0.0,0.0,0.0,0.0,0.0,0.0,0.0,0.0,0.0,0.0,0.0,0.0,0.0,0.0,4.9996,5.1997,5.3932,5.4126,5.2312,4.7485,4.3262,0.0,0.0,0.0,0.0,0.0,0.0,0.0,0.0,0.0,0.0,0.0,0.0,0.0,0.0,0.0,0.0,0.0,0.0,0.0,0.0,0.0,0.0,0.0,0.0,0.0,0.0,0.0,0.0,0.0,0.0,0.0,0.0,0.0,0.0,0.0,0.0,0.0,0.0,0.0,0.0,0.0,0.0,0.0,0.0,0.0,0.0,0.0,0.0,0.0,0.0,0.0,0.0,0.0,0.0,0.0,0.0,0.0,0.0,0.0,0.0,0.0,0.0,0.0,0.0,0.0,0.0,0.0,0.0,0.0,0.0,0.0,0.0,0.0,0.0,0.0,0.0,0.0,0.0,0.0,0.0,0.0,0.0,0.0,0.0,0.0,0.0,0.0,0.0,0.0,0.0,0.0,0.0,0.0,0.0,0.0,0.0,0.0,0.0,0.0,0.0,0.0,0.0,0.0,0.0,0.0,0.0,0.0,0.0,5.1162,5.2809,5.4387,5.4224,5.2158,4.8771,4.5017,0.0,0.0,0.0,0.0,0.0,0.0,0.0,0.0,0.0,0.0,0.0,0.0,0.0,0.0,0.0,0.0,0.0,0.0,0.0,0.0,0.0,0.0,0.0,0.0,0.0,0.0,0.0,0.0,0.0,0.0,0.0,0.0,0.0,0.0,0.0,0.0,0.0,0.0,0.0,0.0,0.0,0.0,0.0,0.0,0.0,0.0,0.0,0.0,3.0199,0.0,0.0,0.0,0.0,0.0,0.0,0.0,0.0,0.0,0.0,0.0,0.0,0.0,0.0,0.0,0.0,0.0,0.0,0.0,0.0,0.0,0.0,0.0,0.0,0.0,0.0,0.0,0.0,0.0,0.0,0.0,0.0,0.0,0.0,0.0,0.0,0.0,0.0,0.0,0.0,0.0,0.0,0.0,0.0,0.0,0.0,0.0,0.0,0.0,0.0,0.0,0.0,0.0,0.0,0.0,0.0,0.0,0.0,0.0,5.2884,5.3788,5.5373,5.485,5.1985,4.8945,4.5479,0.0,0.0,0.0,0.0,0.0,0.0,0.0,0.0,0.0,0.0,0.0,0.0,0.0,0.0,0.0,0.0,0.0,0.0,0.0,0.0,0.0,0.0,0.0,0.0,0.0,0.0,0.0,0.0,0.0,0.0,0.0,0.0,0.0,0.0,0.0,0.0,0.0,0.0,0.0,0.0,0.0,0.0,0.0,0.0,0.0,0.0,0.0,0.0,0.0,0.0,0.0,0.0,0.0,0.0,0.0,0.0,0.0,0.0,0.0,0.0,0.0,0.0,0.0,0.0,0.0,0.0,0.0,0.0,0.0,0.0,0.0,0.0,0.0,0.0,0.0,0.0,0.0,0.0,0.0,0.0,0.0,0.0,0.0,0.0,0.0,0.0,0.0,0.0,0.0,0.0,0.0,0.0,0.0,0.0,0.0,0.0,0.0,0.0,0.0,0.0,0.0,0.0,0.0,0.0,0.0,0.0,0.0,5.1666,5.4218,5.461,5.6045,5.5176,5.1783,4.8565,4.5209,4.1552,0.0,0.0,0.0,0.0,0.0,0.0,0.0,0.0,0.0,0.0,0.0,0.0,0.0,0.0,0.0,0.0,0.0,0.0,0.0,0.0,0.0,0.0,0.0,0.0,0.0,0.0,0.0,0.0,0.0,0.0,0.0,0.0,0.0,0.0,0.0,0.0,0.0,0.0,2.8331,2.9721,0.0,0.0,0.0,0.0,0.0,0.0,0.0,0.0,3.2658,0.0,0.0,0.0,0.0,0.0,0.0,0.0,0.0,0.0,0.0,0.0,0.0,0.0,0.0,0.0,0.0,0.0,0.0,0.0,0.0,0.0,0.0,0.0,0.0,0.0,0.0,0.0,0.0,0.0,0.0,0.0,0.0,0.0,0.0,0.0,0.0,0.0,0.0,0.0,0.0,0.0,0.0,0.0,0.0,0.0,0.0,0.0,0.0,0.0,0.0,0.0,0.0,0.0,0.0,0.0,0.0,4.7356,5.113,5.3617,5.4711,5.4797,5.3693,5.1218,4.7814,4.4528,4.1309,0.0,0.0,0.0,0.0,0.0,0.0,0.0,0.0,0.0,0.0,0.0,0.0,0.0,0.0,0.0,0.0,0.0,0.0,0.0,0.0,0.0,0.0,0.0,0.0,0.0,0.0,0.0,0.0,0.0,0.0,0.0,0.0,0.0,0.0,0.0,0.0,0.0,0.0,0.0,3.1768,3.2477,0.0,0.0,0.0,0.0,0.0,0.0,0.0,0.0,3.1428,0.0,0.0,0.0,0.0,0.0,0.0,0.0,0.0,0.0,0.0,0.0,0.0,0.0,0.0,0.0,0.0,0.0,0.0,0.0,0.0,0.0,0.0,0.0,0.0,0.0,0.0,0.0,0.0,0.0,0.0,0.0,0.0,0.0,0.0,0.0,0.0,0.0,0.0,0.0,0.0,0.0,0.0,0.0,0.0,0.0,0.0,0.0,0.0,0.0,0.0,0.0,0.0,0.0,0.0,0.0,4.8149,5.1836,5.3905,5.4202,5.4176,5.2986,5.0549,4.7007,4.3685,0.0,0.0,0.0,0.0,0.0,0.0,0.0,0.0,0.0,0.0,0.0,0.0,0.0,0.0,0.0,0.0,0.0,0.0,0.0,0.0,0.0,0.0,0.0,0.0,0.0,0.0,0.0,0.0,0.0,0.0,0.0,0.0,0.0,0.0,0.0,0.0,0.0,0.0,0.0,0.0,3.3105,3.3917,3.4235,0.0,0.0,0.0,0.0,0.0,0.0,3.3813,3.3265,0.0,0.0,0.0,0.0,0.0,0.0,0.0,0.0,0.0,0.0,0.0,0.0,0.0,0.0,0.0,0.0,0.0,0.0,0.0,0.0,0.0,0.0,0.0,0.0,0.0,0.0,0.0,0.0,0.0,0.0,0.0,0.0,0.0,0.0,0.0,0.0,0.0,0.0,0.0,0.0,0.0,0.0,0.0,0.0,0.0,0.0,0.0,0.0,0.0,0.0,0.0,0.0,0.0,0.0,0.0,4.8644,5.233,5.4013,5.3641,5.3757,5.2583,4.99,4.6475,4.3192,0.0,0.0,0.0,0.0,0.0,0.0,0.0,0.0,0.0,0.0,0.0,0.0,0.0,0.0,0.0,0.0,0.0,0.0,0.0,0.0,0.0,0.0,0.0,0.0,0.0,0.0,0.0,0.0,0.0,0.0,0.0,0.0,0.0,0.0,0.0,0.0,0.0,0.0,0.0,0.0,0.0,3.504,3.5547,3.531,0.0,0.0,0.0,0.0,3.5693,3.5903,0.0,0.0,0.0,0.0,0.0,0.0,0.0,0.0,0.0,0.0,0.0,0.0,0.0,0.0,0.0,0.0,0.0,0.0,0.0,0.0,0.0,0.0,0.0,0.0,0.0,0.0,0.0,0.0,0.0,0.0,0.0,0.0,0.0,0.0,0.0,0.0,0.0,0.0,0.0,0.0,0.0,0.0,0.0,0.0,0.0,0.0,0.0,0.0,0.0,0.0,0.0,0.0,0.0,0.0,0.0,0.0,4.8462,5.1436,5.3116,5.3234,5.3289,5.2183,4.9825,4.6762,4.3622,0.0,0.0,0.0,0.0,0.0,0.0,0.0,0.0,0.0,0.0,0.0,0.0,0.0,0.0,0.0,0.0,0.0,0.0,0.0,0.0,0.0,0.0,0.0,0.0,0.0,0.0,0.0,0.0,0.0,0.0,0.0,0.0,0.0,0.0,0.0,0.0,0.0,0.0,0.0,0.0,0.0,3.5756,3.6871,3.6952,3.7,0.0,0.0,3.7074,3.7421,3.7015,0.0,0.0,0.0,0.0,0.0,0.0,0.0,0.0,0.0,0.0,0.0,0.0,0.0,0.0,0.0,0.0,0.0,0.0,0.0,0.0,0.0,0.0,0.0,0.0,0.0,0.0,0.0,0.0,0.0,0.0,0.0,0.0,0.0,0.0,0.0,0.0,0.0,0.0,0.0,0.0,0.0,0.0,0.0,0.0,0.0,0.0,0.0,0.0,0.0,0.0,0.0,0.0,0.0,0.0,0.0,4.6144,4.8632,5.137,5.2789,5.2824,5.2811,5.1846,4.9839,4.6578,4.3344,0.0,0.0,0.0,0.0,0.0,0.0,0.0,0.0,0.0,0.0,0.0,0.0,0.0,0.0,0.0,0.0,0.0,0.0,0.0,0.0,0.0,0.0,0.0,0.0,0.0,0.0,0.0,0.0,0.0,0.0,0.0,0.0,0.0,0.0,0.0,0.0,0.0,0.0,0.0,0.0,0.0,0.0,3.8164,3.8583,0.0,0.0,0.0,3.95,3.9696,0.0,0.0,0.0,0.0,0.0,0.0,0.0,0.0,0.0,0.0,0.0,0.0,0.0,0.0,0.0,0.0,0.0,0.0,0.0,0.0,0.0,0.0,0.0,0.0,0.0,0.0,0.0,0.0,0.0,0.0,0.0,0.0,0.0,0.0,0.0,0.0,0.0,0.0,0.0,0.0,0.0,0.0,0.0,0.0,0.0,0.0,0.0,0.0,0.0,0.0,0.0,0.0,0.0,0.0,0.0,0.0,0.0,4.8656,5.1301,5.2606,5.2503,5.2625,5.1735,4.9676,4.6431,0.0,0.0,0.0,0.0,0.0,0.0,0.0,0.0,0.0,0.0,0.0,0.0,0.0,0.0,0.0,0.0,0.0,0.0,0.0,0.0,0.0,0.0,0.0,0.0,0.0,0.0,0.0,2.4618,0.0,0.0,0.0,0.0,0.0,0.0,0.0,0.0,0.0,0.0,0.0,0.0,0.0,0.0,3.7848,3.959,4.0234,4.0605,0.0,0.0,4.168,4.168,4.1211,4.0351,0.0,0.0,0.0,0.0,0.0,0.0,0.0,0.0,0.0,0.0,0.0,0.0,0.0,0.0,0.0,0.0,0.0,0.0,0.0,0.0,0.0,0.0,0.0,0.0,0.0,0.0,0.0,0.0,3.0241,0.0,0.0,0.0,0.0,0.0,0.0,0.0,0.0,0.0,0.0,0.0,0.0,0.0,0.0,0.0,0.0,0.0,0.0,0.0,0.0,0.0,0.0,0.0,0.0,0.0,4.5782,4.8322,5.0938,5.24,5.2529,5.2914,5.1883,4.9194,4.6549,4.3316,0.0,0.0,0.0,0.0,0.0,0.0,0.0,0.0,0.0,0.0,0.0,0.0,0.0,0.0,0.0,0.0,0.0,0.0,0.0,0.0,0.0,0.0,0.0,0.0,0.0,0.0,0.0,0.0,0.0,0.0,0.0,0.0,0.0,0.0,0.0,0.0,0.0,0.0,0.0,0.0,0.0,3.9219,4.1328,4.1992,4.2539,0.0,4.3164,4.299,4.299,4.2266,4.1133,3.9434,0.0,0.0,0.0,0.0,0.0,0.0,0.0,0.0,0.0,0.0,0.0,0.0,0.0,0.0,0.0,0.0,0.0,0.0,0.0,0.0,0.0,0.0,0.0,0.0,0.0,3.2447,3.232,0.0,3.2547,0.0,0.0,0.0,0.0,0.0,0.0,0.0,0.0,0.0,0.0,0.0,0.0,0.0,0.0,0.0,0.0,0.0,0.0,0.0,0.0,0.0,0.0,0.0,0.0,4.6168,4.8479,5.0988,5.248,5.2872,5.2796,5.1703,4.9603,4.6657,4.342,0.0,0.0,0.0,0.0,0.0,0.0,0.0,0.0,0.0,0.0,0.0,0.0,0.0,0.0,0.0,0.0,0.0,0.0,0.0,0.0,0.0,0.0,0.0,0.0,0.0,0.0,0.0,0.0,2.7486,2.7305,2.708,0.0,0.0,0.0,0.0,0.0,0.0,0.0,0.0,0.0,0.0,4.0859,4.2715,4.3533,0.0,0.0,4.4827,4.459,4.4316,4.3535,4.2383,4.0684,3.8633,0.0,0.0,0.0,0.0,0.0,0.0,0.0,0.0,0.0,0.0,0.0,0.0,0.0,0.0,0.0,0.0,0.0,0.0,0.0,0.0,0.0,0.0,0.0,0.0,0.0,0.0,0.0,0.0,0.0,0.0,0.0,0.0,0.0,0.0,0.0,0.0,0.0,0.0,0.0,0.0,0.0,0.0,0.0,0.0,0.0,0.0,0.0,0.0,0.0,0.0,0.0,0.0,4.6088,4.8407,5.0844,5.2345,5.2745,5.2518,5.1444,4.9405,4.6721,4.3636,0.0,0.0,0.0,0.0,0.0,0.0,0.0,0.0,0.0,0.0,0.0,0.0,0.0,0.0,0.0,0.0,0.0,0.0,0.0,0.0,0.0,0.0,0.0,0.0,0.0,0.0,0.0,0.0,2.8496,2.7996,2.7291,0.0,0.0,0.0,0.0,0.0,0.0,0.0,0.0,0.0,0.0,4.25,4.4062,4.5039,4.5703,4.6016,4.584,4.5527,4.5098,4.418,4.3029,4.1465,0.0,0.0,0.0,0.0,0.0,0.0,0.0,0.0,0.0,0.0,0.0,0.0,0.0,0.0,0.0,0.0,0.0,0.0,0.0,0.0,0.0,0.0,0.0,0.0,0.0,0.0,0.0,3.5481,0.0,0.0,3.5372,0.0,0.0,0.0,0.0,0.0,0.0,0.0,0.0,0.0,0.0,0.0,0.0,0.0,0.0,0.0,0.0,0.0,0.0,0.0,0.0,0.0,0.0,4.5506,4.8028,5.0485,5.171,5.1745,5.2168,5.1122,4.8534,4.6633,4.4047,4.0527,0.0,0.0,0.0,0.0,0.0,0.0,0.0,0.0,0.0,0.0,0.0,0.0,0.0,0.0,0.0,0.0,0.0,0.0,0.0,0.0,0.0,0.0,0.0,0.0,0.0,0.0,2.9241,2.9043,2.8555,0.0,0.0,0.0,0.0,0.0,0.0,0.0,0.0,0.0,0.0,4.1504,4.4141,4.5449,4.6348,4.6855,4.6894,4.6211,4.5527,4.5117,4.3965,4.2656,0.0,0.0,0.0,0.0,0.0,0.0,0.0,0.0,0.0,0.0,0.0,0.0,0.0,0.0,0.0,0.0,0.0,0.0,0.0,0.0,0.0,0.0,0.0,0.0,0.0,0.0,0.0,3.9721,3.9345,0.0,0.0,0.0,0.0,0.0,0.0,0.0,0.0,0.0,0.0,0.0,4.0681,3.9903,0.0,0.0,0.0,0.0,0.0,0.0,0.0,0.0,0.0,0.0,0.0,0.0,4.6498,4.8037,5.0464,5.1598,5.1264,5.1373,5.0492,4.8444,4.6647,4.3778,3.9766,0.0,0.0,0.0,0.0,0.0,0.0,0.0,0.0,0.0,0.0,0.0,0.0,0.0,0.0,0.0,0.0,0.0,0.0,0.0,0.0,0.0,0.0,0.0,0.0,0.0,2.9936,0.0,0.0,0.0,0.0,0.0,0.0,0.0,0.0,0.0,0.0,0.0,3.8376,4.1191,4.3808,4.5801,4.6797,4.7168,4.7363,0.0,0.0,0.0,0.0,0.0,0.0,0.0,0.0,0.0,0.0,0.0,0.0,0.0,0.0,3.5894,3.4512,3.3812,3.3304,3.2982,0.0,0.0,0.0,0.0,0.0,0.0,0.0,0.0,0.0,0.0,0.0,0.0,0.0,0.0,4.3686,4.3259,4.2521,0.0,0.0,0.0,0.0,0.0,0.0,0.0,0.0,4.1878,4.1854,4.2396,4.1435,4.0673,0.0,3.9082,3.8336,0.0,0.0,0.0,0.0,0.0,0.0,0.0,0.0,4.6552,4.7852,4.9971,5.0892,5.0535,5.0689,4.9919,4.8156,4.6072,4.3457,4.0215,3.84,3.6937,0.0,0.0,0.0,0.0,0.0,0.0,0.0,0.0,0.0,0.0,0.0,0.0,0.0,0.0,0.0,0.0,0.0,0.0,0.0,0.0,0.0,0.0,0.0,3.075,0.0,0.0,0.0,0.0,0.0,0.0,0.0,0.0,0.0,3.6255,3.8398,4.0859,4.3418,4.5488,4.7012,4.7715,0.0,0.0,0.0,0.0,0.0,0.0,0.0,4.3706,4.3159,4.2401,4.1592,4.0678,3.9957,3.9463,3.9227,0.0,0.0,3.577,3.5292,3.501,3.4427,3.4899,3.5292,3.4903,3.5524,3.6267,0.0,0.0,0.0,0.0,0.0,0.0,0.0,0.0,4.8611,4.8209,0.0,4.5468,0.0,0.0,0.0,0.0,0.0,4.3105,0.0,0.0,4.4177,4.4096,4.4194,4.3395,4.2757,4.2315,4.1031,4.0218,3.9725,3.7148,0.0,0.0,0.0,0.0,0.0,0.0,4.5822,4.7568,4.9076,4.9716,4.9604,5.0086,4.944,4.7603,4.5098,4.3144,4.1855,4.0156,3.8818,3.788,3.6576,0.0,0.0,0.0,0.0,0.0,0.0,0.0,0.0,0.0,0.0,0.0,0.0,0.0,0.0,0.0,0.0,0.0,0.0,0.0,0.0,3.1162,0.0,0.0,0.0,0.0,0.0,0.0,0.0,0.0,0.0,0.0,3.8387,4.0704,4.3123,4.4902,0.0,0.0,0.0,0.0,4.8079,4.7576,4.6321,4.5224,4.4774,4.3901,4.3215,4.3197,0.0,0.0,4.1192,4.1049,4.0588,3.9428,3.876,3.8161,3.7192,3.711,3.6875,3.5711,3.6107,3.6315,3.5594,3.6097,3.6634,5.2578,0.0,0.0,0.0,0.0,4.9967,5.0845,5.2,5.1398,5.077,4.9984,4.8419,0.0,0.0,0.0,0.0,0.0,0.0,4.4946,4.5418,4.5178,4.5289,4.5653,4.5156,4.4513,4.3765,4.2762,4.2071,4.1542,4.0153,3.9771,4.0338,0.0,0.0,0.0,0.0,4.7244,4.8501,4.9899,5.0282,4.9549,4.9993,4.9236,4.7148,4.5215,4.373,4.2734,4.1348,4.0232,3.9328,3.8248,0.0,0.0,0.0,0.0,0.0,0.0,0.0,0.0,0.0,0.0,0.0,0.0,0.0,0.0,0.0,0.0,0.0,0.0,0.0,3.1742,3.1991,3.1871,0.0,0.0,0.0,0.0,0.0,0.0,0.0,0.0,0.0,4.333,4.4165,4.5391,0.0,0.0,4.8982,4.9062,4.8775,4.8237,4.7328,4.6249,0.0,4.4654,4.3942,4.3265,4.2899,4.199,4.1212,4.1012,4.0234,3.9556,3.9256,3.8648,3.806,3.7826,3.7541,3.7373,3.7292,3.7607,3.78,3.7624,3.8251,3.884,5.8378,5.4687,5.2955,5.2879,5.3909,5.4135,5.5013,5.6269,5.5415,5.448,5.3503,5.1603,4.9576,4.7515,4.6275,0.0,0.0,0.0,4.6368,4.6737,4.6483,4.6518,4.678,4.6557,4.6074,4.5391,4.4687,4.4128,4.3647,4.2801,4.2648,4.312,0.0,0.0,4.5486,4.673,4.7869,4.8896,4.9879,5.0093,4.9512,4.9281,4.8515,4.7187,4.5547,4.4316,4.3613,4.2519,4.1445,4.0449,3.9659,3.8734,0.0,0.0,0.0,0.0,0.0,0.0,0.0,0.0,0.0,0.0,0.0,3.0368,3.016,0.0,0.0,0.0,3.1897,3.2411,3.2964,3.2748,0.0,0.0,0.0,0.0,0.0,0.0,0.0,3.9045,4.2032,4.437,4.5483,4.6204,4.7095,4.8238,4.8635,4.8823,4.8786,0.0,4.7553,4.6477,4.5536,4.4517,4.3466,4.3056,4.2661,4.215,4.1479,4.0894,4.068,4.0095,3.9548,3.9166,3.8743,3.836,3.8183,3.7926,3.7769,3.7932,3.8337,3.8556,3.8307,3.8827,3.9239,6.3776,6.2882,5.8855,5.7625,5.8378,5.8805,5.9608,6.0434,5.9857,5.8735,5.7107,5.4697,5.2453,5.0401,4.8511,0.0,4.894,4.8004,4.7835,4.8273,4.795,4.7765,4.7818,4.7838,4.7558,4.7084,4.6738,4.6348,4.5942,4.5137,4.5303,4.6341,4.4785,4.4542,4.5738,4.7035,4.8145,4.9142,4.951,4.9601,4.9551,4.8262,4.7558,4.75,4.5898,4.4824,4.4394,4.3574,4.2558,4.1387,4.0859,3.9994,3.8592,0.0,0.0,0.0,0.0,0.0,0.0,0.0,0.0,0.0,0.0,0.0,0.0,0.0,0.0,3.3432,3.3589,0.0,3.4085,3.3446,0.0,0.0,0.0,3.3843,3.4494,3.6835,3.8942,4.0469,0.0,0.0,4.5628,4.6994,4.8072,4.8472,4.8164,4.781,4.7665,4.71,4.6264,4.5091,4.4329,4.3295,4.1786,4.1571,4.1446,4.106,4.0941,4.0651,4.0314,4.0121,3.9813,3.9184,3.9051,3.888,3.8418,3.8355,3.8234,3.7958,3.8547,3.8866,3.8247,3.8351,3.8623,6.7367,6.7116,6.566,6.4002,6.2295,6.1969,6.2042,6.2256,6.1319,5.9795,5.7935,5.6266,5.3701,5.0546,5.0121,4.9498,4.8861,4.8951,4.9049,4.9171,4.9078,4.9233,4.9597,4.957,4.9336,4.8926,4.8808,4.8535,4.8151,4.7955,4.7987,4.8246,4.8449,4.8554,4.856,4.9177,5.0119,5.1313,5.1051,5.0616,5.0,4.8437,4.7422,4.709,4.5742,4.4824,4.4414,4.3848,4.3125,4.2168,4.1719,4.0857,3.9555,3.8795,0.0,0.0,0.0,0.0,0.0,0.0,0.0,0.0,0.0,3.3633,3.3032,0.0,3.5706,0.0,3.5374,3.5139,3.4472,3.4235,0.0,0.0,3.4362,3.5428,3.5982,3.8337,4.0447,4.1659,4.3918,4.569,4.6392,4.6503,4.6626,4.7035,4.7808,4.7867,4.6653,4.6298,4.5448,4.3662,4.2985,4.228,4.0887,4.03,4.0115,3.9952,3.9574,3.9238,3.9095,3.8728,3.8495,3.8694,3.8641,3.8623,3.8838,3.8713,3.8802,3.9053,3.9147,3.9115,3.9145,3.9225,3.9279,7.0079,7.0008,6.9525,6.815,6.6186,6.5157,6.4484,6.4057,6.2989,6.1293,5.9008,5.6095,5.3496,5.1354,5.0737,5.031,5.0036,4.9894,4.9927,5.0106,4.9875,4.9941,5.0223,5.0223,5.0058,4.9824,4.9824,4.9687,4.9453,4.95,4.9578,4.9746,5.041,5.081,5.0936,5.1206,5.1597,5.2109,5.1445,5.0742,4.9883,4.8379,4.7285,4.666,4.5586,4.4684,4.4101,4.3652,4.3027,4.2207,4.1933,4.1269,4.0184,3.966,3.87,0.0,0.0,0.0,0.0,0.0,0.0,0.0,0.0,0.0,0.0,0.0,3.7319,3.6807,3.6547,3.5973,3.5049,3.4748,3.438,3.3767,3.494,3.5937,3.6319,3.8451,4.0306,4.1171,4.2915,4.4293,4.4781,4.4765,4.466,4.4672,4.526,4.5412,4.4639,4.4048,4.311,4.1712,4.1293,4.0833,3.9734,3.928,3.9102,3.9168,3.891,3.8722,3.8843,3.8583,3.8473,3.8766,3.8771,3.8704,3.886,3.902,3.9239,3.9493,3.9693,3.9706,3.9613,3.9599,3.9573,7.2144,7.2072,7.1507,7.0593,6.9265,6.7775,6.6504,6.5398,6.4323,6.2362,5.9652,5.5134,5.2864,5.2329,5.1088,5.0945,5.1602,5.0869,5.0712,5.1087,5.0726,5.0508,5.0555,5.0508,5.0469,5.043,5.043,5.0391,5.0351,5.0391,5.0605,5.0976,5.1445,5.2051,5.2754,5.291,5.2695,5.2168,5.1328,5.0449,4.9531,4.8183,4.709,4.623,4.5332,4.4473,4.3652,4.3223,4.2617,4.1855,4.1797,4.1406,4.0528,4.0234,3.9455,0.0,3.8367,0.0,0.0,0.0,0.0,0.0,0.0,0.0,0.0,3.844,3.8604,3.7975,3.7401,3.6741,3.5877,3.5288,3.4847,3.4454,3.5276,3.6026,3.6305,3.8037,3.9456,4.0009,4.1157,4.2034,4.2477,4.2583,4.2482,4.2219,4.1977,4.2001,4.205,4.1415,4.0581,3.9766,3.947,3.925,3.876,3.8476,3.8455,3.8651,3.8736,3.8753,3.8998,3.8993,3.902,3.9033,3.9033,3.898,3.8771,3.9225,3.964,3.9746,4.0187,4.0374,3.9907,3.976,3.9626,7.3294,7.3197,7.2225,7.0713,6.8826,6.7669,6.6338,6.4834,6.3408,6.0926,5.7748,5.5166,5.3605,5.2796,5.2443,5.2172,5.1991,5.2198,5.2296,5.2325,5.2276,5.2246,5.2226,5.2226,5.2051,5.1787,5.1719,5.1543,5.1211,5.1562,5.1758,5.1855,5.2667,5.3066,5.3331,0.0,0.0,0.0,5.1758,5.0742,4.9531,4.7865,4.666,4.5801,4.459,0.0,4.3203,4.2793,4.2324,4.1836,4.1797,0.0,0.0,0.0,0.0,0.0,0.0,0.0,0.0,0.0,0.0,0.0,3.9372,3.9454,3.8789,3.9623,3.9919,3.9206,3.8725,3.8014,3.6982,3.6383,3.586,3.5374,3.606,3.6677,3.6868,3.8367,3.9588,3.9948,4.0821,4.1561,4.1785,4.1375,4.108,4.1071,4.0123,3.9434,3.9518,3.9902,3.9606,3.8486,3.8236,3.817,3.8022,3.8334,3.8624,3.8718,3.8718,3.8744,3.8798,3.8811,3.8753,3.878,3.894,3.902,3.8811,3.9386,4.0054,4.0267,4.0775,4.1002,4.0441,4.0321,4.0294,7.3306,0.0,7.1344,6.9665,0.0,6.6147,6.457,6.3067,6.212,6.0,5.7039,5.5279,5.428,5.3806,5.3528,5.3247,5.3047,5.3262,5.3242,5.3027,5.3027,5.291,5.2715,5.2715,5.2598,5.2402,5.2402,5.2285,5.209,5.2285,5.25,5.2765,5.3214,5.3527,5.3691,5.3957,5.3691,5.3027,5.1973,5.0703,4.9219,4.793,4.6641,4.541,4.4707,0.0,0.0,0.0,0.0,0.0,0.0,0.0,0.0,4.1196,0.0,4.0007,3.9909,3.955,3.8807,3.8947,3.9045,3.8853,3.9314,3.9632,3.9774,3.9758,3.9549,3.9088,3.8465,3.7779,3.7046,3.664,3.6255,3.5867,3.6299,3.672,3.7006,3.7825,3.8667,3.9083,3.9516,3.9952,4.0217,3.9905,3.9705,3.983,3.9231,3.8668,3.8562,3.8743,3.8595,3.7912,3.7955,3.8036,3.8076,3.8397,3.8718,3.8718,3.8718,3.8718,3.8718,3.8718,3.8713,3.886,3.9113,3.9346,3.9452,4.002,4.0674,4.0909,4.1363,4.1684,4.1363,4.1109,4.0815,7.27,7.1542,6.9785,6.8073,6.638,6.4294,6.2455,6.0894,0.0,0.0,0.0,5.547,5.4852,5.4872,5.4411,5.4258,5.4206,5.4206,5.4062,5.3742,5.3762,5.3516,5.3164,5.3086,5.3008,5.293,5.2871,5.2773,5.2715,5.2793,5.3008,5.339,5.3488,5.3672,5.3984,5.3574,5.3371,5.3234,5.1973,5.0566,4.905,4.7988,4.6758,4.525,4.4977,4.4196,4.271,4.2905,4.2668,4.1828,4.1833,4.1931,4.2049,4.1328,4.0667,4.0234,4.017,3.965,3.8569,3.9204,3.9263,3.8376,3.8568,3.9216,4.0267,3.9404,3.8742,3.852,3.7844,3.7289,3.683,3.6699,3.6571,3.6327,3.6567,3.6834,3.7074,3.7355,3.7842,3.8227,3.8405,3.8495,3.8722,3.8749,3.8718,3.8718,3.8736,3.8651,3.837,3.8137,3.7952,3.7839,3.8067,3.8307,3.8361,3.8517,3.8704,3.8718,3.8718,3.8718,3.8718,3.8718,3.8825,3.8926,3.9372,3.9693,3.996,4.0695,4.1288,4.1288,4.1804,4.2218,4.2178,4.1831,4.1376,7.1555,7.0349,6.819,6.6319,6.4739,6.3002,6.1031,5.9012,5.7891,5.6965,5.6183,5.552,5.5221,5.5221,5.5137,5.5137,5.5137,5.5137,5.5098,5.5039,5.5039,5.5,5.4922,5.457,5.4199,5.3848,5.3457,5.3066,5.2773,5.3086,5.3351,5.3468,5.375,5.3965,5.3933,5.3594,5.3234,5.2793,5.1543,5.043,4.9433,4.7851,4.6738,4.6113,4.5078,4.4207,4.3559,4.3209,4.2582,4.168,4.1929,4.1791,4.0971,4.063,4.0373,4.0076,3.8893,3.838,3.8672,3.8272,3.8194,3.8708,3.8376,3.8337,3.8827,3.9002,3.8796,3.8185,3.7934,3.7734,3.7276,3.7442,3.7454,3.7252,3.7448,3.7649,3.7676,3.7916,3.82,3.8263,3.8504,3.8651,3.8704,3.8718,3.8718,3.8718,3.8718,3.8704,3.8571,3.817,3.7849,3.7849,3.8063,3.8294,3.8388,3.8517,3.8691,3.8718,3.8718,3.8718,3.8718,3.8718,3.8758,3.8798,3.9367,3.9813,3.9773,4.0802,4.1363,4.1363,4.1737,4.2138,4.2151,4.2071,4.2004,6.9119,6.7437,6.5755,6.4304,6.2904,6.1264,5.9807,5.8528,5.7722,5.7251,5.7074,5.6787,5.6699,5.6699,5.6699,5.6699,5.668,5.6445,5.6211,5.5996,5.5762,5.5527,5.5293,5.5117,5.4805,5.4375,5.418,5.3848,5.3476,5.3633,5.3711,5.373,5.3875,5.3972,5.3933,5.3359,5.291,5.2676,5.1445,5.0391,4.9484,4.8281,4.726,4.666,4.5793,4.4924,4.4009,4.345,4.271,4.1798,4.1531,4.1319,4.1099,4.0096,3.9478,3.9335,3.8473,3.7923,3.7895,3.7453,3.7461,3.7955,3.7502,3.7339,3.7643,3.7819,3.7847,3.7621,3.738,3.725,3.7301,3.749,3.7581,3.7638,3.7742,3.7876,3.8036,3.8214,3.8317,3.8491,3.8624,3.8718,3.8718,3.8718,3.8718,3.8718,3.8718,3.8718,3.8718,3.8491,3.8303,3.8317,3.8424,3.8504,3.8517,3.8611,3.8704,3.8718,3.8718,3.8718,3.8718,3.8718,3.8784,3.8886,3.938,3.976,3.9786,4.0468,4.0895,4.0989,4.1336,4.1684,4.1764,4.1978,4.2044,6.6676,6.4519,6.3402,6.2275,6.1155,5.9896,5.9115,5.8652,5.8301,5.8219,5.8199,5.8023,5.7906,5.7906,5.7906,5.7906,5.7867,5.7519,5.7187,5.6855,5.6426,5.6035,5.5723,5.5566,5.5273,5.498,5.4863,5.4648,5.4284,5.4219,5.407,5.3992,5.3972,5.3972,5.3972,5.3164,5.2715,5.2637,5.1445,5.0469,4.9777,4.8867,4.7982,4.7198,4.6543,4.5516,4.4221,4.3493,4.2694,4.1679,4.1038,4.0771,4.077,3.9465,3.8636,3.8508,3.7998,3.748,3.7012,3.6888,3.6951,3.7182,3.688,3.6794,3.6967,3.7085,3.7169,3.7277,3.7042,3.705,3.7438,3.7598,3.7676,3.7889,3.7983,3.813,3.8388,3.837,3.845,3.8678,3.8718,3.8718,3.8718,3.8718,3.8718,3.8718,3.8718,3.8718,3.8718,3.8718,3.8718,3.8718,3.8718,3.8704,3.8718,3.8718,3.8718,3.8718,3.8718,3.8718,3.8718,3.8718,3.8726,3.8953,3.9346,3.9653,3.9907,4.0254,4.0481,4.0575,4.0882,4.1176,4.1328,4.1844,4.1951,6.4848,6.2843,6.1657,6.0476,5.9515,5.9288,5.9157,5.9101,5.9082,5.9062,5.8945,5.8278,5.7945,5.7906,5.7945,5.7965,5.7965,5.7887,5.7828,5.775,5.7305,5.707,5.6914,5.6177,5.5806,5.5689,5.543,5.5215,5.5098,5.4765,5.4414,5.4031,5.3972,5.3972,5.3875,5.3164,5.2715,5.2695,5.1465,5.0762,5.0625,4.9453,4.8585,4.8,4.6748,4.5429,4.3977,4.3191,4.2197,4.0879,4.0562,4.0117,3.9278,3.8659,3.8256,3.8024,3.7139,3.6554,3.6531,3.6529,3.6703,3.6929,3.7197,3.7301,3.7355,3.7585,3.7654,3.7507,3.7598,3.7662,3.7782,3.7996,3.8143,3.821,3.8437,3.8651,3.8651,3.8678,3.8691,3.8704,3.8718,3.8718,3.8718,3.8718,3.8718,3.8718,3.8718,3.8718,3.8718,3.8718,3.8718,3.8718,3.8718,3.8718,3.8718,3.8718,3.8704,3.8704,3.8718,3.8704,3.8704,3.8718,3.8744,3.8793,3.9185,3.9519,3.9693,4.0054,4.0374,4.0241,4.0428,4.0708,4.1229,4.1764,4.1781,6.3298,6.1816,6.1311,6.0498,5.9587,5.9297,5.9199,5.9199,5.9199,5.9199,5.916,5.8844,5.8652,5.8708,5.8688,5.8652,5.8613,5.8379,5.8262,5.8223,5.7793,5.7461,5.7187,5.6875,5.6445,5.5904,5.5762,5.5547,5.5273,5.4883,5.459,5.4394,5.418,5.3972,5.3984,5.3398,5.3086,5.3066,5.2027,5.1442,5.1268,5.0,4.8905,4.8301,4.6942,4.5433,4.3927,4.2717,4.1293,3.982,3.9418,3.8941,3.8185,3.7752,3.7461,3.7333,3.6801,3.6544,3.674,3.6914,3.7074,3.7195,3.7475,3.7635,3.7649,3.7903,3.808,3.7929,3.7863,3.7876,3.805,3.8254,3.8388,3.8504,3.8651,3.8718,3.8718,3.8718,3.8718,3.8718,3.8718,3.8718,3.8718,3.8718,3.8718,3.8718,3.8718,3.8718,3.8718,3.8718,3.8718,3.8718,3.8718,3.8718,3.8704,3.8557,3.8557,3.8638,3.8557,3.8477,3.8678,3.8718,3.8718,3.8718,3.8958,3.9105,3.9065,3.9212,3.9439,3.9533,3.988,4.0214,4.1149,4.1461,4.1474,6.2141,6.1133,6.1076,6.0652,5.9961,5.9531,5.9355,5.9336,5.9238,5.9199,5.9199,5.9199,5.9199,5.9199,5.9199,5.9199,5.914,5.8848,5.8711,5.8652,5.8242,5.7871,5.7578,5.7441,5.7012,5.6387,5.6236,5.6015,5.5488,5.5058,5.4805,5.4629,5.4238,5.3972,5.3984,5.3574,5.3309,5.3049,5.2178,5.1565,5.1043,4.9576,4.8607,4.8301,4.6741,4.5102,4.3487,4.1792,4.0346,3.9083,3.8396,3.7881,3.7681,3.7205,3.6938,3.7033,3.684,3.6874,3.7155,3.7382,3.7502,3.7529,3.7769,3.7943,3.7983,3.821,3.837,3.8357,3.8183,3.8183,3.833,3.8441,3.8491,3.8691,3.8718,3.8718,3.8718,3.8718,3.8718,3.8718,3.8718,3.8718,3.8718,3.8718,3.8718,3.8718,3.8718,3.8718,3.8718,3.8718,3.8718,3.8718,3.8718,3.8678,3.8597,3.8437,3.8397,3.837,3.829,3.8357,3.8584,3.8624,3.8718,3.8718,3.8718,3.8744,3.8838,3.8798,3.8784,3.8851,3.9212,3.9893,4.0829,4.1088,4.1314,6.1394,6.0526,6.043,6.0449,6.0314,5.9961,5.9785,5.9765,5.9394,5.9219,5.9258,5.9238,5.9199,5.9219,5.9219,5.9199,5.918,5.914,5.9121,5.9082,5.8691,5.8496,5.8382,5.8047,5.7598,5.7129,5.7031,5.666,5.5918,5.5488,5.5078,5.4707,5.4316,5.4011,5.4043,5.3711,5.3126,5.2647,5.1695,5.0666,4.9533,4.7946,4.7392,4.768,4.5997,4.4178,4.252,4.0538,3.9226,3.8924,3.7705,3.7236,3.7647,3.7247,3.7076,3.7317,3.7371,3.7462,3.7689,3.7769,3.7796,3.7836,3.8076,3.8294,3.8263,3.8491,3.8651,3.8678,3.8624,3.8638,3.8651,3.8651,3.8664,3.8718,3.8731,3.8744,3.8744,3.8798,3.8731,3.8758,3.8771,3.8758,3.8731,3.8718,3.8718,3.8718,3.8718,3.8744,3.8771,3.8744,3.8758,3.8758,3.8718,3.8624,3.8357,3.8348,3.8157,3.8183,3.8317,3.829,3.837,3.8477,3.8624,3.8718,3.8718,3.8718,3.8718,3.8718,3.8731,3.8851,3.9132,3.9786,4.0374,4.0962,4.1176,6.1835,6.123,6.0957,6.0859,6.0801,6.039,6.0215,6.0195,6.0058,5.998,5.998,5.998,5.9844,5.959,5.959,5.9433,5.9199,5.9199,5.9199,5.916,5.9023,5.8808,5.848,5.8359,5.8066,5.7637,5.7344,5.6914,5.6367,5.5918,5.5644,5.5449,5.5058,5.4844,5.4772,5.4274,5.3782,5.312,5.1824,5.0524,4.94,4.7697,4.6599,4.6196,4.4504,4.2781,4.1127,3.9987,3.8884,3.7668,3.7261,3.7183,3.7246,3.7413,3.7542,3.7635,3.7662,3.7702,3.7823,3.7996,3.8103,3.8116,3.8384,3.8544,3.8571,3.8664,3.8718,3.8718,3.8718,3.8718,3.8718,3.8718,3.8718,3.8744,3.8833,3.8926,3.898,3.9159,3.9279,3.9265,3.9132,3.8873,3.8771,3.8718,3.8718,3.8744,3.8878,3.89,3.8926,3.894,3.8913,3.89,3.878,3.8611,3.8361,3.8321,3.8307,3.833,3.8424,3.8437,3.8491,3.8571,3.8718,3.8718,3.8718,3.8718,3.8718,3.8718,3.8718,3.8771,3.9078,3.9359,3.98,4.0414,4.0655,6.2187,6.1875,6.1465,6.1289,6.123,6.082,6.0644,6.0625,6.045,6.0392,6.0392,6.0392,6.0216,6.0039,5.9963,5.9785,5.9394,5.9258,5.9199,5.9199,5.9199,5.9023,5.8789,5.875,5.8515,5.8047,5.748,5.7051,5.6758,5.6211,5.5937,5.5898,5.5298,5.4979,5.4894,5.4245,5.3507,5.2589,5.1027,4.9581,4.8262,4.6282,4.4836,4.3933,4.255,4.1498,4.065,3.9643,3.8667,3.762,3.74,3.7314,3.7235,3.7689,3.7956,3.7956,3.7956,3.801,3.8116,3.8303,3.841,3.841,3.8584,3.8718,3.8718,3.8718,3.8718,3.8718,3.8718,3.8686,3.878,3.8806,3.8806,3.882,3.898,3.914,3.9292,3.9479,3.9519,3.9399,3.918,3.8966,3.8798,3.8731,3.8718,3.8718,3.8905,3.894,3.8966,3.8953,3.8953,3.894,3.878,3.8664,3.8504,3.8464,3.8223,3.8263,3.841,3.8477,3.8557,3.8651,3.8718,3.8718,3.8718,3.8718,3.8718,3.8718,3.8718,3.8718,3.8825,3.9078,3.9493,3.9893,4.0147,6.2442,6.2285,6.1894,6.1699,6.1601,6.125,6.1094,6.1035,6.0626,6.0529,6.0568,6.047,6.047,6.0392,6.0449,6.0215,5.9805,5.9433,5.9219,5.9199,5.9199,5.918,5.914,5.9121,5.8887,5.8382,5.7637,5.7226,5.7109,5.63,5.589,5.574,5.4888,5.4417,5.4408,5.3197,5.2097,5.0867,4.9251,4.7554,4.5788,4.3724,4.2349,4.1579,4.0473,4.029,4.113,3.9392,3.8429,3.8438,3.7825,3.7571,3.7809,3.817,3.8361,3.8401,3.8361,3.8437,3.8678,3.8744,3.8771,3.8771,3.8758,3.8713,3.8726,3.8744,3.8718,3.8718,3.8731,3.8825,3.9006,3.906,3.9073,3.91,3.9167,3.9313,3.9546,3.9613,3.9506,3.926,3.918,3.8993,3.8766,3.8673,3.8718,3.8731,3.8784,3.8838,3.8806,3.8806,3.8784,3.8771,3.87,3.8678,3.8691,3.8678,3.833,3.8103,3.829,3.841,3.8504,3.8597,3.8704,3.8718,3.8718,3.8718,3.8718,3.8718,3.8718,3.8731,3.8798,3.8865,3.9199,3.9573,3.9827,6.291,6.2442,6.2226,6.1973,6.1719,6.1562,6.1523,6.1504,6.1367,6.1308,6.1308,6.1308,6.1172,6.0937,6.0879,6.0644,6.0234,5.9805,5.9473,5.9238,5.9199,5.9199,5.9199,5.9199,5.8965,5.8496,5.7949,5.75,5.706,5.6231,5.5746,5.5547,5.4648,5.391,5.3388,5.1947,5.0585,4.9362,4.7651,4.5941,4.4414,4.3027,4.1911,4.1057,4.0091,3.9802,4.0061,3.9148,3.842,3.8176,3.7842,3.7903,3.841,3.8918,3.9172,3.9185,3.9185,3.9212,3.9292,3.9319,3.9306,3.9292,3.9087,3.898,3.8926,3.8851,3.8758,3.8731,3.8731,3.8838,3.902,3.91,3.9207,3.9452,3.958,3.97,3.9893,4.0054,4.0054,3.98,3.9586,3.9287,3.9006,3.882,3.8718,3.8744,3.8865,3.8913,3.894,3.89,3.8966,3.8953,3.8833,3.8718,3.8718,3.8718,3.8544,3.8344,3.8424,3.8477,3.8544,3.8584,3.8678,3.8718,3.8718,3.8718,3.8718,3.8718,3.8718,3.8718,3.8744,3.8865,3.8998,3.9225,3.9493,6.3359,6.2911,6.2676,6.2461,6.2187,6.2031,6.1953,6.1933,6.1777,6.1719,6.1738,6.1894,6.1719,6.1426,6.1484,6.1211,6.0703,6.039,6.0058,5.9629,5.9277,5.9199,5.9199,5.9199,5.9062,5.875,5.832,5.7859,5.7313,5.6363,5.5644,5.5026,5.3895,5.2745,5.194,5.029,4.889,4.7608,4.5924,4.4419,4.3222,4.1989,4.1088,4.0374,3.965,3.9342,3.9257,3.886,3.8611,3.8374,3.8353,3.8678,3.9052,3.9386,3.9599,3.9599,3.9599,3.9586,3.9599,3.9573,3.9599,3.9559,3.9426,3.926,3.9292,3.9118,3.9052,3.9052,3.9065,3.9159,3.9367,3.942,3.9613,3.9893,3.996,4.0034,4.0187,4.0361,4.0321,4.004,3.976,3.9433,3.914,3.886,3.8731,3.8758,3.882,3.894,3.894,3.8913,3.894,3.8913,3.878,3.8731,3.8718,3.8718,3.8718,3.8664,3.8651,3.8651,3.8664,3.8664,3.8718,3.8718,3.8718,3.8718,3.8718,3.8718,3.8718,3.8718,3.8718,3.8784,3.8891,3.8985,3.9159,6.3711,6.3633,6.3242,6.2968,6.293,6.2558,6.2402,6.2344,6.2031,6.1875,6.1933,6.2265,6.2207,6.1953,6.2207,6.1933,6.1269,6.1094,6.082,6.0312,5.9746,5.9394,5.9394,5.9336,5.9202,5.9048,5.8619,5.8034,5.7179,5.6114,5.5356,5.4043,5.2475,5.1128,4.9907,4.8422,4.6984,4.5658,4.4073,4.2934,4.2119,4.0655,3.9675,3.9546,3.9052,3.8776,3.8762,3.8802,3.8878,3.9073,3.9332,3.9506,3.9599,3.964,3.9706,3.9733,3.9666,3.9706,3.968,3.9746,3.9733,3.9733,3.968,3.9626,3.9613,3.9533,3.9479,3.9493,3.9519,3.9653,3.9893,3.996,4.0107,4.0361,4.0227,4.0227,4.0428,4.0468,4.0361,4.0107,3.98,3.9506,3.918,3.8886,3.8758,3.8718,3.87,3.8771,3.8771,3.8798,3.8744,3.8731,3.8744,3.8731,3.8718,3.8718,3.8718,3.8718,3.8718,3.8718,3.8718,3.8718,3.8718,3.8718,3.8718,3.8718,3.8718,3.8718,3.8718,3.8718,3.8718,3.8718,3.8771,3.8865,3.8833,6.3965,6.3691,6.3555,6.332,6.3047,6.2831,6.2851,6.2832,6.2734,6.2558,6.2715,6.2793,6.2714,6.2655,6.2773,6.2539,6.2012,6.166,6.1328,6.0879,6.039,6.0117,6.0019,5.9765,5.9403,5.8911,5.8181,5.7295,5.6234,5.4837,5.3668,5.2829,5.0731,4.9169,4.7997,4.6425,4.4814,4.3492,4.2492,4.1475,4.0483,3.9977,3.9399,3.895,3.8776,3.8718,3.8771,3.9145,3.9265,3.9127,3.9593,3.9907,3.9933,4.0094,4.0187,4.0187,4.0214,4.0227,4.0227,4.0214,4.0241,4.0227,4.0027,3.986,3.9847,3.972,3.9626,3.9599,3.9599,3.9733,3.9974,4.0067,4.0201,4.0401,4.0441,4.0414,4.0454,4.0481,4.0441,4.0334,3.992,3.9626,3.9426,3.9033,3.8784,3.8758,3.8744,3.8718,3.8731,3.8718,3.8718,3.8718,3.8731,3.8718,3.8718,3.8718,3.8718,3.8718,3.8718,3.8718,3.8718,3.8718,3.8718,3.8718,3.8718,3.8718,3.8718,3.8718,3.8718,3.8718,3.8718,3.8718,3.8718,3.8771,3.8784,6.416,6.3965,6.3945,6.3808,6.3494,6.3379,6.3301,6.3262,6.3046,6.2968,6.3007,6.3242,6.3203,6.2987,6.2968,6.2773,6.2402,6.1914,6.1582,6.1367,6.1094,6.0724,6.0372,5.9773,5.9125,5.8481,5.7531,5.6272,5.4956,5.3663,5.2439,5.0863,4.9179,4.7675,4.629,4.5042,4.3652,4.2367,4.1503,4.0612,3.9675,3.9342,3.9066,3.8718,3.8718,3.8758,3.8886,3.9466,3.9693,3.9593,3.99,4.0214,4.0227,4.0374,4.0481,4.0481,4.0481,4.0468,4.0481,4.0481,4.0481,4.0454,4.0294,4.0241,4.0201,4.0054,3.9974,3.9987,3.9974,4.0107,4.0348,4.0495,4.0655,4.0829,4.0842,4.0748,4.0521,4.0481,4.0481,4.0374,4.0094,3.9786,3.9773,3.9359,3.9078,3.8958,3.8873,3.8793,3.87,3.8731,3.8718,3.8718,3.8731,3.8731,3.8731,3.8731,3.8718,3.8718,3.8718,3.8718,3.8718,3.8718,3.8718,3.8718,3.8718,3.8718,3.8718,3.8718,3.8718,3.8718,3.8718,3.8718,3.8718,3.8718,3.8718,6.4316,6.4316,6.4316,6.4316,6.4219,6.3926,6.375,6.3672,6.3398,6.3182,6.326,6.3594,6.3574,6.3104,6.3223,6.289,6.2441,6.2051,6.168,6.1446,6.1155,6.0709,6.0014,5.9321,5.8539,5.7721,5.6719,5.5094,5.3517,5.2615,5.1086,4.9223,4.7861,4.6506,4.5193,4.4145,4.3108,4.202,4.1094,4.0359,3.9662,3.921,3.899,3.8931,3.8918,3.9052,3.9273,3.9673,3.994,4.0067,4.0334,4.0428,4.0454,4.0468,4.0481,4.0481,4.0481,4.0481,4.0481,4.0481,4.0481,4.0468,4.0508,4.0521,4.0521,4.0521,4.0561,4.0575,4.0561,4.0682,4.0882,4.1176,4.1194,4.1269,4.1234,4.1109,4.0722,4.0548,4.0508,4.0454,4.0214,4.0054,3.9947,3.97,3.9452,3.9212,3.9087,3.894,3.8846,3.8833,3.8811,3.8718,3.8731,3.8744,3.87,3.87,3.8731,3.8718,3.8718,3.8718,3.8718,3.8718,3.8718,3.8718,3.8718,3.8718,3.8718,3.8718,3.8718,3.8718,3.8718,3.8718,3.8718,3.8718,3.8718,6.4316,6.4316,6.4316,6.4316,6.4297,6.4219,6.416,6.416,6.4062,6.3965,6.4043,6.4121,6.4082,6.3904,6.3574,6.3301,6.2812,6.2324,6.1816,6.0901,5.9902,5.9492,5.9097,5.8628,5.8019,5.6833,5.5135,5.3336,5.1701,5.0438,4.9093,4.7665,4.6539,4.5455,4.4712,4.368,4.2607,4.1643,4.0871,4.0229,3.9758,3.9463,3.9359,3.9359,3.9386,3.9546,3.9727,3.9974,4.0134,4.0334,4.0441,4.0508,4.0481,4.0495,4.0508,4.0521,4.0508,4.0508,4.0495,4.0535,4.0495,4.0548,4.0708,4.0815,4.0829,4.1016,4.1109,4.1149,4.1101,4.1149,4.1256,4.1523,4.1577,4.151,4.1563,4.155,4.1216,4.0935,4.0722,4.0495,4.0241,4.004,4.0014,3.958,3.9393,3.9439,3.9346,3.91,3.9046,3.9006,3.8998,3.8918,3.8918,3.8958,3.8998,3.89,3.8793,3.8784,3.8758,3.8718,3.8718,3.8718,3.8718,3.8718,3.8718,3.8718,3.8718,3.8718,3.8718,3.8718,3.8718,3.8718,3.8718,3.8718,3.8718,6.4316,6.4316,6.4316,6.4316,6.4316,6.4316,6.4316,6.4316,6.4316,6.4316,6.4258,6.4121,6.4023,6.3945,6.3379,6.3008,6.2771,6.1927,6.1007,6.005,5.9011,5.811,5.7406,5.6915,5.6163,5.519,5.3398,5.1445,4.9796,4.8639,4.7578,4.6409,4.5592,4.4951,4.4164,4.329,4.2377,4.1378,4.0766,4.0179,3.9718,3.9599,3.9599,3.964,3.972,3.9834,3.994,4.0174,4.0308,4.0468,4.0601,4.0615,4.0535,4.0601,4.0668,4.0695,4.0829,4.0869,4.0882,4.0882,4.0895,4.0869,4.1029,4.1082,4.1122,4.1208,4.1261,4.1274,4.1274,4.139,4.155,4.1817,4.1857,4.1831,4.1884,4.1857,4.1563,4.1176,4.0869,4.0655,4.0441,4.0308,4.0094,3.9773,3.9647,3.9813,3.976,3.9527,3.9386,3.9359,3.9319,3.9265,3.9212,3.9212,3.9265,3.9127,3.894,3.8846,3.8766,3.8713,3.8718,3.8718,3.8718,3.8718,3.8718,3.8718,3.8718,3.8718,3.8718,3.8718,3.8718,3.8718,3.8731,3.8771,3.8758,6.4375,6.4316,6.4394,6.4375,6.4316,6.4316,6.4316,6.4316,6.4316,6.4258,6.416,6.3828,6.3711,6.3437,6.2772,6.2516,6.2039,6.0994,5.9757,5.8805,5.7362,5.6261,5.5298,5.4265,5.34,5.2981,5.1535,4.969,4.8252,4.732,4.6626,4.5533,4.5339,4.4783,4.378,4.3099,4.2488,4.1486,4.0975,4.0506,4.006,4.0,3.9987,3.996,4.0094,4.0214,4.0294,4.0428,4.0575,4.0615,4.0842,4.0815,4.0748,4.0815,4.0976,4.0976,4.1101,4.1168,4.1168,4.1208,4.1221,4.1274,4.1328,4.1341,4.1416,4.1434,4.1501,4.1474,4.1501,4.1644,4.1844,4.2031,4.2178,4.2178,4.2191,4.2098,4.1831,4.1363,4.1109,4.0855,4.0682,4.0548,4.0414,4.0201,4.0187,4.0087,4.002,3.9914,3.9773,3.964,3.9599,3.9493,3.9412,3.9386,3.9426,3.9559,3.93,3.9113,3.8966,3.8972,3.8905,3.8998,3.9025,3.8758,3.8718,3.8744,3.8744,3.8718,3.8718,3.8673,3.874,3.882,3.882,3.878,3.8793,6.4629,6.4336,6.4687,6.4648,6.4336,6.4316,6.4316,6.4316,6.4316,6.4121,6.3828,6.3691,6.3457,6.3004,6.2371,6.1576,6.0537,5.941,5.8207,5.6831,5.5166,5.3704,5.272,5.1655,5.05,4.975,4.9262,4.8497,4.7246,4.6481,4.6027,4.5403,4.5252,4.4765,4.4066,4.3516,4.269,4.1854,4.1372,4.0978,4.0869,4.0869,4.0788,4.0628,4.0682,4.0708,4.0735,4.0802,4.0949,4.1163,4.1181,4.1168,4.1203,4.1181,4.1221,4.1234,4.1314,4.1394,4.1381,4.1328,4.1288,4.1328,4.1577,4.1697,4.1764,4.1897,4.1951,4.1991,4.2004,4.2071,4.2124,4.2191,4.2205,4.2218,4.2218,4.2191,4.2071,4.1817,4.1416,4.1096,4.0922,4.0748,4.0615,4.0481,4.0374,4.0281,4.0201,4.0147,4.0027,3.992,3.9867,3.9733,3.9573,3.9559,3.9573,3.976,3.9773,3.9559,3.9426,3.9372,3.9359,3.9439,3.9359,3.9078,3.8878,3.8851,3.8825,3.8811,3.8838,3.8931,3.894,3.902,3.9046,3.9132,3.9127,6.4492,6.4336,6.4531,6.4512,6.4336,6.4316,6.4316,6.4316,6.4316,6.4199,6.3926,6.3574,6.3139,6.2624,6.1622,6.036,5.8942,5.8069,5.6614,5.4855,5.3166,5.1703,5.0775,4.9648,4.874,4.8095,4.7942,4.7635,4.6496,4.5979,4.5624,4.5289,4.4983,4.4432,4.3804,4.3086,4.2463,4.1845,4.1474,4.1288,4.1288,4.1288,4.1256,4.1189,4.1136,4.1136,4.1136,4.1136,4.1189,4.1274,4.1483,4.155,4.1617,4.1697,4.1661,4.163,4.1697,4.1715,4.1728,4.179,4.1817,4.1817,4.1937,4.2004,4.2031,4.2124,4.2218,4.2218,4.2218,4.2218,4.2205,4.2218,4.2218,4.2218,4.2218,4.2218,4.2191,4.2084,4.1764,4.1376,4.1243,4.1056,4.0775,4.0642,4.0521,4.0428,4.0348,4.0321,4.0294,4.0267,4.0241,4.012,4.0,3.996,3.992,3.996,4.008,3.9907,3.976,3.972,3.968,3.9693,3.9573,3.9346,3.9199,3.9172,3.9185,3.9265,3.9199,3.9145,3.9279,3.9386,3.9412,3.9452,3.9506,6.459,6.4453,6.4531,6.4473,6.4316,6.4316,6.4316,6.4316,6.4316,6.4238,6.4082,6.3335,6.2721,6.2,6.0548,5.8875,5.7228,5.6509,5.4865,5.2994,5.1671,5.0357,4.9377,4.8633,4.8045,4.7195,4.7011,4.6706,4.6184,4.583,4.5509,4.5198,4.4709,4.405,4.335,4.291,4.2069,4.1696,4.151,4.1523,4.1461,4.1461,4.1483,4.143,4.1368,4.143,4.143,4.143,4.155,4.1697,4.1857,4.2004,4.2071,4.2205,4.2191,4.2044,4.2151,4.2191,4.2205,4.2178,4.2124,4.2124,4.2191,4.2205,4.2205,4.2191,4.2218,4.2218,4.2218,4.2218,4.2218,4.2218,4.2218,4.2218,4.2218,4.2218,4.2218,4.2165,4.2098,4.1817,4.1568,4.1314,4.0973,4.0976,4.0882,4.0855,4.0788,4.0775,4.0748,4.0735,4.0682,4.0575,4.0495,4.0441,4.0348,4.0174,4.0241,4.0174,4.0054,4.0,3.992,3.9867,3.9773,3.97,3.9786,3.9773,3.9746,3.9613,3.9466,3.9439,3.9599,3.968,3.9706,3.9786,3.9867,6.5547,6.4841,6.5254,6.5019,6.4355,6.4316,6.4316,6.4336,6.4355,6.4082,6.3844,6.299,6.2156,6.0796,5.8909,5.7184,5.5687,5.4517,5.3059,5.113,5.0121,4.9242,4.8283,4.7364,4.7264,4.6725,4.6545,4.6204,4.6016,4.6024,4.5783,4.5255,4.49,4.4472,4.3296,4.2906,4.2742,4.2161,4.2084,4.2071,4.2071,4.2058,4.1924,4.179,4.1737,4.1764,4.1777,4.1804,4.1964,4.2418,4.2499,4.2672,4.2846,4.2699,4.2632,4.2499,4.2378,4.2218,4.2218,4.2218,4.2218,4.2218,4.2218,4.2218,4.2218,4.2218,4.2218,4.2218,4.2218,4.2218,4.2218,4.2218,4.2218,4.2218,4.2218,4.2218,4.2218,4.2155,4.2088,4.1885,4.161,4.1434,4.1181,4.1226,4.1208,4.1194,4.1168,4.1203,4.1149,4.1082,4.1029,4.0909,4.0842,4.0802,4.0775,4.0601,4.0535,4.0495,4.0428,4.0361,4.0287,4.0274,4.0187,4.0187,4.0187,3.9906,3.9514,3.9415,3.9534,3.9733,3.9893,3.996,3.9987,4.008,4.0174,6.5937,6.4899,6.5137,6.4883,6.4336,6.4316,6.4453,6.4629,6.4668,6.4462,6.4017,6.2963,6.1194,5.8971,5.7256,5.5669,5.4,5.2831,5.1349,4.9949,4.9064,4.8467,4.7716,4.7202,4.6957,4.6767,4.6592,4.6449,4.6149,4.5731,4.5442,4.5143,4.4438,4.3817,4.3157,4.28,4.2521,4.2268,4.2205,4.2218,4.2218,4.2205,4.2151,4.2031,4.2018,4.2098,4.2218,4.2348,4.2472,4.2846,4.2913,4.2953,4.3046,4.2953,4.291,4.2709,4.2552,4.2405,4.2258,4.2231,4.2218,4.2218,4.2218,4.2218,4.2218,4.2231,4.2231,4.2218,4.2218,4.2231,4.2231,4.2218,4.2218,4.2218,4.2091,4.2028,4.2028,4.2155,4.2078,4.1902,4.1585,4.1109,4.0787,4.0973,4.1078,4.1243,4.1279,4.1239,4.1261,4.1194,4.1154,4.1176,4.1074,4.1061,4.1048,4.1029,4.0941,4.0901,4.0914,4.0861,4.0786,4.0711,4.0225,3.9775,3.9426,3.9244,3.9023,3.9539,3.9913,4.0087,4.0201,4.0241,4.0267,4.0281,4.0348,6.6172,6.5117,6.5098,6.4805,6.4255,6.4134,6.4245,6.4595,6.4165,6.4064,6.3558,6.1993,5.9486,5.7042,5.555,5.3842,5.2105,5.1177,4.9979,4.9025,4.8485,4.8204,4.7735,4.7411,4.7172,4.6909,4.685,4.6626,4.6102,4.5638,4.5197,4.502,4.4213,4.3489,4.3094,4.279,4.2485,4.2365,4.2365,4.2312,4.2231,4.2218,4.2218,4.2205,4.2245,4.2352,4.2605,4.2696,4.2779,4.314,4.3207,4.3247,4.3354,4.3273,4.314,4.2966,4.2859,4.2699,4.2499,4.2365,4.2258,4.2218,4.2231,4.2258,4.2352,4.2325,4.2405,4.2499,4.2499,4.2445,4.2352,4.2338,4.2108,4.2018,4.1838,4.1711,4.1521,4.1128,4.0747,4.0251,3.9958,4.0021,3.9997,4.0441,4.0778,4.1157,4.1314,4.1301,4.1288,4.1136,4.1234,4.1234,4.1257,4.1217,4.1172,4.1186,4.1212,4.1079,4.1017,4.0902,4.0624,3.9975,3.9303,3.8928,3.8396,3.8137,3.7705,3.9041,4.0318,4.0178,4.0138,4.0447,4.0548,4.0535,4.0548,6.6348,6.5547,6.5527,6.4977,6.4195,6.3627,6.3573,6.371,6.2658,6.2261,6.1912,5.9676,5.7538,5.5718,5.3666,5.1981,5.042,4.9664,4.9021,4.8503,4.8178,4.817,4.7909,4.7762,4.7631,4.7464,4.7132,4.6667,4.6177,4.5453,4.5021,4.4676,4.4036,4.3609,4.3288,4.2937,4.2779,4.2659,4.2592,4.2445,4.2312,4.2231,4.2218,4.2231,4.2245,4.2365,4.2709,4.279,4.298,4.3474,4.3501,4.3594,4.3701,4.3594,4.3447,4.3314,4.3153,4.302,4.2859,4.2565,4.2285,4.2231,4.2258,4.2352,4.2445,4.2579,4.2726,4.2859,4.2819,4.2742,4.2635,4.2542,4.2092,4.1362,4.0927,4.034,3.9932,3.941,3.8963,3.8528,3.8269,3.8225,3.814,3.8325,3.965,4.0047,4.0337,4.0311,4.0867,4.0917,4.118,4.1266,4.1339,4.1282,4.1057,4.0884,4.0453,4.0229,4.0166,4.0089,3.9999,3.9223,3.78,3.7087,3.6464,3.6398,3.6484,3.7305,3.8249,3.9438,4.001,4.0067,4.0483,4.0613,4.0727,6.5536,6.4578,6.4188,6.3842,6.3627,6.2508,6.2059,6.2018,6.1322,6.037,5.9324,5.7519,5.5723,5.3878,5.2329,5.0875,4.9855,4.8946,4.8526,4.8302,4.8157,4.8172,4.8099,4.807,4.7909,4.7619,4.7122,4.6677,4.6135,4.5305,4.4881,4.4489,4.3969,4.3474,4.3151,4.3153,4.3046,4.2926,4.283,4.2592,4.2499,4.2298,4.2218,4.2218,4.2445,4.2632,4.2913,4.3113,4.342,4.3688,4.3781,4.3888,4.3968,4.3848,4.3714,4.3581,4.342,4.3314,4.3153,4.2873,4.2699,4.2512,4.2499,4.2485,4.2512,4.2565,4.2736,4.2833,4.2982,4.2879,4.2335,4.2153,4.1779,4.0683,3.9732,3.8977,3.7968,3.7124,3.6563,3.5748,3.5991,3.6223,3.6076,3.5982,3.7559,3.8925,3.9163,3.9422,3.9729,3.992,3.9882,3.9882,3.9832,3.9768,3.9503,3.9465,3.9389,3.925,3.9099,3.8746,3.8305,3.6894,3.5593,3.4959,3.4036,3.341,3.3632,3.4876,3.6198,3.7629,3.8697,3.9431,3.9924,4.0607,4.0919,6.459,6.334,6.2434,6.2209,6.2221,6.0952,6.0262,5.9955,5.9193,5.8033,5.6394,5.5226,5.3876,5.2227,5.0921,4.9916,4.9174,4.86,4.839,4.8354,4.8333,4.8362,4.8421,4.8355,4.8217,4.7665,4.7175,4.6685,4.5732,4.5042,4.4692,4.4247,4.3748,4.3485,4.3407,4.3367,4.3327,4.318,4.306,4.291,4.2779,4.2619,4.2512,4.2539,4.2699,4.2926,4.3167,4.338,4.3621,4.3848,4.3982,4.3995,4.4008,4.3982,4.3875,4.3754,4.3648,4.3554,4.3407,4.314,4.302,4.2819,4.2736,4.2592,4.2565,4.2672,4.2795,4.2633,4.2831,4.2599,4.1701,4.1206,4.005,3.8613,3.7593,3.6642,3.4999,3.3936,3.3503,3.2972,3.3217,3.3201,3.3384,3.3345,3.4749,3.6512,3.7647,3.7727,3.7736,3.7852,3.7788,3.7752,3.7688,3.7636,3.752,3.7425,3.7353,3.7441,3.7186,3.6593,3.5843,3.4354,3.3027,3.2062,3.1109,3.0164,3.0322,3.1119,3.3465,3.5966,3.7171,3.8436,3.9661,4.038,4.0964,6.3496,6.1912,6.0546,6.0059,5.9901,5.8888,5.8164,5.7595,5.6202,5.4982,5.3887,5.2656,5.1723,5.0772,4.9765,4.904,4.8585,4.8361,4.8398,4.8589,4.8626,4.8801,4.8918,4.8867,4.8465,4.78,4.7233,4.6458,4.5149,4.4873,4.452,4.4205,4.3914,4.3848,4.3955,4.3968,4.3808,4.3554,4.3487,4.3287,4.3113,4.3006,4.2939,4.2939,4.3033,4.322,4.3394,4.3554,4.3768,4.3955,4.4008,4.4008,4.4008,4.4008,4.3968,4.3955,4.3955,4.3955,4.3928,4.342,4.3193,4.3086,4.2953,4.2846,4.2993,4.3035,4.2765,4.2391,4.239,4.1731,4.0811,3.9555,3.7973,3.622,3.5153,3.3846,3.2139,3.089,3.04,3.0221,2.9806,2.9567,3.0045,3.0713,3.2037,3.3651,3.5523,3.594,3.5383,3.494,3.4509,3.4358,3.4228,3.4228,3.4164,3.5131,3.5367,3.5453,3.4809,3.3712,3.2707,3.1303,3.0122,2.9106,2.8247,2.7475,2.7168,2.7131,2.9887,3.272,3.5778,3.748,3.8874,4.0105,4.0758,6.0646,5.8755,5.7437,5.6171,5.5184,5.55,5.5331,5.4591,5.3184,5.2139,5.1744,5.0795,5.0206,4.9585,4.904,4.8432,4.8331,4.845,4.8677,4.8735,4.886,4.8991,4.9057,4.902,4.8514,4.774,4.7164,4.634,4.5021,4.4654,4.4324,4.4008,4.4008,4.4008,4.3995,4.4008,4.3915,4.3808,4.3648,4.3461,4.3367,4.322,4.3127,4.314,4.33,4.3447,4.3567,4.3701,4.3875,4.3995,4.4008,4.4008,4.4008,4.4008,4.4008,4.4008,4.4008,4.4008,4.3995,4.3754,4.3607,4.3434,4.3273,4.3153,4.3127,4.2846,4.2443,4.1656,4.1027,3.9925,3.8171,3.7147,3.5532,3.3154,3.1797,3.0541,2.9156,2.8094,2.7424,2.7475,2.7249,2.7393,2.7808,2.7851,2.8981,2.9259,3.0724,3.1297,3.0944,3.0558,3.0145,2.9993,2.9936,3.0197,3.0587,3.1532,3.1683,3.1347,3.058,2.961,2.861,2.8259,2.7368,2.6496,2.5662,2.4812,2.4988,2.5405,2.6857,2.9284,3.2404,3.5608,3.7513,3.9059,4.0529,5.8309,5.6177,5.4787,5.3406,5.2208,5.2928,5.2784,5.1932,5.0795,5.0156,4.9986,4.9469,4.9094,4.8736,4.8432,4.834,4.8398,4.8589,4.8918,4.8948,4.9182,4.9372,4.9378,4.9068,4.8375,4.7543,4.6644,4.5804,4.4601,4.4193,4.4008,4.4008,4.4008,4.4008,4.4008,4.4008,4.3995,4.3928,4.3795,4.3714,4.3648,4.3554,4.3447,4.3487,4.3581,4.3701,4.3754,4.3875,4.4008,4.4008,4.4008,4.4008,4.4008,4.4008,4.4008,4.4008,4.4008,4.4008,4.3995,4.3982,4.3835,4.3714,4.3621,4.3317,4.2911,4.2378,4.1304,4.0378,3.9236,3.7294,3.5448,3.4448,3.2477,3.0141,2.8872,2.7681,2.6555,2.5487,2.5269,2.5248,2.5355,2.5519,2.5644,2.5438,2.5794,2.5715,2.5765,2.6383,2.7123,2.7138,2.7088,2.711,2.7174,2.7688,2.7837,2.8005,2.793,2.7283,2.6852,2.6563,2.6182,2.6039,2.4953,2.4078,2.3665,2.3376,2.3309,2.3924,2.5187,2.6837,2.9196,3.2385,3.5597,3.776,3.9447,5.6618,5.4186,5.272,5.1839,5.1277,5.1197,5.0608,4.9694,4.9345,4.9014,4.8727,4.8499,4.8361,4.8346,4.8201,4.8377,4.8655,4.8728,4.9065,4.9416,4.9562,4.9714,4.9576,4.92,4.8207,4.7187,4.6309,4.5501,4.4207,4.4088,4.4088,4.4062,4.4102,4.4102,4.4088,4.4167,4.4088,4.4047,4.3955,4.3901,4.3875,4.3915,4.3848,4.3861,4.3901,4.3955,4.3995,4.4022,4.4035,4.4035,4.4022,4.4008,4.4008,4.4022,4.4022,4.4035,4.4048,4.4062,4.4008,4.4008,4.3863,4.3691,4.3452,4.3071,4.2377,4.155,4.006,3.8344,3.6825,3.4562,3.2633,3.0877,2.9201,2.761,2.63,2.5118,2.4009,2.348,2.348,2.3494,2.3494,2.3649,2.3804,2.3696,2.3964,2.3728,2.3992,2.4389,2.5037,2.5409,2.5353,2.5357,2.5468,2.5717,2.5717,2.546,2.531,2.5055,2.4975,2.4715,2.4322,2.406,2.3501,2.2899,2.2268,2.2081,2.2458,2.2805,2.3355,2.5167,2.7124,2.9693,3.3112,3.5976,3.796,5.3851,5.1374,5.0488,4.9713,4.9131,4.9066,4.8866,4.8615,4.8526,4.8426,4.8354,4.8281,4.8325,4.8559,4.8589,4.8699,4.8962,4.9226,4.9401,4.9635,4.9825,4.9649,4.9383,4.8962,4.7849,4.6815,4.5963,4.5318,4.4341,4.4182,4.4316,4.4316,4.4275,4.4289,4.4355,4.4564,4.4365,4.4206,4.414,4.4074,4.4074,4.4008,4.4008,4.4008,4.4008,4.4075,4.4182,4.4075,4.4088,4.4235,4.4088,4.4008,4.4008,4.4182,4.4249,4.4316,4.4302,4.4249,4.4062,4.4008,4.3744,4.3124,4.261,4.2412,4.166,4.0244,3.8383,3.6389,3.4146,3.1915,2.9924,2.8132,2.668,2.5409,2.4421,2.3804,2.2847,2.2709,2.2716,2.2709,2.2716,2.2723,2.2806,2.2813,2.302,2.2544,2.2517,2.2936,2.3285,2.3723,2.393,2.3939,2.3916,2.4142,2.3541,2.322,2.3153,2.3011,2.321,2.3307,2.3096,2.2811,2.2349,2.2091,2.1895,2.1848,2.1977,2.2351,2.2844,2.3681,2.5511,2.7911,3.0447,3.3444,3.6101,5.208,4.9843,4.9066,4.8562,4.8237,4.8172,4.8172,4.8172,4.8172,4.8172,4.8172,4.8172,4.834,4.8471,4.8515,4.8669,4.9108,4.9255,4.9489,4.9869,4.9934,4.9586,4.9209,4.8555,4.7638,4.6535,4.5791,4.5266,4.4543,4.4476,4.4609,4.4596,4.4529,4.4449,4.4475,4.4684,4.4733,4.4522,4.439,4.4404,4.4338,4.4206,4.4008,4.4022,4.4022,4.4155,4.4249,4.4088,4.4142,4.4249,4.4048,4.4008,4.4048,4.4262,4.4249,4.4302,4.4356,4.3957,4.3665,4.3533,4.2991,4.2118,4.1111,4.0022,3.9204,3.7821,3.5982,3.4026,3.158,2.9339,2.742,2.5709,2.4485,2.3257,2.3007,2.282,2.2537,2.2337,2.2337,2.2337,2.233,2.233,2.2344,2.2344,2.2344,2.2344,2.2316,2.24,2.2579,2.275,2.2928,2.2907,2.2674,2.2523,2.2052,2.2025,2.2325,2.2489,2.2523,2.2537,2.2086,2.2065,2.2195,2.2018,2.1889,2.1896,2.2004,2.2256,2.2675,2.3429,2.3982,2.5639,2.8275,3.1427,3.3828,5.0877,4.9036,4.8417,4.8237,4.8172,4.8172,4.8172,4.8172,4.8172,4.8172,4.8172,4.8172,4.8266,4.8398,4.8427,4.864,4.9035,4.9269,4.9414,4.9977,4.9871,4.9412,4.8544,4.8108,4.7165,4.6335,4.5712,4.5185,4.4997,4.489,4.4903,4.489,4.4703,4.4636,4.4676,4.502,4.5228,4.5426,4.5319,4.5292,4.4971,4.4535,4.4101,4.4194,4.4168,4.4155,4.4129,4.4075,4.4035,4.4048,4.4008,4.4008,4.4155,4.4063,4.405,4.3851,4.3744,4.3227,4.2606,4.2251,4.1389,4.0313,3.9113,3.7216,3.5849,3.5314,3.3679,3.158,2.9227,2.7466,2.5632,2.4633,2.3544,2.2883,2.2654,2.2482,2.2406,2.2344,2.2344,2.2344,2.2344,2.2344,2.2344,2.2344,2.2344,2.2344,2.2283,2.2235,2.2201,2.2208,2.2208,2.2221,2.2242,2.2215,2.2235,2.2221,2.2269,2.2303,2.2289,2.2283,2.2221,2.2228,2.218,2.2099,2.1943,2.2079,2.2208,2.235,2.2542,2.2903,2.3432,2.3804,2.6039,2.9052,3.1172,4.9464,4.8108,4.8134,4.8172,4.8172,4.8172,4.8172,4.8172,4.8172,4.8172,4.8172,4.8187,4.8354,4.8501,4.8515,4.8713,4.9035,4.9093,4.9131,4.9109,4.9132,4.8637,4.7659,4.7304,4.6526,4.5806,4.5332,4.5197,4.5064,4.5104,4.5211,4.5211,4.505,4.501,4.4997,4.5399,4.5769,4.6207,4.6406,4.6211,4.5843,4.5506,4.5139,4.4994,4.4929,4.4636,4.4529,4.4409,4.4356,4.4316,4.4102,4.4142,4.4329,4.385,4.3583,4.3411,4.2464,4.1761,4.0932,4.0101,3.9034,3.7563,3.594,3.3851,3.2566,3.2383,3.1275,2.9097,2.722,2.5646,2.4316,2.3531,2.2922,2.2639,2.2364,2.235,2.2344,2.2344,2.2344,2.2344,2.2344,2.2344,2.2344,2.2344,2.2344,2.2289,2.2201,2.2133,2.2086,2.2072,2.2059,2.2099,2.2269,2.2296,2.2323,2.2344,2.2344,2.2344,2.2323,2.233,2.2344,2.2296,2.2242,2.2167,2.2099,2.2201,2.2296,2.2432,2.2617,2.2762,2.2985,2.3495,2.3931,2.634,2.8198,4.8519,4.7812,4.804,4.8172,4.8172,4.8172,4.8172,4.8172,4.8172,4.8172,4.8172,4.8187,4.834,4.8501,4.8501,4.8611,4.8838,4.8667,4.8676,4.8586,4.815,4.771,4.7113,4.6676,4.6158,4.552,4.5399,4.5264,4.5251,4.5384,4.5505,4.5465,4.5411,4.5318,4.5345,4.5725,4.6313,4.6927,4.7303,4.7225,4.6834,4.6274,4.5771,4.5586,4.5239,4.4984,4.4663,4.4489,4.4382,4.4063,4.3731,4.352,4.34,4.2785,4.2171,4.1599,4.0716,3.971,3.857,3.7406,3.6064,3.4448,3.3174,3.114,2.9159,2.8897,2.8283,2.6299,2.5792,2.4357,2.3785,2.2982,2.2782,2.2576,2.2398,2.2344,2.2344,2.2344,2.2344,2.2344,2.2344,2.2344,2.2344,2.2344,2.2337,2.2241,2.2208,2.2065,2.2011,2.195,2.1937,2.1977,2.214,2.2228,2.2215,2.2269,2.2344,2.2344,2.2344,2.2344,2.2337,2.2276,2.2215,2.2201,2.2201,2.2249,2.2364,2.2459,2.2534,2.2664,2.2902,2.3174,2.3621,2.3967,2.5332,4.7878,4.7733,4.804,4.8172,4.8172,4.8172,4.8172,4.8172,4.8172,4.8172,4.8172,4.8172,4.8172,4.8172,4.8172,4.8377,4.837,4.8098,4.8069,4.7726,4.7495,4.6932,4.6662,4.639,4.5887,4.5507,4.5318,4.5491,4.557,4.5623,4.5596,4.561,4.5545,4.5371,4.5562,4.5914,4.6479,4.738,4.7916,4.8127,4.7641,4.6958,4.6341,4.5871,4.5415,4.4904,4.465,4.4476,4.4356,4.3824,4.3242,4.2621,4.1784,4.0977,3.9925,3.9098,3.7734,3.6476,3.5289,3.4302,3.268,3.113,3.0051,2.8585,2.6672,2.5771,2.5134,2.4677,2.4159,2.377,2.3128,2.2821,2.2685,2.2506,2.2411,2.2344,2.2344,2.2344,2.2344,2.2344,2.2344,2.2344,2.2344,2.2344,2.233,2.2234,2.2208,2.2072,2.195,2.1882,2.1842,2.1889,2.1998,2.2059,2.2113,2.2235,2.2344,2.2344,2.2344,2.2344,2.233,2.2296,2.2289,2.231,2.2323,2.2316,2.235,2.2425,2.2493,2.254,2.2659,2.2805,2.2903,2.3112,2.3035,4.7241,4.7733,4.804,4.8157,4.8172,4.8172,4.8172,4.8172,4.8172,4.8172,4.8172,4.8172,4.8172,4.8172,4.8172,4.8064,4.7483,4.7313,4.665,4.613,4.6479,4.6158,4.586,4.5833,4.5507,4.5331,4.5344,4.5478,4.5637,4.5677,4.5677,4.5663,4.5663,4.5857,4.6458,4.6757,4.711,4.7976,4.8381,4.857,4.8406,4.7675,4.6942,4.6389,4.586,4.548,4.5184,4.4917,4.465,4.3983,4.2857,4.1626,4.0125,3.8558,3.7116,3.5771,3.4464,3.3021,3.1809,3.0713,2.9097,2.8115,2.7104,2.6203,2.491,2.4384,2.3873,2.3475,2.3145,2.3137,2.2801,2.2705,2.259,2.2439,2.2344,2.2344,2.2344,2.2344,2.2344,2.2344,2.2344,2.2344,2.2344,2.2344,2.2344,2.2227,2.2139,2.2079,2.2032,2.1903,2.1767,2.1842,2.1916,2.1991,2.2093,2.2242,2.2344,2.2344,2.2344,2.2344,2.2344,2.2344,2.2344,2.2344,2.2344,2.2337,2.2371,2.2391,2.2391,2.2418,2.2391,2.2391,2.2452,2.2542,2.2619]},{"header":{"parameterUnit":"m.s-1","parameterCategory":1,"la1":31.0,"la2":29.5877,"lo1":-88.7671,"lo2":-86.6584,"dy":0.0162,"dx":0.0185,"nx":115,"ny":88,"refTime":"2023-11-16T06:00:00:Z","depth":0,"parameterNumber":3,"parameterNumberName":"V-component_of_WINDS"},"data":[0.0,0.0,0.0,0.0,0.0,0.0,0.0,0.0,0.0,0.0,0.0,0.0,0.0,0.0,0.0,0.0,0.0,0.0,0.0,0.0,0.0,0.0,0.0,0.0,0.0,0.0,0.0,0.0,0.0,0.0,0.0,0.0,0.0,0.0,0.0,0.0,0.0,0.0,0.0,0.0,0.0,0.0,0.0,0.0,0.0,0.0,0.0,0.0,0.0,0.0,0.0,0.0,0.0,0.0,0.0,0.0,0.0,0.0,0.0,0.0,0.0,0.0,0.0,0.0,0.0,0.0,0.0,0.0,0.0,0.0,0.0,0.0,0.0,0.0,0.0,0.0,0.0,0.0,0.0,0.0,0.0,0.0,0.0,0.0,0.0,0.0,0.0,0.0,0.0,0.0,0.0,0.0,0.0,0.0,0.0,0.0,0.0,0.0,0.0,0.0,0.0,0.0,0.0,0.0,0.0,0.0,0.0,0.0,0.0,0.0,0.0,0.0,0.0,0.0,0.0,0.0,0.0,0.0,0.0,0.0,0.0,0.0,0.0,0.0,0.0,0.0,0.0,0.0,0.0,0.0,0.0,0.0,0.0,0.0,0.0,0.0,0.0,0.0,0.0,0.0,0.0,0.0,0.0,0.0,0.0,0.0,0.0,0.0,0.0,0.0,0.0,0.0,0.0,0.0,0.0,0.0,0.0,0.0,0.0,0.0,0.0,0.0,0.0,0.0,0.0,0.0,0.0,0.0,0.0,0.0,0.0,0.0,0.0,0.0,0.0,0.0,0.0,0.0,0.0,0.0,0.0,0.0,0.0,0.0,0.0,0.0,0.0,0.0,0.0,0.0,0.0,0.0,0.0,0.0,0.0,0.0,0.0,0.0,0.0,0.0,0.0,0.0,0.0,0.0,0.0,0.0,0.0,0.0,0.0,0.0,0.0,0.0,0.0,0.0,0.0,0.0,0.0,0.0,0.0,0.0,0.0,0.0,0.0,0.0,0.0,0.0,0.0,0.0,0.0,0.0,0.0,0.0,0.0,0.0,0.0,0.0,0.0,0.0,0.0,0.0,0.0,0.0,0.0,0.0,0.0,0.0,0.0,0.0,0.0,0.0,0.0,0.0,0.0,0.0,0.0,0.0,0.0,0.0,0.0,0.0,0.0,0.0,0.0,0.0,0.0,0.0,0.0,0.0,0.0,0.0,0.0,0.0,0.0,0.0,0.0,0.0,0.0,0.0,0.0,0.0,0.0,0.0,0.0,0.0,0.0,0.0,0.0,0.0,0.0,0.0,0.0,0.0,0.0,0.0,0.0,0.0,0.0,0.0,0.0,0.0,0.0,0.0,0.0,0.0,0.0,0.0,0.0,0.0,0.0,0.0,0.0,0.0,0.0,0.0,0.0,0.0,0.0,0.0,0.0,0.0,0.0,0.0,0.0,0.0,0.0,0.0,0.0,0.0,0.0,0.0,0.0,0.0,0.0,0.0,0.0,0.0,0.0,0.0,0.0,0.0,0.0,0.0,0.0,0.0,0.0,0.0,0.0,0.0,0.0,0.0,0.0,0.0,0.0,0.0,0.0,0.0,0.0,0.0,0.0,0.0,0.0,0.0,0.0,0.0,0.0,0.0,0.0,0.0,0.0,0.0,0.0,0.0,0.0,0.0,0.0,0.0,0.0,0.0,0.0,0.0,0.0,0.0,0.0,0.0,0.0,0.0,0.0,0.0,0.0,0.0,0.0,0.0,0.0,0.0,0.0,0.0,0.0,0.0,0.0,0.0,0.0,0.0,0.0,0.0,0.0,0.0,0.0,0.0,0.0,0.0,0.0,0.0,0.0,0.0,0.0,0.0,0.0,0.0,0.0,0.0,0.0,0.0,0.0,0.0,0.0,0.0,0.0,0.0,0.0,0.0,0.0,0.0,0.0,0.0,0.0,0.0,0.0,0.0,0.0,0.0,0.0,0.0,0.0,0.0,0.0,0.0,0.0,0.0,0.0,0.0,0.0,0.0,0.0,0.0,0.0,0.0,0.0,0.0,0.0,0.0,0.0,0.0,0.0,0.0,0.0,0.0,0.0,0.0,0.0,0.0,0.0,0.0,0.0,0.0,0.0,0.0,0.0,0.0,0.0,0.0,0.0,0.0,0.0,0.0,0.0,0.0,0.0,0.0,0.0,0.0,0.0,0.0,0.0,0.0,0.0,0.0,0.0,0.0,0.0,0.0,0.0,0.0,0.0,0.0,0.0,0.0,0.0,0.0,0.0,0.0,0.0,0.0,0.0,0.0,0.0,0.0,0.0,0.0,0.0,0.0,0.0,0.0,0.0,0.0,0.0,0.0,0.0,0.0,0.0,0.0,0.0,0.0,0.0,0.0,0.0,0.0,0.0,0.0,0.0,0.0,0.0,0.0,0.0,0.0,0.0,0.0,0.0,0.0,0.0,0.0,0.0,0.0,0.0,0.0,0.0,0.0,0.0,0.0,0.0,0.0,0.0,0.0,0.0,0.0,0.0,0.0,0.0,0.0,0.0,0.0,0.0,0.0,0.0,0.0,0.0,0.0,0.0,0.0,0.0,0.0,0.0,0.0,0.0,0.0,0.0,0.0,0.0,0.0,0.0,0.0,0.0,0.0,0.0,0.0,0.0,0.0,0.0,0.0,0.0,0.0,0.0,0.0,0.0,0.0,0.0,0.0,0.0,0.0,0.0,0.0,0.0,0.0,0.0,0.0,0.0,0.0,0.0,0.0,0.0,0.0,0.0,0.0,0.0,0.0,0.0,0.0,0.0,0.0,0.0,0.0,0.0,0.0,0.0,0.0,0.0,0.0,0.0,0.0,0.0,0.0,0.0,0.0,0.0,0.0,0.0,0.0,0.0,0.0,0.0,0.0,0.0,0.0,0.0,0.0,0.0,0.0,0.0,0.0,0.0,0.0,0.0,0.0,0.0,0.0,0.0,0.0,0.0,0.0,0.0,0.0,0.0,0.0,0.0,0.0,0.0,0.0,0.0,0.0,0.0,0.0,0.0,0.0,0.0,0.0,0.0,0.0,0.0,0.0,0.0,0.0,0.0,0.0,0.0,0.0,0.0,0.0,0.0,0.0,0.0,0.0,0.0,0.0,0.0,0.0,0.0,0.0,0.0,0.0,0.0,0.0,0.0,0.0,0.0,0.0,0.0,0.0,0.0,0.0,0.0,0.0,0.0,0.0,0.0,0.0,0.0,0.0,0.0,0.0,0.0,0.0,0.0,0.0,0.0,0.0,0.0,0.0,0.0,0.0,0.0,0.0,0.0,0.0,0.0,0.0,0.0,0.0,0.0,0.0,0.0,0.0,0.0,0.0,0.0,0.0,0.0,0.0,0.0,0.0,0.0,0.0,0.0,0.0,0.0,0.0,0.0,0.0,0.0,0.0,0.0,0.0,0.0,0.0,0.0,0.0,0.0,0.0,0.0,0.0,0.0,0.0,0.0,0.0,0.0,0.0,0.0,0.0,0.0,0.0,0.0,0.0,0.0,0.0,0.0,0.0,0.0,0.0,0.0,0.0,0.0,0.0,0.0,0.0,0.0,0.0,0.0,0.0,0.0,0.0,0.0,0.0,0.0,0.0,0.0,0.0,0.0,0.0,0.0,0.0,0.0,0.0,0.0,0.0,0.0,0.0,0.0,0.0,0.0,0.0,0.0,0.0,0.0,0.0,0.0,0.0,0.0,0.0,0.0,0.0,0.0,0.0,0.0,0.0,0.0,0.0,0.0,0.0,0.0,0.0,0.0,0.0,0.0,0.0,0.0,0.0,0.0,0.0,0.0,0.0,0.0,0.0,0.0,0.0,0.0,0.0,0.0,0.0,0.0,0.0,0.0,0.0,0.0,0.0,0.0,0.0,0.0,0.0,0.0,0.0,0.0,0.0,0.0,0.0,0.0,0.0,0.0,0.0,0.0,0.0,0.0,0.0,0.0,0.0,0.0,0.0,0.0,0.0,0.0,0.0,0.0,0.0,0.0,0.0,0.0,0.0,0.0,0.0,0.0,0.0,0.0,0.0,0.0,0.0,0.0,0.0,0.0,0.0,0.0,0.0,0.0,0.0,0.0,0.0,0.0,0.0,0.0,0.0,0.0,0.0,0.0,0.0,0.0,0.0,0.0,0.0,0.0,0.0,0.0,0.0,0.0,0.0,0.0,0.0,0.0,0.0,0.0,0.0,0.0,0.0,0.0,0.0,0.0,0.0,0.0,0.0,0.0,0.0,0.0,0.0,0.0,0.0,0.0,0.0,0.0,0.0,0.0,0.0,3.6626,0.0,0.0,0.0,0.0,0.0,0.0,0.0,0.0,0.0,0.0,0.0,0.0,0.0,0.0,0.0,0.0,0.0,0.0,0.0,0.0,0.0,0.0,0.0,0.0,0.0,0.0,0.0,0.0,0.0,0.0,0.0,0.0,0.0,0.0,0.0,0.0,0.0,0.0,0.0,0.0,0.0,0.0,0.0,0.0,0.0,0.0,0.0,0.0,0.0,0.0,0.0,0.0,0.0,0.0,0.0,0.0,0.0,0.0,0.0,0.0,0.0,0.0,0.0,0.0,0.0,0.0,0.0,0.0,0.0,0.0,0.0,0.0,0.0,0.0,0.0,0.0,0.0,0.0,0.0,0.0,0.0,0.0,0.0,0.0,0.0,0.0,0.0,0.0,0.0,0.0,0.0,0.0,0.0,0.0,0.0,0.0,0.0,0.0,0.0,0.0,0.0,0.0,0.0,0.0,0.0,0.0,0.0,0.0,0.0,0.0,3.4362,3.5038,3.6018,3.6914,3.7689,0.0,0.0,0.0,0.0,0.0,0.0,0.0,0.0,0.0,0.0,0.0,0.0,0.0,0.0,0.0,0.0,0.0,0.0,0.0,0.0,0.0,0.0,0.0,0.0,0.0,0.0,0.0,0.0,0.0,0.0,0.0,0.0,0.0,0.0,0.0,0.0,0.0,0.0,0.0,0.0,0.0,0.0,0.0,0.0,0.0,0.0,0.0,0.0,0.0,0.0,0.0,0.0,0.0,0.0,0.0,0.0,0.0,0.0,0.0,0.0,0.0,0.0,0.0,0.0,0.0,0.0,0.0,0.0,0.0,0.0,0.0,0.0,0.0,0.0,0.0,0.0,0.0,0.0,0.0,0.0,0.0,0.0,0.0,0.0,0.0,0.0,0.0,0.0,0.0,0.0,0.0,0.0,0.0,0.0,0.0,0.0,0.0,0.0,0.0,0.0,0.0,0.0,0.0,0.0,0.0,0.0,0.0,0.0,0.0,0.0,0.0,0.0,3.6919,3.8012,3.9173,0.0,0.0,0.0,0.0,0.0,0.0,0.0,0.0,0.0,0.0,0.0,0.0,0.0,0.0,0.0,0.0,0.0,0.0,0.0,0.0,0.0,0.0,0.0,0.0,0.0,0.0,0.0,0.0,0.0,0.0,0.0,0.0,0.0,0.0,0.0,0.0,0.0,0.0,0.0,0.0,0.0,0.0,0.0,0.0,0.0,0.0,0.0,0.0,0.0,0.0,0.0,0.0,0.0,0.0,0.0,0.0,0.0,0.0,0.0,0.0,0.0,0.0,0.0,0.0,0.0,0.0,0.0,0.0,0.0,0.0,0.0,0.0,0.0,0.0,0.0,0.0,0.0,0.0,0.0,0.0,0.0,0.0,0.0,0.0,0.0,0.0,0.0,0.0,0.0,0.0,0.0,0.0,0.0,0.0,0.0,0.0,0.0,0.0,0.0,0.0,0.0,0.0,0.0,0.0,0.0,0.0,0.0,0.0,0.0,0.0,3.5565,3.6053,3.7032,0.0,4.0982,0.0,0.0,0.0,0.0,0.0,0.0,0.0,0.0,0.0,0.0,0.0,0.0,0.0,0.0,0.0,0.0,0.0,0.0,0.0,0.0,0.0,0.0,0.0,0.0,0.0,0.0,0.0,0.0,0.0,0.0,0.0,0.0,0.0,0.0,0.0,0.0,0.0,0.0,0.0,0.0,0.0,0.0,0.0,0.0,0.0,0.0,0.0,0.0,0.0,0.0,0.0,0.0,0.0,0.0,0.0,0.0,0.0,0.0,0.0,0.0,0.0,0.0,0.0,0.0,0.0,0.0,0.0,0.0,0.0,0.0,0.0,0.0,0.0,0.0,0.0,0.0,0.0,0.0,0.0,0.0,0.0,0.0,0.0,0.0,0.0,0.0,0.0,0.0,0.0,0.0,0.0,0.0,0.0,0.0,0.0,0.0,0.0,0.0,0.0,0.0,0.0,0.0,0.0,0.0,0.0,0.0,0.0,0.0,0.0,0.0,3.6309,3.7093,3.8597,4.0244,0.0,0.0,0.0,0.0,0.0,0.0,0.0,0.0,0.0,0.0,0.0,0.0,0.0,0.0,0.0,0.0,0.0,0.0,0.0,0.0,0.0,0.0,0.0,0.0,0.0,0.0,0.0,0.0,0.0,0.0,0.0,0.0,0.0,0.0,0.0,0.0,0.0,0.0,0.0,0.0,0.0,0.0,0.0,0.0,0.0,0.0,0.0,0.0,0.0,0.0,0.0,0.0,0.0,0.0,0.0,0.0,0.0,0.0,0.0,0.0,0.0,0.0,0.0,0.0,0.0,0.0,0.0,0.0,0.0,0.0,0.0,0.0,0.0,0.0,0.0,0.0,0.0,0.0,0.0,0.0,0.0,0.0,0.0,0.0,0.0,0.0,0.0,0.0,0.0,0.0,0.0,0.0,0.0,0.0,0.0,0.0,0.0,0.0,0.0,0.0,0.0,0.0,0.0,0.0,0.0,0.0,0.0,0.0,0.0,0.0,3.6134,3.7065,3.8228,3.9881,4.136,4.2569,0.0,0.0,0.0,0.0,0.0,0.0,0.0,0.0,0.0,0.0,0.0,0.0,0.0,0.0,0.0,0.0,0.0,0.0,0.0,0.0,0.0,0.0,0.0,0.0,0.0,0.0,0.0,0.0,0.0,0.0,0.0,0.0,0.0,0.0,0.0,0.0,0.0,0.0,0.0,0.0,0.0,0.0,0.0,0.0,0.0,0.0,0.0,0.0,0.0,0.0,0.0,0.0,0.0,0.0,0.0,0.0,0.0,0.0,0.0,0.0,0.0,0.0,0.0,0.0,0.0,0.0,0.0,0.0,0.0,0.0,0.0,0.0,0.0,0.0,0.0,0.0,0.0,0.0,0.0,0.0,0.0,0.0,0.0,0.0,0.0,0.0,0.0,0.0,0.0,0.0,0.0,0.0,0.0,0.0,0.0,0.0,0.0,0.0,0.0,0.0,0.0,0.0,0.0,0.0,0.0,0.0,0.0,0.0,3.5446,3.6493,3.7776,3.9158,4.0358,4.1527,0.0,0.0,0.0,0.0,0.0,0.0,0.0,0.0,0.0,0.0,0.0,0.0,0.0,0.0,0.0,0.0,0.0,0.0,0.0,0.0,0.0,0.0,0.0,0.0,0.0,0.0,0.0,0.0,0.0,0.0,0.0,0.0,0.0,0.0,0.0,0.0,0.0,0.0,0.0,0.0,0.0,0.0,0.0,0.0,0.0,0.0,0.0,0.0,0.0,0.0,0.0,0.0,0.0,0.0,0.0,0.0,0.0,0.0,0.0,0.0,0.0,0.0,0.0,0.0,0.0,0.0,0.0,0.0,0.0,0.0,0.0,0.0,0.0,0.0,0.0,0.0,0.0,0.0,0.0,0.0,0.0,0.0,0.0,0.0,0.0,0.0,0.0,0.0,0.0,0.0,0.0,0.0,0.0,0.0,0.0,0.0,0.0,0.0,0.0,0.0,0.0,0.0,0.0,0.0,0.0,0.0,0.0,0.0,0.0,3.5716,3.7069,3.8187,3.9047,4.0315,4.1499,0.0,0.0,0.0,0.0,0.0,0.0,0.0,0.0,0.0,0.0,0.0,0.0,0.0,0.0,0.0,0.0,0.0,0.0,0.0,0.0,0.0,0.0,0.0,0.0,0.0,0.0,0.0,0.0,0.0,0.0,0.0,0.0,0.0,0.0,0.0,0.0,0.0,0.0,0.0,0.0,0.0,0.0,0.0,0.0,0.0,0.0,0.0,0.0,0.0,0.0,0.0,0.0,0.0,0.0,0.0,0.0,0.0,0.0,0.0,0.0,0.0,0.0,0.0,0.0,0.0,0.0,0.0,0.0,0.0,0.0,0.0,0.0,0.0,0.0,0.0,0.0,0.0,0.0,0.0,0.0,0.0,0.0,0.0,0.0,0.0,0.0,0.0,0.0,0.0,0.0,0.0,0.0,0.0,0.0,0.0,0.0,0.0,0.0,0.0,0.0,0.0,0.0,0.0,0.0,0.0,0.0,0.0,0.0,0.0,3.6648,0.0,3.9013,3.9834,4.0923,4.1982,0.0,0.0,0.0,0.0,0.0,0.0,0.0,0.0,0.0,0.0,0.0,0.0,0.0,0.0,0.0,0.0,0.0,0.0,0.0,0.0,0.0,0.0,0.0,0.0,0.0,0.0,0.0,0.0,0.0,0.0,0.0,0.0,0.0,0.0,0.0,0.0,0.0,0.0,0.0,0.0,0.0,0.0,0.0,0.0,0.0,0.0,0.0,0.0,0.0,0.0,0.0,0.0,0.0,0.0,0.0,0.0,0.0,0.0,0.0,0.0,0.0,0.0,0.0,0.0,0.0,0.0,0.0,0.0,0.0,0.0,0.0,0.0,0.0,0.0,0.0,0.0,0.0,0.0,0.0,0.0,0.0,0.0,0.0,0.0,0.0,0.0,0.0,0.0,0.0,0.0,0.0,0.0,0.0,0.0,0.0,0.0,0.0,0.0,0.0,0.0,0.0,0.0,0.0,0.0,0.0,0.0,0.0,0.0,3.6925,3.835,3.915,4.0275,4.1741,4.237,4.3055,0.0,0.0,0.0,0.0,0.0,0.0,0.0,0.0,0.0,0.0,0.0,0.0,0.0,0.0,0.0,0.0,0.0,0.0,0.0,0.0,0.0,0.0,0.0,0.0,0.0,0.0,0.0,0.0,0.0,0.0,0.0,0.0,0.0,0.0,0.0,0.0,0.0,0.0,0.0,0.0,0.0,0.0,0.0,0.0,0.0,0.0,0.0,0.0,0.0,0.0,0.0,0.0,0.0,0.0,0.0,0.0,0.0,0.0,0.0,0.0,0.0,0.0,0.0,0.0,0.0,0.0,0.0,0.0,0.0,0.0,0.0,0.0,0.0,0.0,0.0,0.0,0.0,0.0,0.0,0.0,0.0,0.0,0.0,0.0,0.0,0.0,0.0,0.0,0.0,0.0,0.0,0.0,0.0,0.0,0.0,0.0,0.0,0.0,0.0,0.0,0.0,0.0,0.0,0.0,0.0,0.0,0.0,0.0,0.0,3.9333,4.0934,4.2067,4.2693,4.3858,4.4448,0.0,0.0,0.0,0.0,0.0,0.0,0.0,0.0,0.0,0.0,0.0,0.0,0.0,0.0,0.0,0.0,0.0,0.0,0.0,0.0,0.0,0.0,0.0,0.0,0.0,0.0,0.0,0.0,0.0,0.0,0.0,0.0,0.0,0.0,0.0,0.0,0.0,0.0,0.0,0.0,0.0,0.0,0.0,0.0,0.0,0.0,0.0,0.0,0.0,0.0,0.0,0.0,0.0,0.0,0.0,0.0,0.0,0.0,0.0,0.0,0.0,0.0,0.0,0.0,0.0,0.0,0.0,0.0,0.0,0.0,0.0,0.0,0.0,0.0,0.0,0.0,0.0,0.0,0.0,0.0,0.0,0.0,0.0,0.0,0.0,0.0,0.0,0.0,0.0,0.0,0.0,0.0,0.0,0.0,0.0,0.0,0.0,0.0,0.0,0.0,0.0,0.0,0.0,0.0,0.0,0.0,0.0,0.0,0.0,4.3805,4.4338,4.4879,4.5411,4.5976,4.604,4.5607,0.0,0.0,0.0,0.0,0.0,0.0,0.0,0.0,0.0,0.0,0.0,0.0,0.0,0.0,0.0,0.0,0.0,0.0,0.0,0.0,0.0,0.0,0.0,0.0,0.0,0.0,0.0,0.0,0.0,0.0,0.0,0.0,0.0,0.0,0.0,0.0,0.0,0.0,0.0,0.0,0.0,0.0,0.0,0.0,0.0,0.0,0.0,0.0,0.0,0.0,0.0,0.0,0.0,0.0,0.0,0.0,0.0,0.0,0.0,0.0,0.0,0.0,0.0,0.0,0.0,0.0,0.0,0.0,0.0,0.0,0.0,0.0,0.0,0.0,0.0,0.0,0.0,0.0,0.0,0.0,0.0,0.0,0.0,0.0,0.0,0.0,0.0,0.0,0.0,0.0,0.0,0.0,0.0,0.0,0.0,0.0,0.0,0.0,0.0,0.0,0.0,0.0,0.0,0.0,0.0,0.0,0.0,0.0,5.0938,4.9313,4.8911,4.9602,4.8751,4.7957,0.0,0.0,0.0,0.0,0.0,0.0,0.0,0.0,0.0,0.0,0.0,0.0,0.0,0.0,0.0,0.0,0.0,0.0,0.0,0.0,0.0,0.0,0.0,0.0,0.0,0.0,0.0,0.0,0.0,0.0,0.0,0.0,0.0,0.0,0.0,0.0,0.0,0.0,0.0,0.0,0.0,0.0,0.0,0.0,0.0,0.0,0.0,0.0,0.0,0.0,0.0,0.0,0.0,0.0,0.0,0.0,0.0,0.0,0.0,0.0,0.0,0.0,0.0,0.0,0.0,0.0,0.0,0.0,0.0,0.0,0.0,0.0,0.0,0.0,0.0,0.0,0.0,0.0,0.0,0.0,0.0,0.0,0.0,0.0,0.0,0.0,0.0,0.0,0.0,0.0,0.0,0.0,0.0,0.0,0.0,0.0,0.0,0.0,0.0,0.0,0.0,0.0,0.0,0.0,0.0,0.0,0.0,0.0,0.0,5.4529,5.6606,5.6518,5.42,5.2953,5.1675,0.0,0.0,0.0,0.0,0.0,0.0,0.0,0.0,0.0,0.0,0.0,0.0,0.0,0.0,0.0,0.0,0.0,0.0,0.0,0.0,0.0,0.0,0.0,0.0,0.0,0.0,0.0,0.0,0.0,0.0,0.0,0.0,0.0,0.0,0.0,0.0,0.0,0.0,0.0,0.0,0.0,0.0,0.0,0.0,0.0,0.0,0.0,0.0,0.0,0.0,0.0,0.0,0.0,0.0,0.0,0.0,0.0,0.0,0.0,0.0,0.0,0.0,0.0,0.0,0.0,0.0,0.0,0.0,0.0,0.0,0.0,0.0,0.0,0.0,0.0,0.0,0.0,0.0,0.0,0.0,0.0,0.0,0.0,0.0,0.0,0.0,0.0,0.0,0.0,0.0,0.0,0.0,0.0,0.0,0.0,0.0,0.0,0.0,0.0,0.0,0.0,0.0,0.0,0.0,0.0,0.0,0.0,0.0,5.516,5.8559,6.2173,6.3077,6.1116,5.7556,5.4831,0.0,0.0,0.0,0.0,0.0,0.0,0.0,0.0,0.0,0.0,0.0,0.0,0.0,0.0,0.0,0.0,0.0,0.0,0.0,0.0,0.0,0.0,0.0,0.0,0.0,0.0,0.0,0.0,0.0,0.0,0.0,0.0,0.0,0.0,0.0,0.0,0.0,0.0,0.0,0.0,0.0,0.0,0.0,0.0,0.0,0.0,0.0,0.0,0.0,0.0,0.0,0.0,0.0,0.0,0.0,0.0,0.0,0.0,0.0,0.0,0.0,0.0,0.0,0.0,0.0,0.0,0.0,0.0,0.0,0.0,0.0,0.0,0.0,0.0,0.0,0.0,0.0,0.0,0.0,0.0,0.0,0.0,0.0,0.0,0.0,0.0,0.0,0.0,0.0,0.0,0.0,0.0,0.0,0.0,0.0,0.0,0.0,0.0,0.0,0.0,0.0,0.0,0.0,0.0,0.0,0.0,0.0,0.0,5.8602,6.2382,6.6304,6.8352,6.8329,6.2234,5.7934,0.0,0.0,0.0,0.0,0.0,0.0,0.0,0.0,0.0,0.0,0.0,0.0,0.0,0.0,0.0,0.0,0.0,0.0,0.0,0.0,0.0,0.0,0.0,0.0,0.0,0.0,0.0,0.0,0.0,0.0,0.0,0.0,0.0,0.0,0.0,0.0,0.0,0.0,0.0,0.0,0.0,0.0,0.0,0.0,0.0,0.0,0.0,0.0,0.0,0.0,0.0,0.0,0.0,0.0,0.0,0.0,0.0,0.0,0.0,0.0,0.0,0.0,0.0,0.0,0.0,0.0,0.0,0.0,0.0,0.0,0.0,0.0,0.0,0.0,0.0,0.0,0.0,0.0,0.0,0.0,0.0,0.0,0.0,0.0,0.0,0.0,0.0,0.0,0.0,0.0,0.0,0.0,0.0,0.0,0.0,0.0,0.0,0.0,0.0,0.0,0.0,0.0,0.0,0.0,0.0,0.0,0.0,0.0,6.0635,6.3992,6.8145,7.011,6.9768,6.591,6.246,0.0,0.0,0.0,0.0,0.0,0.0,0.0,0.0,0.0,0.0,0.0,0.0,0.0,0.0,0.0,0.0,0.0,0.0,0.0,0.0,0.0,0.0,0.0,0.0,0.0,0.0,0.0,0.0,0.0,0.0,0.0,0.0,0.0,0.0,0.0,0.0,0.0,0.0,0.0,0.0,0.0,0.0,0.0,0.0,0.0,0.0,0.0,0.0,4.6061,0.0,0.0,0.0,0.0,0.0,0.0,0.0,0.0,0.0,0.0,0.0,0.0,0.0,0.0,0.0,0.0,0.0,0.0,0.0,0.0,0.0,0.0,0.0,0.0,0.0,0.0,0.0,0.0,0.0,0.0,0.0,0.0,0.0,0.0,0.0,0.0,0.0,0.0,0.0,0.0,0.0,0.0,0.0,0.0,0.0,0.0,0.0,0.0,0.0,0.0,0.0,0.0,0.0,0.0,0.0,0.0,0.0,0.0,0.0,6.4082,6.7773,7.1839,7.3705,7.3133,7.0637,6.7188,0.0,0.0,0.0,0.0,0.0,0.0,0.0,0.0,0.0,0.0,0.0,0.0,0.0,0.0,0.0,0.0,0.0,0.0,0.0,0.0,0.0,0.0,0.0,0.0,0.0,0.0,0.0,0.0,0.0,0.0,0.0,0.0,0.0,0.0,0.0,0.0,0.0,0.0,0.0,0.0,0.0,0.0,0.0,0.0,0.0,0.0,0.0,0.0,0.0,0.0,0.0,0.0,0.0,0.0,0.0,0.0,0.0,0.0,0.0,0.0,0.0,0.0,0.0,0.0,0.0,0.0,0.0,0.0,0.0,0.0,0.0,0.0,0.0,0.0,0.0,0.0,0.0,0.0,0.0,0.0,0.0,0.0,0.0,0.0,0.0,0.0,0.0,0.0,0.0,0.0,0.0,0.0,0.0,0.0,0.0,0.0,0.0,0.0,0.0,0.0,0.0,0.0,0.0,0.0,0.0,0.0,0.0,6.2606,6.763,7.1735,7.5396,7.6998,7.6411,7.4516,7.0963,6.5697,0.0,0.0,0.0,0.0,0.0,0.0,0.0,0.0,0.0,0.0,0.0,0.0,0.0,0.0,0.0,0.0,0.0,0.0,0.0,0.0,0.0,0.0,0.0,0.0,0.0,0.0,0.0,0.0,0.0,0.0,0.0,0.0,0.0,0.0,0.0,0.0,0.0,0.0,4.8277,5.122,0.0,0.0,0.0,0.0,0.0,0.0,0.0,0.0,5.2646,0.0,0.0,0.0,0.0,0.0,0.0,0.0,0.0,0.0,0.0,0.0,0.0,0.0,0.0,0.0,0.0,0.0,0.0,0.0,0.0,0.0,0.0,0.0,0.0,0.0,0.0,0.0,0.0,0.0,0.0,0.0,0.0,0.0,0.0,0.0,0.0,0.0,0.0,0.0,0.0,0.0,0.0,0.0,0.0,0.0,0.0,0.0,0.0,0.0,0.0,0.0,0.0,0.0,0.0,0.0,0.0,5.8611,6.4496,6.9247,7.2687,7.5248,7.6326,7.5756,7.3979,7.1346,6.7824,0.0,0.0,0.0,0.0,0.0,0.0,0.0,0.0,0.0,0.0,0.0,0.0,0.0,0.0,0.0,0.0,0.0,0.0,0.0,0.0,0.0,0.0,0.0,0.0,0.0,0.0,0.0,0.0,0.0,0.0,0.0,0.0,0.0,0.0,0.0,0.0,0.0,0.0,0.0,5.4955,5.5899,0.0,0.0,0.0,0.0,0.0,0.0,0.0,0.0,5.2891,0.0,0.0,0.0,0.0,0.0,0.0,0.0,0.0,0.0,0.0,0.0,0.0,0.0,0.0,0.0,0.0,0.0,0.0,0.0,0.0,0.0,0.0,0.0,0.0,0.0,0.0,0.0,0.0,0.0,0.0,0.0,0.0,0.0,0.0,0.0,0.0,0.0,0.0,0.0,0.0,0.0,0.0,0.0,0.0,0.0,0.0,0.0,0.0,0.0,0.0,0.0,0.0,0.0,0.0,0.0,6.1077,6.6871,7.1778,7.5726,7.7371,7.8002,7.756,7.4864,7.1637,0.0,0.0,0.0,0.0,0.0,0.0,0.0,0.0,0.0,0.0,0.0,0.0,0.0,0.0,0.0,0.0,0.0,0.0,0.0,0.0,0.0,0.0,0.0,0.0,0.0,0.0,0.0,0.0,0.0,0.0,0.0,0.0,0.0,0.0,0.0,0.0,0.0,0.0,0.0,0.0,5.734,5.845,5.8265,0.0,0.0,0.0,0.0,0.0,0.0,5.6835,5.6614,0.0,0.0,0.0,0.0,0.0,0.0,0.0,0.0,0.0,0.0,0.0,0.0,0.0,0.0,0.0,0.0,0.0,0.0,0.0,0.0,0.0,0.0,0.0,0.0,0.0,0.0,0.0,0.0,0.0,0.0,0.0,0.0,0.0,0.0,0.0,0.0,0.0,0.0,0.0,0.0,0.0,0.0,0.0,0.0,0.0,0.0,0.0,0.0,0.0,0.0,0.0,0.0,0.0,0.0,0.0,6.361,6.9444,7.4514,7.869,7.9792,7.9916,7.9182,7.5654,7.1707,0.0,0.0,0.0,0.0,0.0,0.0,0.0,0.0,0.0,0.0,0.0,0.0,0.0,0.0,0.0,0.0,0.0,0.0,0.0,0.0,0.0,0.0,0.0,0.0,0.0,0.0,0.0,0.0,0.0,0.0,0.0,0.0,0.0,0.0,0.0,0.0,0.0,0.0,0.0,0.0,0.0,6.0463,6.0801,6.017,0.0,0.0,0.0,0.0,6.067,6.1181,0.0,0.0,0.0,0.0,0.0,0.0,0.0,0.0,0.0,0.0,0.0,0.0,0.0,0.0,0.0,0.0,0.0,0.0,0.0,0.0,0.0,0.0,0.0,0.0,0.0,0.0,0.0,0.0,0.0,0.0,0.0,0.0,0.0,0.0,0.0,0.0,0.0,0.0,0.0,0.0,0.0,0.0,0.0,0.0,0.0,0.0,0.0,0.0,0.0,0.0,0.0,0.0,0.0,0.0,0.0,0.0,6.5943,7.2277,7.7014,8.0048,8.1182,8.0644,7.8304,7.5109,7.1447,0.0,0.0,0.0,0.0,0.0,0.0,0.0,0.0,0.0,0.0,0.0,0.0,0.0,0.0,0.0,0.0,0.0,0.0,0.0,0.0,0.0,0.0,0.0,0.0,0.0,0.0,0.0,0.0,0.0,0.0,0.0,0.0,0.0,0.0,0.0,0.0,0.0,0.0,0.0,0.0,0.0,6.1854,6.3781,6.3283,6.2892,0.0,0.0,6.2939,6.3687,6.3472,0.0,0.0,0.0,0.0,0.0,0.0,0.0,0.0,0.0,0.0,0.0,0.0,0.0,0.0,0.0,0.0,0.0,0.0,0.0,0.0,0.0,0.0,0.0,0.0,0.0,0.0,0.0,0.0,0.0,0.0,0.0,0.0,0.0,0.0,0.0,0.0,0.0,0.0,0.0,0.0,0.0,0.0,0.0,0.0,0.0,0.0,0.0,0.0,0.0,0.0,0.0,0.0,0.0,0.0,0.0,6.0751,6.7944,7.328,7.7805,8.1439,8.2005,8.1186,7.8989,7.5453,7.1341,0.0,0.0,0.0,0.0,0.0,0.0,0.0,0.0,0.0,0.0,0.0,0.0,0.0,0.0,0.0,0.0,0.0,0.0,0.0,0.0,0.0,0.0,0.0,0.0,0.0,0.0,0.0,0.0,0.0,0.0,0.0,0.0,0.0,0.0,0.0,0.0,0.0,0.0,0.0,0.0,0.0,0.0,6.6102,6.6492,0.0,0.0,0.0,6.7901,6.8239,0.0,0.0,0.0,0.0,0.0,0.0,0.0,0.0,0.0,0.0,0.0,0.0,0.0,0.0,0.0,0.0,0.0,0.0,0.0,0.0,0.0,0.0,0.0,0.0,0.0,0.0,0.0,0.0,0.0,0.0,0.0,0.0,0.0,0.0,0.0,0.0,0.0,0.0,0.0,0.0,0.0,0.0,0.0,0.0,0.0,0.0,0.0,0.0,0.0,0.0,0.0,0.0,0.0,0.0,0.0,0.0,0.0,6.9649,7.4469,7.8823,8.2712,8.3004,8.1996,7.9691,7.6047,0.0,0.0,0.0,0.0,0.0,0.0,0.0,0.0,0.0,0.0,0.0,0.0,0.0,0.0,0.0,0.0,0.0,0.0,0.0,0.0,0.0,0.0,0.0,0.0,0.0,0.0,0.0,4.0668,0.0,0.0,0.0,0.0,0.0,0.0,0.0,0.0,0.0,0.0,0.0,0.0,0.0,0.0,6.5472,6.8571,6.9688,7.0331,0.0,0.0,7.2101,7.2101,7.1379,6.9891,0.0,0.0,0.0,0.0,0.0,0.0,0.0,0.0,0.0,0.0,0.0,0.0,0.0,0.0,0.0,0.0,0.0,0.0,0.0,0.0,0.0,0.0,0.0,0.0,0.0,0.0,0.0,0.0,3.5251,0.0,0.0,0.0,0.0,0.0,0.0,0.0,0.0,0.0,0.0,0.0,0.0,0.0,0.0,0.0,0.0,0.0,0.0,0.0,0.0,0.0,0.0,0.0,0.0,0.0,6.3449,7.097,7.6414,8.0689,8.3758,8.4577,8.3333,8.0081,7.6616,7.218,0.0,0.0,0.0,0.0,0.0,0.0,0.0,0.0,0.0,0.0,0.0,0.0,0.0,0.0,0.0,0.0,0.0,0.0,0.0,0.0,0.0,0.0,0.0,0.0,0.0,0.0,0.0,0.0,0.0,0.0,0.0,0.0,0.0,0.0,0.0,0.0,0.0,0.0,0.0,0.0,0.0,6.7929,7.1582,7.2732,7.368,0.0,7.4762,7.4367,7.4367,7.3206,7.1244,6.8301,0.0,0.0,0.0,0.0,0.0,0.0,0.0,0.0,0.0,0.0,0.0,0.0,0.0,0.0,0.0,0.0,0.0,0.0,0.0,0.0,0.0,0.0,0.0,0.0,0.0,3.7991,3.7842,0.0,3.7647,0.0,0.0,0.0,0.0,0.0,0.0,0.0,0.0,0.0,0.0,0.0,0.0,0.0,0.0,0.0,0.0,0.0,0.0,0.0,0.0,0.0,0.0,0.0,0.0,6.4279,7.2043,7.6944,8.1103,8.4511,8.511,8.3857,8.0747,7.7555,7.3073,0.0,0.0,0.0,0.0,0.0,0.0,0.0,0.0,0.0,0.0,0.0,0.0,0.0,0.0,0.0,0.0,0.0,0.0,0.0,0.0,0.0,0.0,0.0,0.0,0.0,0.0,0.0,0.0,4.6372,4.6298,4.6203,0.0,0.0,0.0,0.0,0.0,0.0,0.0,0.0,0.0,0.0,7.077,7.3984,7.5496,0.0,0.0,7.7546,7.7232,7.6758,7.5405,7.3409,7.0466,6.6914,0.0,0.0,0.0,0.0,0.0,0.0,0.0,0.0,0.0,0.0,0.0,0.0,0.0,0.0,0.0,0.0,0.0,0.0,0.0,0.0,0.0,0.0,0.0,0.0,0.0,0.0,0.0,0.0,0.0,0.0,0.0,0.0,0.0,0.0,0.0,0.0,0.0,0.0,0.0,0.0,0.0,0.0,0.0,0.0,0.0,0.0,0.0,0.0,0.0,0.0,0.0,0.0,6.4912,7.2703,7.7273,8.1283,8.4821,8.5283,8.4154,8.1417,7.8336,7.408,0.0,0.0,0.0,0.0,0.0,0.0,0.0,0.0,0.0,0.0,0.0,0.0,0.0,0.0,0.0,0.0,0.0,0.0,0.0,0.0,0.0,0.0,0.0,0.0,0.0,0.0,0.0,0.0,4.8679,4.8066,4.721,0.0,0.0,0.0,0.0,0.0,0.0,0.0,0.0,0.0,0.0,7.3612,7.6318,7.801,7.916,7.9701,7.9397,7.8855,7.8111,7.6521,7.4434,7.1729,0.0,0.0,0.0,0.0,0.0,0.0,0.0,0.0,0.0,0.0,0.0,0.0,0.0,0.0,0.0,0.0,0.0,0.0,0.0,0.0,0.0,0.0,0.0,0.0,0.0,0.0,0.0,4.2331,0.0,0.0,4.0781,0.0,0.0,0.0,0.0,0.0,0.0,0.0,0.0,0.0,0.0,0.0,0.0,0.0,0.0,0.0,0.0,0.0,0.0,0.0,0.0,0.0,0.0,6.5368,7.2907,7.7555,8.1364,8.4336,8.5131,8.435,8.1984,7.9069,7.5152,7.0195,0.0,0.0,0.0,0.0,0.0,0.0,0.0,0.0,0.0,0.0,0.0,0.0,0.0,0.0,0.0,0.0,0.0,0.0,0.0,0.0,0.0,0.0,0.0,0.0,0.0,0.0,4.9827,4.9988,4.9458,0.0,0.0,0.0,0.0,0.0,0.0,0.0,0.0,0.0,0.0,7.1887,7.6454,7.872,8.0276,8.1156,8.1224,8.004,7.8855,7.8145,7.6149,7.3883,0.0,0.0,0.0,0.0,0.0,0.0,0.0,0.0,0.0,0.0,0.0,0.0,0.0,0.0,0.0,0.0,0.0,0.0,0.0,0.0,0.0,0.0,0.0,0.0,0.0,0.0,0.0,4.7391,4.6942,0.0,0.0,0.0,0.0,0.0,0.0,0.0,0.0,0.0,0.0,0.0,6.0811,6.1371,0.0,0.0,0.0,0.0,0.0,0.0,0.0,0.0,0.0,0.0,0.0,0.0,6.7105,7.3881,7.7894,8.1482,8.4584,8.4974,8.4137,8.2037,7.9786,7.5445,6.8876,0.0,0.0,0.0,0.0,0.0,0.0,0.0,0.0,0.0,0.0,0.0,0.0,0.0,0.0,0.0,0.0,0.0,0.0,0.0,0.0,0.0,0.0,0.0,0.0,0.0,5.114,0.0,0.0,0.0,0.0,0.0,0.0,0.0,0.0,0.0,0.0,0.0,6.6385,7.1345,7.5879,7.9329,8.1054,8.1697,8.2035,0.0,0.0,0.0,0.0,0.0,0.0,0.0,0.0,0.0,0.0,0.0,0.0,0.0,0.0,7.0445,6.4822,6.4265,6.4925,6.5702,0.0,0.0,0.0,0.0,0.0,0.0,0.0,0.0,0.0,0.0,0.0,0.0,0.0,0.0,5.2121,5.1612,5.0395,0.0,0.0,0.0,0.0,0.0,0.0,0.0,0.0,6.1795,6.4296,6.6549,6.6876,6.629,0.0,6.3233,6.0104,0.0,0.0,0.0,0.0,0.0,0.0,0.0,0.0,6.8773,7.5022,7.8628,8.1741,8.4521,8.4884,8.4115,8.2162,7.9398,7.527,6.9654,6.601,6.3337,0.0,0.0,0.0,0.0,0.0,0.0,0.0,0.0,0.0,0.0,0.0,0.0,0.0,0.0,0.0,0.0,0.0,0.0,0.0,0.0,0.0,0.0,0.0,5.2926,0.0,0.0,0.0,0.0,0.0,0.0,0.0,0.0,0.0,6.2874,6.6508,7.077,7.5202,7.8788,8.1426,8.2644,0.0,0.0,0.0,0.0,0.0,0.0,0.0,7.9255,7.8263,7.7387,7.7204,7.8351,7.9596,8.08,8.1782,0.0,0.0,7.2038,7.1664,7.2887,7.3725,7.669,7.9383,8.0152,8.2437,8.4414,0.0,0.0,0.0,0.0,0.0,0.0,0.0,0.0,5.7932,5.7453,0.0,5.4246,0.0,0.0,0.0,0.0,0.0,5.7856,0.0,0.0,6.8516,7.0741,7.2562,7.2132,7.1513,7.0685,6.854,6.6522,6.4351,5.7478,0.0,0.0,0.0,0.0,0.0,0.0,7.0476,7.6402,7.9695,8.2233,8.4211,8.4924,8.4352,8.2348,7.8111,7.4728,7.2496,6.9553,6.6897,6.4549,6.2326,0.0,0.0,0.0,0.0,0.0,0.0,0.0,0.0,0.0,0.0,0.0,0.0,0.0,0.0,0.0,0.0,0.0,0.0,0.0,0.0,5.3771,0.0,0.0,0.0,0.0,0.0,0.0,0.0,0.0,0.0,0.0,6.674,7.059,7.4786,7.7773,0.0,0.0,0.0,0.0,8.3697,8.3984,8.3031,8.2433,8.2678,8.2349,8.2138,8.2103,0.0,0.0,8.5518,8.6669,8.779,8.9343,8.9677,8.7765,8.114,8.0962,8.2099,8.2995,8.5713,8.8081,8.8795,9.0193,9.1535,6.266,0.0,0.0,0.0,0.0,5.9548,6.0595,6.1972,6.1253,6.0505,5.9635,5.8347,0.0,0.0,0.0,0.0,0.0,0.0,6.6557,6.9853,7.2828,7.5187,7.6926,7.6947,7.6328,7.5046,7.3325,7.1601,6.9827,6.6743,6.3033,5.8968,0.0,0.0,0.0,0.0,7.4159,7.8856,8.1527,8.358,8.5284,8.5296,8.411,8.1663,7.8314,7.5743,7.4018,7.1616,6.9509,6.7775,6.5421,0.0,0.0,0.0,0.0,0.0,0.0,0.0,0.0,0.0,0.0,0.0,0.0,0.0,0.0,0.0,0.0,0.0,0.0,0.0,5.5466,5.7344,5.8169,0.0,0.0,0.0,0.0,0.0,0.0,0.0,0.0,0.0,7.6198,7.698,7.8619,0.0,0.0,8.516,8.6059,8.5773,8.5584,8.6046,8.6187,0.0,8.6585,8.7299,8.7854,8.8077,8.9032,9.004,9.0646,9.1847,9.333,9.5065,9.5061,9.4498,9.3918,9.0913,8.9672,9.1438,9.367,9.5654,9.7064,9.9,10.0364,6.9572,6.5173,6.3109,6.3019,6.4246,6.4515,6.5562,6.7059,6.6041,6.5143,6.433,6.2809,6.1085,5.9335,6.0307,0.0,0.0,0.0,7.1658,7.4434,7.6884,7.8775,8.0115,8.0336,7.9803,7.8619,7.7401,7.6145,7.4843,7.3392,7.0804,6.7199,0.0,0.0,7.0042,7.3884,7.764,8.1177,8.3321,8.4829,8.5757,8.4716,8.3399,8.1731,7.8889,7.6758,7.554,7.3646,7.1785,7.006,6.8261,6.6087,0.0,0.0,0.0,0.0,0.0,0.0,0.0,0.0,0.0,0.0,0.0,5.0292,4.9459,0.0,0.0,0.0,5.497,5.7287,5.9931,6.1026,0.0,0.0,0.0,0.0,0.0,0.0,0.0,7.5105,7.8431,8.1297,8.3226,8.3677,8.3986,8.4506,8.5853,8.6958,8.7561,0.0,8.7925,8.8455,8.925,9.0024,9.0493,9.1811,9.3071,9.4117,9.497,9.5903,9.6715,9.755,9.8657,10.0069,10.0275,10.0423,10.1618,9.9125,9.6966,9.7699,9.9385,10.11,10.1947,10.3504,10.4601,7.6006,7.5023,7.0141,6.8675,6.9572,7.0081,7.1038,7.2182,7.1493,7.0699,6.9662,6.7545,6.6239,6.5758,6.7309,0.0,7.1542,7.4275,7.6926,7.9454,8.0696,8.1802,8.272,8.2754,8.2374,8.1655,8.0953,8.0276,7.9473,7.8179,7.7585,7.7699,7.435,7.3493,7.5281,7.8376,8.1125,8.3531,8.5216,8.602,8.5824,8.3592,8.2374,8.2272,7.9498,7.7638,7.6893,7.5473,7.3713,7.1594,7.077,6.8924,6.5762,0.0,0.0,0.0,0.0,0.0,0.0,0.0,0.0,0.0,0.0,0.0,0.0,0.0,0.0,5.6969,5.9672,0.0,6.4871,6.494,0.0,0.0,0.0,7.0458,7.3866,7.6474,7.9184,8.2177,0.0,0.0,8.8237,9.0036,9.0174,8.7333,8.7904,8.863,8.8708,8.976,9.0676,9.1309,9.2418,9.351,9.4408,9.6037,9.779,9.9434,10.0074,10.0614,10.2178,10.2674,10.338,10.4455,10.4796,10.486,10.5196,10.4845,10.4515,10.2202,10.3442,10.4823,10.4552,10.5013,10.5579,8.0285,7.9986,7.825,7.6275,7.424,7.3851,7.435,7.5188,7.4138,7.3267,7.2509,7.1937,7.1833,7.2188,7.4046,7.5587,7.6881,7.9588,8.1632,8.306,8.4156,8.506,8.5797,8.5858,8.5452,8.4742,8.4539,8.4065,8.3295,8.2956,8.2803,8.2833,8.3076,8.2018,7.9828,8.2557,8.5086,8.7329,8.798,8.778,8.6602,8.3896,8.2137,8.1562,7.9228,7.7638,7.6927,7.5946,7.4695,7.3037,7.2259,7.0411,6.7235,6.5371,0.0,0.0,0.0,0.0,0.0,0.0,0.0,0.0,0.0,5.7168,5.5799,0.0,6.1612,0.0,6.4312,6.6877,6.7838,7.0485,0.0,0.0,7.6504,7.9109,8.1897,8.3881,8.6003,8.8454,8.9796,9.1142,9.2669,9.3399,9.3774,9.357,9.2826,9.2444,9.3062,9.337,9.3961,9.4847,9.5841,9.7092,9.8406,10.0376,10.1837,10.2404,10.2593,10.2889,10.3361,10.3583,10.4169,10.5594,10.5448,10.5579,10.6706,10.6544,10.6428,10.6753,10.7009,10.7104,10.7551,10.7771,10.7918,8.3517,8.3525,8.3318,8.2124,8.0201,7.8517,7.8313,7.9015,7.822,7.7575,7.7075,7.6767,7.6846,7.7404,7.888,8.0124,8.1352,8.3038,8.4337,8.5275,8.5952,8.6501,8.6879,8.6879,8.6704,8.6298,8.6298,8.6061,8.5655,8.5628,8.5763,8.6163,8.7313,8.7126,8.5828,8.7256,8.8475,8.9353,8.888,8.7888,8.6399,8.3795,8.19,8.0818,7.8957,7.7493,7.6386,7.5608,7.4525,7.3105,7.2631,7.13,6.8904,6.7582,6.5699,0.0,0.0,0.0,0.0,0.0,0.0,0.0,0.0,0.0,0.0,0.0,6.6045,6.709,7.002,7.2547,7.421,7.6802,7.9187,8.1145,8.3449,8.57,8.7952,8.9767,9.1602,9.3569,9.4715,9.5803,9.6998,9.7521,9.7998,9.8594,9.7895,9.6833,9.5729,9.5959,9.6684,9.738,9.8321,9.9654,10.1357,10.2998,10.4235,10.4586,10.4765,10.496,10.529,10.5469,10.5883,10.6691,10.6523,10.6339,10.6948,10.7388,10.7807,10.8505,10.9055,10.9092,10.8835,10.8799,10.8725,8.6169,8.6178,8.6648,8.669,8.6206,8.3695,8.2863,8.3143,8.2794,8.2476,8.2198,8.1643,8.1599,8.1943,8.286,8.3955,8.5247,8.5822,8.6414,8.7054,8.731,8.7482,8.7454,8.7482,8.7414,8.7347,8.7347,8.7279,8.7211,8.7279,8.7651,8.8294,8.9106,9.0154,9.1372,9.1643,9.1271,9.0357,8.8903,8.738,8.579,8.3456,8.1562,8.0073,7.8517,7.7029,7.5608,7.4864,7.3815,7.2496,7.2394,7.1718,7.0285,6.9688,6.8424,0.0,6.612,0.0,0.0,0.0,0.0,0.0,0.0,0.0,0.0,6.8552,7.0915,7.4031,7.6155,7.868,8.19,8.326,8.5178,8.8029,8.9552,9.102,9.2758,9.4591,9.6292,9.7796,9.9055,10.0086,10.0832,10.155,10.1931,10.2083,10.1971,10.0777,9.817,9.8312,9.9039,9.9201,10.0201,10.1587,10.3153,10.4468,10.5474,10.6192,10.6245,10.6654,10.7147,10.7315,10.7388,10.7425,10.7425,10.7278,10.6523,10.7771,10.8909,10.9202,11.0414,11.0928,10.9643,10.9239,10.8872,8.8617,8.8697,8.949,8.9498,8.899,8.9089,8.8234,8.6725,8.5887,8.5612,8.5816,8.5971,8.6309,8.6898,8.7931,8.8682,8.915,8.9843,9.0238,9.0402,9.043,9.0493,9.0459,9.0459,9.0154,8.9585,8.9579,8.9275,8.87,8.9309,8.9647,8.9816,9.1107,9.1913,9.2257,0.0,0.0,0.0,8.9647,8.7888,8.579,8.3009,8.0818,7.9329,7.7232,0.0,7.483,7.4119,7.3308,7.2462,7.2394,0.0,0.0,0.0,0.0,0.0,0.0,0.0,0.0,0.0,0.0,0.0,7.6344,7.5993,7.2856,7.5111,7.782,8.0273,8.1761,8.3899,8.7124,8.8518,9.0456,9.3367,9.4402,9.5546,9.7312,9.8662,9.9861,10.0769,10.1514,10.2226,10.2936,10.2891,10.2967,10.3601,10.3511,10.3065,10.2279,10.1459,10.103,10.0918,10.2098,10.329,10.376,10.5144,10.6119,10.6376,10.6376,10.6449,10.6596,10.6633,10.6654,10.6727,10.7168,10.7388,10.6633,10.8211,11.0047,11.0634,11.2029,11.2653,11.1111,11.0781,11.0707,9.0324,0.0,9.1832,9.2135,0.0,9.3163,9.3077,9.1978,9.0069,8.948,8.9965,9.0096,9.0337,9.0665,9.1328,9.1764,9.188,9.2252,9.2218,9.1846,9.1846,9.1643,9.1305,9.1305,9.1102,9.0763,9.0763,9.056,9.0222,9.056,9.0932,9.1276,9.2054,9.2595,9.2996,9.3339,9.2996,9.1846,9.0019,8.782,8.5249,8.3016,8.0784,7.8653,7.7435,0.0,0.0,0.0,0.0,0.0,0.0,0.0,0.0,7.3186,0.0,7.2641,7.3984,7.4973,7.5449,7.748,7.9613,8.1571,8.4549,8.427,7.9557,8.1742,8.4094,8.5771,8.7419,8.9544,9.2127,9.3465,9.4912,9.6895,9.7735,9.8703,9.9972,10.1001,10.2061,10.3157,10.3619,10.4079,10.494,10.4809,10.4801,10.5129,10.5104,10.4813,10.4353,10.3452,10.2715,10.2594,10.3577,10.4504,10.4614,10.5495,10.6376,10.6376,10.6376,10.6376,10.6376,10.6376,10.6544,10.6948,10.7645,10.8101,10.8395,11.0142,11.1941,11.2396,11.3644,11.4525,11.3644,11.2946,11.2139,9.191,9.2815,9.4094,9.4668,9.491,9.6336,9.6981,9.6863,0.0,0.0,0.0,9.3585,9.3586,9.362,9.3888,9.3977,9.4007,9.4007,9.3639,9.2967,9.3001,9.2692,9.2083,9.1947,9.1812,9.1677,9.1575,9.1406,9.1305,9.144,9.1812,9.2358,9.2527,9.2962,9.3503,9.2793,9.2324,9.2087,9.0019,8.7583,8.485,8.3118,8.0987,7.8474,7.8,7.6647,7.4257,7.4596,7.4371,7.3277,7.4128,7.4969,7.5663,7.6415,7.699,7.7393,7.9051,8.0403,8.1317,8.3479,8.5906,8.8524,9.1415,9.114,8.6475,8.8114,8.977,9.0885,9.2647,9.4511,9.6575,9.7668,9.8633,9.9639,10.0466,10.12,10.1861,10.2632,10.3618,10.485,10.5159,10.5584,10.6208,10.6281,10.6376,10.6376,10.6245,10.6192,10.5422,10.4426,10.3744,10.3786,10.441,10.507,10.5217,10.5825,10.6339,10.6376,10.6376,10.6376,10.6376,10.6376,10.667,10.7131,10.8175,10.9055,10.979,11.1808,11.363,11.363,11.4855,11.5993,11.5883,11.4929,11.3681,9.3887,9.4746,9.6264,9.6947,9.7119,9.8301,9.8986,9.9068,9.6825,9.5513,9.5024,9.5322,9.5405,9.5405,9.5499,9.5499,9.5499,9.5499,9.5432,9.533,9.533,9.5263,9.5127,9.4518,9.3876,9.3267,9.259,9.1913,9.1406,9.1947,9.229,9.2493,9.3098,9.347,9.3533,9.2827,9.2087,9.144,8.9275,8.7347,8.5621,8.2881,8.0953,7.987,7.8077,7.6956,7.6697,7.6177,7.6036,7.6268,7.7022,7.7674,7.8286,7.9956,8.1309,8.2282,8.3883,8.5448,8.6858,8.9079,9.1784,9.491,9.5887,9.5187,9.2875,9.3437,9.4536,9.5711,9.6146,9.7189,9.9204,10.0143,10.1014,10.2004,10.2889,10.3439,10.3513,10.4173,10.4777,10.5128,10.5789,10.6192,10.6339,10.6376,10.6376,10.6376,10.6376,10.6339,10.5972,10.4871,10.399,10.399,10.4577,10.5034,10.529,10.5825,10.6302,10.6376,10.6376,10.6376,10.6376,10.6376,10.6486,10.6596,10.8343,10.9386,10.9276,11.2102,11.3644,11.3644,11.4672,11.5773,11.581,11.5589,11.5406,9.5792,9.6983,9.8178,9.8902,9.9336,9.9852,10.0277,10.0486,9.9102,9.8292,9.7989,9.811,9.8206,9.8206,9.8206,9.8206,9.8172,9.7766,9.736,9.6988,9.6582,9.6176,9.577,9.5466,9.4924,9.418,9.3842,9.3267,9.2624,9.2895,9.303,9.3064,9.3431,9.3601,9.3533,9.2421,9.1643,9.1237,8.9106,8.7279,8.5817,8.3625,8.196,8.0818,7.9919,7.9201,7.8685,7.8995,7.9176,7.9131,8.0636,8.1753,8.2432,8.4181,8.5635,8.6688,8.8482,9.0161,9.1486,9.4026,9.6332,9.8235,9.866,9.8554,9.8062,9.7408,9.7481,9.8489,9.8664,9.9464,10.1279,10.1792,10.2383,10.3235,10.3696,10.4063,10.4504,10.4813,10.5275,10.5752,10.6119,10.6376,10.6376,10.6376,10.6376,10.6376,10.6376,10.6376,10.6376,10.5752,10.5238,10.5275,10.5568,10.5789,10.5825,10.6082,10.6339,10.6376,10.6376,10.6376,10.6376,10.6376,10.6559,10.7021,10.838,10.9239,10.9312,11.1184,11.2359,11.2616,11.357,11.4525,11.4745,11.5332,11.5516,9.7697,9.8995,9.976,10.0513,10.1153,10.1178,10.1365,10.1589,10.098,10.0711,10.0677,10.0373,10.017,10.017,10.017,10.017,10.0102,9.9627,9.9051,9.8476,9.7732,9.7056,9.6514,9.6244,9.5736,9.5229,9.5026,9.4654,9.4142,9.3909,9.377,9.3634,9.3601,9.3601,9.3601,9.2083,9.1305,9.1169,8.9106,8.7414,8.6325,8.464,8.3212,8.2266,8.2055,8.1691,8.1022,8.2123,8.2674,8.2578,8.4725,8.6325,8.7059,8.8771,9.0198,9.1272,9.2879,9.4393,9.5794,9.7848,9.9492,10.0282,10.0643,10.109,10.1567,10.0692,10.0078,10.0538,10.0916,10.1621,10.2685,10.3125,10.3513,10.41,10.4357,10.4761,10.529,10.5422,10.5642,10.6266,10.6376,10.6376,10.6376,10.6376,10.6376,10.6376,10.6376,10.6376,10.6376,10.6376,10.6376,10.6376,10.6376,10.6339,10.6376,10.6376,10.6376,10.6376,10.6376,10.6376,10.6376,10.6376,10.6581,10.7205,10.8101,10.8945,10.9643,11.0597,11.1221,11.1478,11.2322,11.313,11.374,11.4965,11.5259,9.9619,10.0205,10.0985,10.1651,10.2308,10.2304,10.2334,10.2367,10.2333,10.2299,10.2096,10.0813,10.0238,10.017,10.0238,10.0272,10.0272,10.0136,10.0035,9.9899,9.9254,9.8848,9.8578,9.7424,9.6781,9.6578,9.6007,9.5635,9.5432,9.4857,9.4248,9.3702,9.3601,9.3601,9.3431,9.2083,9.1305,9.1271,8.914,8.7922,8.7685,8.5655,8.4577,8.4731,8.3688,8.3345,8.4031,8.5227,8.6159,8.6922,8.9392,9.1173,9.1836,9.3621,9.5135,9.6069,9.6749,9.7931,9.9523,10.0023,10.05,10.129,10.2024,10.2485,10.2632,10.3089,10.3105,10.2701,10.3125,10.3476,10.3806,10.4394,10.4798,10.4981,10.5605,10.6192,10.6192,10.6266,10.6302,10.6339,10.6376,10.6376,10.6376,10.6376,10.6376,10.6376,10.6376,10.6376,10.6376,10.6376,10.6376,10.6376,10.6376,10.6376,10.6376,10.6376,10.6339,10.6339,10.6376,10.6339,10.6339,10.6376,10.6449,10.6764,10.7661,10.8578,10.9055,11.0047,11.0928,11.056,11.1074,11.1845,11.3277,11.4745,11.4988,10.2039,10.2625,10.2927,10.3091,10.3078,10.2705,10.2536,10.2536,10.2536,10.2536,10.2468,10.1793,10.1589,10.1557,10.1523,10.1589,10.1521,10.1115,10.0912,10.0844,10.01,9.9525,9.9051,9.851,9.7766,9.6951,9.6582,9.621,9.5736,9.506,9.4552,9.4214,9.3842,9.3601,9.3503,9.2489,9.1947,9.1913,9.0799,9.0233,8.9928,8.7593,8.6329,8.6579,8.6568,8.6929,8.7743,8.8686,8.9572,9.0365,9.2583,9.4012,9.4363,9.6302,9.7588,9.8055,9.8756,9.9726,10.0943,10.142,10.1861,10.2191,10.2962,10.3403,10.3439,10.4137,10.4446,10.421,10.4027,10.4063,10.4541,10.4923,10.529,10.5789,10.6192,10.6376,10.6376,10.6376,10.6376,10.6376,10.6376,10.6376,10.6376,10.6376,10.6376,10.6376,10.6376,10.6376,10.6376,10.6376,10.6376,10.6376,10.6376,10.6376,10.6339,10.5935,10.5935,10.6156,10.5935,10.5715,10.6266,10.6376,10.6376,10.6376,10.7037,10.744,10.733,10.7734,10.8358,10.8615,10.9569,11.0487,11.3057,11.4107,11.4144,10.3933,10.4303,10.4336,10.4132,10.3855,10.3111,10.2806,10.2773,10.2603,10.2536,10.2536,10.2536,10.2536,10.2536,10.2536,10.2536,10.2434,10.1927,10.169,10.1589,10.0878,10.0235,9.9728,9.9491,9.8747,9.7664,9.7526,9.7022,9.6108,9.5364,9.4924,9.462,9.3943,9.3601,9.3503,9.2793,9.245,9.2464,9.2107,9.1959,9.1848,9.0248,8.9175,8.9075,8.9551,9.0213,9.1046,9.1836,9.2651,9.3487,9.5332,9.6629,9.721,9.8688,9.9622,9.9879,10.0533,10.131,10.2081,10.2705,10.3036,10.3109,10.377,10.4247,10.4357,10.4981,10.5422,10.5385,10.4908,10.4908,10.5311,10.5437,10.5752,10.6302,10.6376,10.6376,10.6376,10.6376,10.6376,10.6376,10.6376,10.6376,10.6376,10.6376,10.6376,10.6376,10.6376,10.6376,10.6376,10.6376,10.6376,10.6376,10.6376,10.6266,10.6046,10.5605,10.5495,10.5422,10.5201,10.5385,10.6009,10.6119,10.6376,10.6376,10.6376,10.6449,10.6706,10.6596,10.6559,10.6743,10.7734,10.9606,11.2176,11.3079,11.3703,10.501,10.4702,10.4667,10.4701,10.4598,10.3855,10.3551,10.3517,10.2874,10.257,10.2637,10.2603,10.2536,10.257,10.257,10.2536,10.2502,10.2434,10.2401,10.2333,10.1656,10.1318,10.1248,10.054,9.9762,9.895,9.8781,9.8138,9.6853,9.6108,9.5398,9.4755,9.4079,9.3668,9.3605,9.303,9.26,9.3053,9.2781,9.2591,9.3158,9.3721,9.339,9.2452,9.2255,9.2621,9.3436,9.4355,9.5288,9.634,9.7745,9.9261,10.0692,10.1132,10.1694,10.2355,10.2501,10.2925,10.3549,10.377,10.3843,10.3953,10.4614,10.5034,10.5128,10.5752,10.6192,10.6266,10.6119,10.6156,10.6192,10.6192,10.6229,10.6376,10.6413,10.6449,10.6449,10.6596,10.6413,10.6486,10.6523,10.6486,10.6413,10.6376,10.6376,10.6376,10.6376,10.6449,10.6523,10.6449,10.6486,10.6486,10.6376,10.6119,10.5385,10.518,10.4834,10.4908,10.5275,10.5201,10.5422,10.5715,10.6119,10.6376,10.6376,10.6376,10.6376,10.6376,10.6413,10.6743,10.7514,10.9312,11.0928,11.2543,11.313,10.6697,10.6054,10.558,10.5411,10.531,10.4599,10.4295,10.4261,10.4024,10.3889,10.3889,10.3889,10.3652,10.3212,10.3212,10.2942,10.2536,10.2536,10.2536,10.2468,10.2231,10.1859,10.1418,10.1081,10.0574,9.9829,9.9322,9.8578,9.7631,9.6853,9.6379,9.6041,9.5364,9.4992,9.4988,9.4959,9.5059,9.5341,9.5696,9.5904,9.5916,9.7254,9.7698,9.6851,9.5576,9.5247,9.6015,9.6538,9.7156,9.7969,9.9001,10.0115,10.1299,10.2444,10.3146,10.3403,10.3476,10.3586,10.3917,10.4394,10.4687,10.4724,10.5458,10.5899,10.5972,10.6229,10.6376,10.6376,10.6376,10.6376,10.6376,10.6376,10.6376,10.6449,10.6874,10.7131,10.7278,10.7587,10.7918,10.7881,10.7514,10.6984,10.6523,10.6376,10.6376,10.6449,10.6816,10.7058,10.7131,10.7168,10.7095,10.7058,10.6727,10.6082,10.5217,10.5107,10.507,10.5311,10.5568,10.5605,10.5752,10.5972,10.6376,10.6376,10.6376,10.6376,10.6376,10.6376,10.6376,10.6523,10.7367,10.8138,10.9349,11.1038,11.1698,10.7712,10.717,10.646,10.6156,10.6054,10.5344,10.5039,10.5005,10.4835,10.4734,10.4734,10.4734,10.4429,10.399,10.3989,10.3551,10.2874,10.2637,10.2536,10.2536,10.2536,10.2231,10.1825,10.1758,10.1352,10.054,9.9559,9.8815,9.8307,9.736,9.6886,9.6819,9.6263,9.595,9.6044,9.6367,9.6779,9.7236,9.8021,9.8367,9.8543,9.9962,10.0704,10.0291,9.9188,9.8659,9.9053,9.9208,9.9593,10.0285,10.0701,10.1315,10.2301,10.3549,10.4284,10.4284,10.4284,10.443,10.4724,10.5238,10.5532,10.5532,10.6009,10.6376,10.6376,10.6376,10.6376,10.6376,10.6376,10.647,10.6727,10.6801,10.6801,10.6838,10.7278,10.7719,10.7954,10.8468,10.8578,10.8248,10.7829,10.7241,10.6596,10.6413,10.6376,10.6376,10.689,10.7168,10.7241,10.7205,10.7205,10.7168,10.6727,10.6229,10.5789,10.5678,10.5018,10.5128,10.5532,10.5715,10.5935,10.6192,10.6376,10.6376,10.6376,10.6376,10.6376,10.6376,10.6376,10.6376,10.667,10.7367,10.8505,10.9606,11.0304,10.8016,10.7881,10.7204,10.6866,10.6697,10.6088,10.5817,10.5716,10.514,10.4971,10.5038,10.4869,10.4869,10.4734,10.4701,10.4295,10.3585,10.2942,10.257,10.2536,10.2536,10.2502,10.2434,10.2401,10.1995,10.1248,9.9829,9.9119,9.8916,9.776,9.7049,9.691,9.6767,9.6674,9.641,9.7217,9.7723,9.8368,9.9187,9.9839,10.0618,10.1617,10.224,10.2429,10.2745,10.2775,10.2442,10.2286,10.2443,10.3149,10.2876,10.3052,10.388,10.4871,10.5217,10.5327,10.5217,10.5605,10.6266,10.6449,10.6523,10.6523,10.6486,10.6544,10.6581,10.6449,10.6376,10.6376,10.6413,10.667,10.7352,10.7498,10.7535,10.7609,10.7792,10.8196,10.8652,10.8835,10.8542,10.8049,10.7829,10.7315,10.6691,10.6434,10.6376,10.6413,10.6559,10.6706,10.6801,10.6801,10.6559,10.6523,10.6507,10.6266,10.6302,10.6266,10.5311,10.4687,10.5201,10.5532,10.5789,10.6046,10.6339,10.6376,10.6376,10.6376,10.6376,10.6376,10.6376,10.6413,10.6596,10.678,10.7697,10.8725,10.9423,10.8963,10.8016,10.7779,10.734,10.69,10.6629,10.6561,10.6528,10.6291,10.6189,10.6189,10.6189,10.5953,10.5547,10.5445,10.5039,10.4329,10.3585,10.3009,10.2603,10.2536,10.2536,10.2536,10.2536,10.213,10.1318,10.0371,9.9593,9.908,9.8384,9.8031,9.8055,9.8335,9.8519,9.8714,9.9524,10.0223,10.0788,10.1608,10.2135,10.2298,10.3397,10.3896,10.3732,10.4612,10.5056,10.4874,10.3842,10.3447,10.3829,10.3618,10.4137,10.5532,10.6926,10.7624,10.7661,10.7661,10.7734,10.7954,10.8028,10.7991,10.7954,10.7572,10.7278,10.7131,10.6743,10.6486,10.6413,10.6413,10.6706,10.7388,10.7609,10.7902,10.8395,10.893,10.9261,10.9606,11.0047,11.0047,10.9349,10.8762,10.8123,10.7352,10.6838,10.6376,10.6449,10.678,10.7095,10.7168,10.7058,10.7241,10.7205,10.6874,10.6376,10.6376,10.6376,10.5899,10.5348,10.5568,10.5715,10.5899,10.6009,10.6266,10.6376,10.6376,10.6376,10.6376,10.6376,10.6376,10.6376,10.6449,10.678,10.7147,10.7771,10.8505,10.9741,10.8828,10.8557,10.8185,10.7712,10.7441,10.7306,10.7272,10.7001,10.69,10.6934,10.7204,10.69,10.6392,10.6494,10.602,10.5141,10.4599,10.4024,10.328,10.2671,10.2536,10.2536,10.2536,10.2299,10.1758,10.1014,10.0468,10.0151,9.9747,9.9614,9.9912,10.0172,10.0517,10.0848,10.1419,10.1928,10.2533,10.3298,10.3699,10.3866,10.4749,10.5148,10.5006,10.5698,10.6105,10.6053,10.5159,10.4834,10.5254,10.5553,10.6266,10.7294,10.8211,10.8799,10.8799,10.8799,10.8762,10.8799,10.8725,10.8799,10.8688,10.8321,10.8049,10.7954,10.7477,10.7294,10.7294,10.733,10.7587,10.8343,10.849,10.8835,10.9606,10.979,11.0179,11.0414,11.0891,11.0781,11.001,10.9239,10.8526,10.7719,10.6948,10.6413,10.6486,10.6838,10.7168,10.7168,10.7095,10.7168,10.7095,10.6727,10.6413,10.6376,10.6376,10.6376,10.6229,10.6192,10.6192,10.6229,10.6229,10.6376,10.6376,10.6376,10.6376,10.6376,10.6376,10.6376,10.6376,10.6376,10.6559,10.6853,10.711,10.7587,11.035,11.0215,10.9538,10.9201,10.8997,10.8354,10.8084,10.7982,10.7441,10.717,10.7272,10.7847,10.7745,10.7306,10.7745,10.7272,10.6122,10.5817,10.5344,10.4464,10.3483,10.2874,10.2874,10.2773,10.267,10.2533,10.1788,10.1538,10.1709,10.1363,10.1557,10.1908,10.2022,10.2267,10.2608,10.267,10.2949,10.3459,10.4144,10.4619,10.4907,10.5567,10.5939,10.5946,10.6212,10.6355,10.6318,10.6428,10.6816,10.7535,10.8064,10.8542,10.8799,10.8909,10.9092,10.9166,10.8982,10.9092,10.9019,10.9202,10.9166,10.9166,10.9019,10.8872,10.8835,10.8615,10.8468,10.8505,10.8578,10.8945,10.9606,10.979,11.0193,11.0891,11.0524,11.0524,11.1074,11.1184,11.0891,11.0193,10.9349,10.8542,10.7829,10.7021,10.6486,10.6376,10.6507,10.6523,10.6523,10.6596,10.6449,10.6413,10.6449,10.6413,10.6376,10.6376,10.6376,10.6376,10.6376,10.6376,10.6376,10.6376,10.6376,10.6376,10.6376,10.6376,10.6376,10.6376,10.6376,10.6376,10.6376,10.6376,10.6523,10.678,10.6874,11.079,11.0316,11.008,10.9674,10.92,10.8964,10.8862,10.8828,10.8659,10.849,10.8625,10.876,10.8761,10.8659,10.8727,10.8321,10.7407,10.6798,10.6223,10.5445,10.4599,10.4126,10.3957,10.3517,10.341,10.3466,10.2443,10.2047,10.2501,10.2459,10.2548,10.285,10.3727,10.3959,10.3816,10.4272,10.4465,10.4515,10.4841,10.529,10.5633,10.5867,10.6084,10.6291,10.6355,10.6376,10.6523,10.7551,10.7881,10.7682,10.8967,10.9643,10.9716,11.0157,11.0414,11.0414,11.0487,11.0524,11.0524,11.0487,11.056,11.0524,10.9973,10.9701,10.9665,10.9129,10.8872,10.8799,10.8799,10.9166,10.9826,11.0083,11.045,11.1001,11.1111,11.1038,11.1148,11.1221,11.1111,11.0817,10.9679,10.8872,10.8321,10.7425,10.6559,10.6486,10.6449,10.6376,10.6413,10.6376,10.6376,10.6376,10.6413,10.6376,10.6376,10.6376,10.6376,10.6376,10.6376,10.6376,10.6376,10.6376,10.6376,10.6376,10.6376,10.6376,10.6376,10.6376,10.6376,10.6376,10.6376,10.6376,10.6376,10.6523,10.6559,11.1128,11.079,11.0756,11.0519,11.0114,10.9775,10.964,10.9572,10.9336,10.9201,10.9268,10.9538,10.9471,10.9234,10.9201,10.8727,10.7948,10.7238,10.6663,10.6291,10.5817,10.5309,10.47,10.4053,10.3974,10.4158,10.3257,10.3237,10.3767,10.3915,10.4319,10.501,10.5464,10.5681,10.5827,10.5472,10.5548,10.5523,10.553,10.5625,10.5939,10.6105,10.6249,10.6376,10.6376,10.6486,10.7021,10.8431,10.9055,10.8967,10.9811,11.0487,11.0524,11.0928,11.1221,11.1221,11.1221,11.1184,11.1221,11.1221,11.1221,11.1148,11.0707,11.056,11.045,11.0047,10.9826,10.9863,10.9826,11.0193,11.0854,11.1258,11.1698,11.2176,11.2212,11.1955,11.1331,11.1221,11.1221,11.0928,11.0157,10.9312,10.9276,10.8138,10.7367,10.7037,10.6984,10.6764,10.6507,10.6413,10.6376,10.6376,10.6413,10.6413,10.6413,10.6413,10.6376,10.6376,10.6376,10.6376,10.6376,10.6376,10.6376,10.6376,10.6376,10.6376,10.6376,10.6376,10.6376,10.6376,10.6376,10.6376,10.6376,10.6376,10.6376,11.1399,11.1399,11.1399,11.1399,11.123,11.0722,11.0418,11.0283,10.9809,10.9573,10.9708,11.0147,11.0114,10.9438,10.9505,10.893,10.8151,10.7475,10.7102,10.6966,10.6863,10.6488,10.5536,10.4716,10.4663,10.4804,10.4328,10.4578,10.5175,10.5673,10.6506,10.708,10.7182,10.7437,10.7445,10.6739,10.6362,10.6502,10.636,10.6349,10.6611,10.682,10.6942,10.6963,10.6926,10.7294,10.8086,10.9187,10.9922,11.0083,11.0817,11.1074,11.1148,11.1184,11.1221,11.1221,11.1221,11.1221,11.1221,11.1221,11.1221,11.1184,11.1295,11.1331,11.1331,11.1331,11.1441,11.1478,11.1441,11.1772,11.2322,11.313,11.3373,11.3387,11.3483,11.2946,11.1882,11.1405,11.1295,11.1148,11.0487,11.0047,10.9753,10.9261,10.8395,10.7734,10.7572,10.7168,10.6911,10.6874,10.6633,10.6376,10.6413,10.6449,10.6507,10.6507,10.6413,10.6376,10.6376,10.6376,10.6376,10.6376,10.6376,10.6376,10.6376,10.6376,10.6376,10.6376,10.6376,10.6376,10.6376,10.6376,10.6376,10.6376,10.6376,11.1399,11.1399,11.1399,11.1399,11.1365,11.123,11.1128,11.1128,11.0959,11.079,11.0925,11.1061,11.0993,11.0825,11.0114,10.964,10.8794,10.8084,10.761,10.7368,10.7928,10.8021,10.7302,10.6178,10.5755,10.591,10.5351,10.5529,10.6296,10.6945,10.7569,10.8166,10.8486,10.8563,10.8111,10.8111,10.7992,10.7781,10.7701,10.7776,10.795,10.8058,10.8138,10.8138,10.8211,10.8652,10.9334,10.9826,11.0267,11.0817,11.1111,11.1295,11.1221,11.1258,11.1295,11.1331,11.1295,11.1295,11.1258,11.1368,11.1258,11.1405,11.1845,11.2139,11.2176,11.2689,11.2946,11.3057,11.3116,11.3057,11.335,11.4084,11.4231,11.4048,11.4194,11.4158,11.324,11.2469,11.1882,11.1258,11.056,11.001,10.9936,10.893,10.8416,10.8358,10.8101,10.7609,10.7462,10.7352,10.7147,10.6926,10.6926,10.7037,10.7147,10.7058,10.6764,10.6559,10.6486,10.6376,10.6376,10.6376,10.6376,10.6376,10.6376,10.6376,10.6376,10.6376,10.6376,10.6376,10.6376,10.6376,10.6376,10.6376,10.6376,11.1399,11.1399,11.1399,11.1399,11.1399,11.1399,11.1399,11.1399,11.1399,11.1399,11.1298,11.1061,11.0892,11.0756,10.9775,10.9132,10.9134,10.8762,10.8519,10.8472,10.8685,10.8859,10.8967,10.8034,10.7458,10.7302,10.6373,10.6507,10.7245,10.7818,10.829,10.8838,10.9226,10.9195,10.8968,10.9024,10.8796,10.8678,10.8492,10.8544,10.8755,10.8799,10.8799,10.8909,10.9129,10.9628,10.9922,11.0377,11.0744,11.1184,11.1552,11.1588,11.1368,11.1552,11.1735,11.1808,11.2176,11.2286,11.2322,11.2322,11.2359,11.2286,11.2726,11.2873,11.2983,11.3409,11.3556,11.3593,11.3593,11.3717,11.4158,11.4892,11.5002,11.4929,11.5075,11.5002,11.4194,11.313,11.2286,11.1698,11.1111,11.0744,11.0157,10.9276,10.9114,10.9386,10.9239,10.8783,10.8211,10.8138,10.8028,10.7881,10.7734,10.7734,10.7881,10.7682,10.7168,10.6911,10.6691,10.6544,10.6376,10.6376,10.6376,10.6376,10.6376,10.6376,10.6376,10.6376,10.6376,10.6376,10.6376,10.6376,10.6413,10.6523,10.6486,11.1501,11.1399,11.1534,11.1501,11.1399,11.1399,11.1399,11.1399,11.1399,11.1298,11.1128,11.0553,11.035,10.9877,10.8998,10.8829,10.9237,10.9332,10.9346,10.9728,10.9608,10.9826,11.0008,10.9737,10.9336,10.8627,10.7894,10.794,10.8376,10.8829,10.9511,10.9758,10.9796,11.015,11.0259,10.994,10.9968,11.0225,10.9957,10.9797,10.9878,10.99,10.9863,10.979,11.0157,11.0487,11.0707,11.1074,11.1478,11.1588,11.2212,11.2139,11.1955,11.2139,11.2579,11.2579,11.3116,11.3299,11.3299,11.3409,11.3446,11.3593,11.374,11.3776,11.3791,11.4033,11.4217,11.4144,11.4217,11.4415,11.4965,11.5479,11.5883,11.5883,11.592,11.5663,11.4929,11.3644,11.2946,11.2249,11.1772,11.1405,11.1038,11.045,11.0414,11.0325,11.0142,10.9848,10.9276,10.8909,10.8799,10.8505,10.8285,10.8211,10.8321,10.8688,10.8159,10.7645,10.7241,10.7073,10.689,10.7147,10.722,10.6486,10.6376,10.6449,10.6449,10.6376,10.6376,10.6434,10.6617,10.6838,10.6838,10.6727,10.6764,11.194,11.1433,11.2042,11.1974,11.1433,11.1399,11.1399,11.1399,11.1399,11.1061,11.0553,11.0316,10.9911,10.954,10.9542,10.9812,11.0344,11.0423,11.0488,11.0939,11.0948,11.1186,11.131,11.1249,11.1134,11.1087,11.0321,10.9892,10.9968,11.0675,11.0948,11.1501,11.1478,11.1674,11.1868,11.2083,11.194,11.2131,11.2143,11.2204,11.2286,11.2286,11.2065,11.1625,11.1772,11.1845,11.1919,11.2102,11.2506,11.3093,11.3336,11.3299,11.3203,11.3336,11.3446,11.3483,11.3703,11.3923,11.3887,11.374,11.363,11.374,11.4231,11.4561,11.4745,11.5112,11.5259,11.5369,11.5406,11.5589,11.5736,11.592,11.5956,11.5993,11.5993,11.592,11.5589,11.4892,11.3791,11.291,11.2432,11.1955,11.1588,11.1221,11.0928,11.0671,11.045,11.0304,10.9973,10.9679,10.9533,10.9166,10.8725,10.8688,10.8725,10.9239,10.9276,10.8688,10.8321,10.8175,10.8138,10.8358,10.8138,10.7367,10.6816,10.6743,10.667,10.6633,10.6706,10.6963,10.7168,10.7388,10.7462,10.7514,10.7682,11.1703,11.1433,11.1771,11.1737,11.1433,11.1399,11.1399,11.1399,11.1399,11.1196,11.0722,11.0114,10.9913,10.9848,10.9473,11.0307,11.1734,11.2146,11.232,11.2625,11.2568,11.2474,11.2553,11.25,11.2429,11.2451,11.2262,11.1713,11.1049,11.1518,11.2043,11.2095,11.2218,11.2437,11.2642,11.2793,11.3196,11.3426,11.3562,11.363,11.363,11.363,11.335,11.3167,11.302,11.302,11.302,11.302,11.3167,11.3593,11.3974,11.4158,11.4341,11.4561,11.4658,11.4378,11.4561,11.4804,11.4841,11.4818,11.4892,11.4892,11.5222,11.5406,11.5479,11.5736,11.5993,11.5993,11.5993,11.5993,11.5956,11.5993,11.5993,11.5993,11.5993,11.5993,11.592,11.5626,11.4745,11.3681,11.3313,11.28,11.2029,11.1662,11.1331,11.1074,11.0854,11.0781,11.0707,11.0634,11.056,11.023,10.99,10.979,10.9679,10.979,11.012,10.9643,10.9239,10.9129,10.9019,10.9055,10.8725,10.8101,10.7697,10.7624,10.7661,10.7881,10.7697,10.7551,10.7918,10.8211,10.8285,10.8395,10.8542,11.1873,11.1636,11.1771,11.167,11.1399,11.1399,11.1399,11.1399,11.1399,11.1264,11.0993,11.0116,11.0017,11.0426,11.065,11.146,11.3847,11.4119,11.4225,11.446,11.4206,11.3938,11.3898,11.3708,11.3703,11.3763,11.367,11.3458,11.2363,11.255,11.2638,11.2931,11.2958,11.3091,11.3486,11.3821,11.3842,11.398,11.4048,11.4084,11.4107,11.4107,11.3974,11.3827,11.385,11.3827,11.3827,11.3827,11.4158,11.4561,11.5002,11.5406,11.5589,11.5956,11.592,11.5516,11.581,11.592,11.5956,11.5883,11.5736,11.5736,11.592,11.5956,11.5956,11.592,11.5993,11.5993,11.5993,11.5993,11.5993,11.5993,11.5993,11.5993,11.5993,11.5993,11.5993,11.5846,11.5663,11.4892,11.4401,11.3703,11.2954,11.2579,11.2322,11.2249,11.2065,11.2029,11.1955,11.1919,11.1772,11.1478,11.1258,11.1111,11.0854,11.0377,11.056,11.0377,11.0047,10.99,10.9679,10.9533,10.9276,10.9261,10.9312,10.9276,10.9202,10.8835,10.8431,10.8358,10.8799,10.9019,10.9092,10.9312,10.9533,11.353,11.2449,11.3023,11.2617,11.1467,11.1399,11.1399,11.1433,11.1467,11.0993,11.086,11.0629,11.0562,11.0959,11.2414,11.3913,11.513,11.5429,11.5591,11.6031,11.5789,11.5656,11.5849,11.5594,11.5171,11.4927,11.4663,11.4,11.336,11.3736,11.4212,11.4338,11.4352,11.4729,11.4844,11.4948,11.5468,11.564,11.5626,11.5589,11.5589,11.5553,11.5185,11.4818,11.4672,11.4745,11.4782,11.4855,11.5296,11.6544,11.6764,11.7241,11.7718,11.7314,11.7131,11.6764,11.6434,11.5993,11.5993,11.5993,11.5993,11.5993,11.5993,11.5993,11.5993,11.5993,11.5993,11.5993,11.5993,11.5993,11.5993,11.5993,11.5993,11.5993,11.5993,11.5993,11.5993,11.6016,11.5832,11.5864,11.5299,11.4615,11.3917,11.3652,11.3409,11.3373,11.3299,11.3203,11.3057,11.2873,11.2726,11.2396,11.2212,11.2102,11.2029,11.1552,11.1368,11.1258,11.1074,11.0891,11.0876,11.0839,11.0788,11.0788,11.0788,11.0391,10.9868,10.9405,10.8989,10.9166,10.9606,10.979,10.9863,11.012,11.0377,11.4207,11.2551,11.282,11.238,11.1433,11.1399,11.1636,11.194,11.2008,11.2217,11.2291,11.1856,11.2122,11.3131,11.4838,11.6222,11.7136,11.694,11.6873,11.7139,11.7004,11.683,11.6632,11.6462,11.6224,11.5753,11.5318,11.4786,11.4402,11.4443,11.481,11.497,11.5202,11.5273,11.5814,11.5821,11.5841,11.5933,11.5956,11.5993,11.5993,11.5956,11.581,11.5479,11.5442,11.5663,11.5993,11.6153,11.669,11.7718,11.7902,11.8012,11.8269,11.8012,11.7695,11.7144,11.6911,11.6507,11.6103,11.603,11.5993,11.5993,11.5993,11.5993,11.5993,11.603,11.603,11.5993,11.5993,11.603,11.603,11.5993,11.5993,11.5993,11.6039,11.6062,11.6062,11.6016,11.6002,11.6108,11.6222,11.5686,11.5179,11.4906,11.4411,11.3895,11.3799,11.3689,11.3556,11.3373,11.3263,11.313,11.3042,11.3006,11.2969,11.2726,11.2675,11.2565,11.2602,11.2455,11.244,11.2426,11.2228,11.1932,11.1724,11.1208,11.0582,11.0315,11.0222,11.0325,11.045,11.056,11.0634,11.0671,11.0854,11.4613,11.2786,11.2752,11.2245,11.1434,11.1504,11.1981,11.259,11.2836,11.3522,11.4074,11.3733,11.4272,11.5511,11.6626,11.7467,11.8418,11.8227,11.8102,11.7994,11.7963,11.7825,11.7594,11.7346,11.6938,11.6285,11.6141,11.5768,11.5557,11.5489,11.5662,11.5396,11.6125,11.6315,11.642,11.6574,11.6727,11.6397,11.6397,11.625,11.603,11.5993,11.5993,11.5956,11.6066,11.636,11.7058,11.7108,11.7535,11.8526,11.8709,11.8819,11.9113,11.8893,11.8526,11.8049,11.7755,11.7314,11.6764,11.6397,11.6103,11.5993,11.603,11.6103,11.636,11.6287,11.6507,11.6764,11.6764,11.6617,11.636,11.6323,11.6282,11.6232,11.6131,11.6176,11.6244,11.6343,11.6477,11.669,11.6873,11.7058,11.6571,11.6211,11.5555,11.4632,11.4285,11.4248,11.4211,11.4183,11.4064,11.4064,11.3932,11.3822,11.3505,11.3542,11.3615,11.383,11.3852,11.3727,11.3537,11.3477,11.334,11.3056,11.2908,11.2954,11.2893,11.219,11.153,11.1331,11.1221,11.1317,11.1405,11.1368,11.1405,11.4917,11.353,11.3496,11.2686,11.1469,11.1749,11.2364,11.3183,11.3769,11.4521,11.5375,11.5713,11.6355,11.6978,11.7419,11.7961,11.8424,11.8616,11.8714,11.8927,11.9059,11.8851,11.8578,11.8216,11.789,11.7662,11.7206,11.6972,11.704,11.7072,11.6904,11.6576,11.7195,11.7813,11.7931,11.7768,11.7535,11.7204,11.7021,11.6617,11.625,11.603,11.5993,11.603,11.6066,11.6397,11.7144,11.7365,11.8085,11.9443,11.9517,11.9774,12.0067,11.9774,11.937,11.9003,11.8563,11.8195,11.7755,11.6947,11.6177,11.603,11.6103,11.636,11.6617,11.6984,11.7388,11.7755,11.7645,11.7631,11.7338,11.7081,11.7036,11.7006,11.6993,11.6949,11.7006,11.6936,11.7085,11.727,11.7561,11.7862,11.8259,11.7953,11.7226,11.6306,11.571,11.5636,11.5606,11.5547,11.5288,11.5132,11.494,11.4587,11.3962,11.4066,11.4634,11.4795,11.4817,11.4596,11.4338,11.4317,11.4631,11.4782,11.4776,11.5002,11.5057,11.4177,11.3287,11.2341,11.2014,11.2367,11.2176,11.1963,11.2088,11.3942,11.3275,11.3452,11.284,11.1749,11.2334,11.3118,11.4075,11.5027,11.5969,11.6902,11.7931,11.8316,11.8224,11.8576,11.8952,11.9256,11.9083,11.917,11.9177,11.9194,11.923,11.9049,11.8976,11.8578,11.8231,11.7926,11.7556,11.7308,11.8217,11.8462,11.8401,11.8387,11.8237,11.8355,11.8563,11.8269,11.7938,11.7475,11.7021,11.6764,11.6213,11.5993,11.5993,11.6617,11.7131,11.7902,11.8452,11.9297,12.0031,12.0288,12.0581,12.0802,12.0471,12.0104,11.9737,11.9297,11.9003,11.8563,11.7792,11.7314,11.6801,11.6764,11.6727,11.6801,11.6947,11.7218,11.7682,11.8292,11.8413,11.8318,11.8217,11.8184,11.8153,11.8105,11.7986,11.7946,11.7968,11.798,11.8311,11.8645,11.8942,11.9395,11.9791,11.8896,11.8044,11.7472,11.6973,11.6828,11.6763,11.6445,11.6239,11.6091,11.6113,11.5543,11.5638,11.5829,11.5835,11.5804,11.5799,11.574,11.591,11.6194,11.6386,11.6537,11.6515,11.6329,11.5881,11.5024,11.3906,11.3589,11.3709,11.3329,11.2713,11.2808,11.3583,11.3391,11.3803,11.3392,11.2538,11.3142,11.4085,11.5173,11.6487,11.7679,11.8733,11.9453,11.9425,11.9047,11.9059,11.94,11.9454,11.9351,11.9394,11.9493,11.9628,11.9701,11.9845,11.9872,11.9717,11.9097,11.8998,11.8897,11.8555,11.9279,11.9535,11.9534,11.9385,11.9273,11.926,11.915,11.904,11.8636,11.8306,11.7695,11.7535,11.7094,11.6801,11.6874,11.7314,11.7938,11.8599,11.9187,11.9847,12.0471,12.0838,12.0875,12.0912,12.0838,12.0545,12.0214,11.9921,11.9664,11.926,11.8526,11.8195,11.7645,11.7218,11.7021,11.6947,11.7241,11.7778,11.8336,11.8887,11.9261,11.9412,11.946,11.9481,11.9502,11.9458,11.9386,11.9349,11.9331,11.9291,11.9398,11.9776,12.0226,12.1148,12.1524,12.0439,11.9426,11.8499,11.7859,11.7446,11.7367,11.7388,11.7276,11.7297,11.7355,11.7433,11.7135,11.6912,11.6966,11.7047,11.7397,11.7465,11.7625,11.7842,11.8108,11.8161,11.7962,11.8042,11.8198,11.6946,11.5384,11.5042,11.4667,11.4373,11.3831,11.3705,11.4109,11.4177,11.4775,11.4457,11.3702,11.4185,11.5082,11.6152,11.7829,11.9264,12.0149,11.967,11.931,11.925,11.904,11.9129,11.9315,11.9322,11.9602,12.0073,12.0353,12.0787,12.1077,12.114,12.0712,12.0767,12.0486,12.0243,12.0157,12.0218,12.0474,12.0632,12.0447,12.0471,12.0765,12.0802,12.0361,11.9664,11.948,11.893,11.8452,11.8159,11.7975,11.7975,11.8232,11.8746,11.9223,11.9664,12.0251,12.0765,12.0912,12.0912,12.0912,12.0912,12.0802,12.0765,12.0765,12.0765,12.0691,11.9297,11.8673,11.8379,11.8012,11.7718,11.8122,11.8439,11.8703,11.9293,12.033,12.0766,12.0874,12.0839,12.0895,12.1065,12.1094,12.102,12.1,12.08,12.0804,12.0929,12.1233,12.1694,12.2783,12.3182,12.1956,12.0831,11.9683,11.8946,11.8502,11.843,11.8637,11.8356,11.8393,11.8393,11.8412,11.8129,11.7977,11.8032,11.8224,11.8542,11.8944,11.916,11.9424,11.9796,11.9961,11.99,12.037,12.0819,11.904,11.7238,11.5892,11.5352,11.5138,11.5046,11.4899,11.4059,11.4693,11.5359,11.5807,11.6021,11.587,11.6167,11.6905,11.8409,11.9555,11.9896,11.9665,11.9363,11.9157,11.9129,11.9124,11.925,11.9918,12.029,12.0435,12.0932,12.1258,12.1611,12.171,12.1408,12.1001,12.0891,12.0916,12.0413,12.0633,12.0755,12.0912,12.0912,12.0912,12.0875,12.0912,12.0655,12.0361,11.9921,11.9407,11.915,11.8746,11.8489,11.8526,11.8966,11.937,11.97,12.0067,12.0545,12.0875,12.0912,12.0912,12.0912,12.0912,12.0912,12.0912,12.0912,12.0912,12.0875,12.0214,11.9811,11.9333,11.8893,11.8563,11.8489,11.9131,11.9648,12.0338,12.1296,12.1745,12.2225,12.2458,12.2652,12.3195,12.3229,12.3064,12.2917,12.2603,12.2435,12.2664,12.2914,12.3562,12.447,12.4661,12.3681,12.3053,12.2092,12.1018,12.0464,12.0321,12.0344,11.9738,11.9511,11.9445,11.9346,11.9503,11.9544,11.9593,11.9589,11.9592,12.0036,12.06,12.0645,12.076,12.1379,12.1954,12.1799,12.1473,12.052,11.9109,11.8096,11.6924,11.6533,11.6312,11.6056,11.4438,11.55,11.6166,11.685,11.7433,11.7153,11.7347,11.8025,11.8944,11.9426,11.9752,11.9797,11.9444,11.9127,11.9124,11.9457,11.9602,12.0073,12.1077,12.1149,12.1729,12.22,12.2408,12.2406,12.222,12.1666,12.1511,12.1496,12.0694,12.0803,12.0912,12.0912,12.0912,12.0912,12.0912,12.0912,12.0875,12.0691,12.0324,12.0104,11.9921,11.9664,11.937,11.948,11.9737,12.0067,12.0214,12.0545,12.0912,12.0912,12.0912,12.0912,12.0912,12.0912,12.0912,12.0912,12.0912,12.0912,12.0875,12.0838,12.0435,12.0104,11.9847,11.9417,11.9107,11.9671,12.017,12.0896,12.1887,12.27,12.3367,12.3691,12.4182,12.4649,12.4749,12.4539,12.4264,12.389,12.3855,12.4098,12.4276,12.5079,12.5692,12.5734,12.5382,12.4999,12.455,12.3462,12.2342,12.2098,12.1869,12.1344,12.101,12.1134,12.1179,12.1301,12.1278,12.1185,12.1121,12.1065,12.1548,12.2178,12.1966,12.1743,12.2103,12.2397,12.241,12.2012,12.1758,12.1365,12.0739,11.9558,11.8275,11.752,11.7047,11.5285,11.6534,11.7204,11.7639,11.7928,11.792,11.8684,11.9788,11.913,11.9435,12.0227,11.9477,11.9322,11.9286,11.9302,11.9737,12.0425,12.0606,12.1439,12.2308,12.267,12.3241,12.3675,12.391,12.3167,12.2725,12.2433,12.1902,12.1047,12.1132,12.1132,12.1059,12.1169,12.1169,12.1132,12.0937,12.0924,12.0814,12.0765,12.0618,12.0545,12.0655,12.0471,12.0508,12.0618,12.0765,12.0875,12.0948,12.0985,12.0985,12.0948,12.0912,12.0912,12.0948,12.0948,12.0985,12.1022,12.1059,12.0912,12.0912,12.0923,12.0653,12.0199,11.9963,12.0086,12.0457,12.1043,12.1843,12.2841,12.3578,12.4222,12.4711,12.5234,12.5514,12.5755,12.5559,12.5338,12.516,12.516,12.5237,12.5237,12.5685,12.6132,12.6312,12.6222,12.6107,12.562,12.5106,12.4101,12.3507,12.3239,12.2919,12.2777,12.2964,12.2964,12.2738,12.269,12.2463,12.2758,12.2851,12.3327,12.3419,12.3049,12.2805,12.2762,12.2875,12.3045,12.3418,12.3753,12.3357,12.2982,12.106,11.94,11.8364,11.7702,11.6645,11.78,11.8225,11.8553,11.8796,11.8822,11.9074,11.9387,11.917,11.9296,11.9493,11.9312,11.9421,12.0,12.0073,12.0534,12.1186,12.1837,12.2272,12.2852,12.3322,12.3857,12.4173,12.4298,12.3642,12.316,12.273,12.2428,12.1414,12.1389,12.1756,12.1756,12.1646,12.1683,12.1451,12.0999,12.0865,12.084,12.0864,12.0888,12.0888,12.0912,12.0912,12.0912,12.0912,12.1095,12.1389,12.1095,12.1132,12.1536,12.1132,12.0912,12.0912,12.1389,12.178,12.1756,12.1719,12.1572,12.1059,12.0912,12.1007,12.1147,12.0956,12.1026,12.1204,12.1599,12.2199,12.3093,12.418,12.5094,12.5545,12.5919,12.6195,12.6297,12.6373,12.6132,12.5952,12.5977,12.6015,12.5977,12.6015,12.6054,12.6515,12.6554,12.6516,12.6642,12.6488,12.6055,12.5634,12.4955,12.4558,12.4238,12.4123,12.4199,12.3996,12.3778,12.3791,12.3777,12.4098,12.4239,12.4238,12.4212,12.3978,12.3707,12.3385,12.3512,12.3846,12.4375,12.5159,12.548,12.5041,12.2725,12.0711,11.9834,11.8775,11.749,11.8499,11.8822,11.9071,11.9203,11.923,11.923,11.923,11.923,11.923,11.923,11.923,11.9457,11.9783,11.9891,12.0461,12.1548,12.191,12.2489,12.3431,12.3784,12.4092,12.4326,12.4457,12.41,12.3642,12.3294,12.3113,12.2172,12.2196,12.2564,12.2527,12.2343,12.2123,12.1781,12.1122,12.0646,12.0682,12.073,12.0767,12.0791,12.084,12.0912,12.0948,12.0948,12.1316,12.1572,12.1132,12.1279,12.1572,12.1022,12.0912,12.1022,12.1609,12.178,12.1719,12.1866,12.1595,12.1202,12.1042,12.1194,12.1459,12.1762,12.2042,12.2472,12.2988,12.3701,12.4537,12.5783,12.6766,12.6955,12.7074,12.7076,12.7029,12.6836,12.6592,12.6603,12.6678,12.6678,12.6678,12.664,12.664,12.6717,12.6717,12.6717,12.6717,12.6563,12.6231,12.604,12.5811,12.562,12.5504,12.5388,12.5336,12.5063,12.4909,12.5014,12.5144,12.5336,12.5413,12.5255,12.514,12.5077,12.4474,12.3743,12.4178,12.4793,12.582,12.6578,12.6799,12.6695,12.4975,12.3083,12.1792,12.0701,11.7888,11.875,11.9088,11.9203,11.923,11.923,11.923,11.923,11.923,11.923,11.923,11.923,11.9276,11.9602,11.9674,12.0389,12.1367,12.1946,12.2688,12.3893,12.402,12.4246,12.4629,12.4715,12.449,12.4342,12.4115,12.3726,12.342,12.3334,12.3371,12.3334,12.282,12.2637,12.2539,12.1622,12.117,12.1096,12.1011,12.0937,12.0682,12.0719,12.0961,12.101,12.1145,12.1316,12.1242,12.1095,12.0985,12.1022,12.0912,12.0912,12.1316,12.1681,12.1645,12.1717,12.2046,12.1857,12.1579,12.1413,12.1709,12.2029,12.2419,12.2927,12.3495,12.4177,12.4874,12.5783,12.6912,12.7505,12.7767,12.7843,12.781,12.7335,12.686,12.6692,12.6666,12.6717,12.6717,12.6717,12.6717,12.6717,12.6717,12.6717,12.6717,12.6717,12.6371,12.6101,12.5909,12.5947,12.5947,12.6024,12.614,12.5986,12.6101,12.6024,12.6294,12.6486,12.6409,12.6371,12.6024,12.6063,12.619,12.5332,12.4447,12.5216,12.5947,12.6755,12.7435,12.7847,12.7593,12.6888,12.5531,12.3985,12.2462,11.7599,11.8328,11.895,11.923,11.923,11.923,11.923,11.923,11.923,11.923,11.923,11.9266,11.9493,11.9855,11.9891,12.057,12.1367,12.1891,12.2759,12.3483,12.3936,12.4467,12.497,12.5063,12.4855,12.458,12.4337,12.4179,12.3812,12.3922,12.4215,12.4215,12.3775,12.3665,12.3628,12.2648,12.201,12.1761,12.1686,12.1175,12.0604,12.1107,12.1537,12.1757,12.1989,12.2429,12.2343,12.2013,12.1866,12.1756,12.1169,12.1279,12.1793,12.2132,12.2227,12.2164,12.2455,12.2367,12.2111,12.2058,12.2403,12.2862,12.3306,12.3896,12.4523,12.5216,12.6021,12.6982,12.7717,12.8202,12.8461,12.8527,12.836,12.7577,12.6832,12.6755,12.6717,12.6717,12.6717,12.6717,12.6717,12.6717,12.6717,12.6717,12.6717,12.6409,12.5909,12.5524,12.5255,12.5178,12.5101,12.5332,12.6294,12.6447,12.6601,12.6717,12.6717,12.6717,12.6601,12.664,12.6717,12.6447,12.614,12.5717,12.5332,12.5909,12.6447,12.7217,12.7859,12.8269,12.8309,12.7541,12.7182,12.5947,12.4302,11.7316,11.8153,11.8904,11.923,11.923,11.923,11.923,11.923,11.923,11.923,11.923,11.9266,11.9457,11.9855,11.9855,12.0316,12.1067,12.1599,12.2395,12.3145,12.3818,12.4491,12.4969,12.5257,12.4908,12.4643,12.4521,12.4362,12.4325,12.4693,12.5023,12.4913,12.4766,12.4509,12.4374,12.3527,12.2849,12.2448,12.2429,12.1831,12.1019,12.1736,12.2218,12.2537,12.2832,12.3175,12.271,12.2233,12.194,12.1681,12.1178,12.1213,12.1712,12.2302,12.2474,12.2546,12.2801,12.313,12.2796,12.2829,12.3229,12.3691,12.4079,12.4605,12.5364,12.6106,12.7246,12.8189,12.893,12.9447,12.9116,12.9103,12.8385,12.7628,12.7025,12.6717,12.6717,12.6717,12.6717,12.6717,12.6717,12.6717,12.6717,12.6717,12.6678,12.6537,12.5947,12.514,12.4832,12.4486,12.4409,12.4639,12.5563,12.6063,12.5986,12.6294,12.6717,12.6717,12.6717,12.6717,12.6678,12.6332,12.5986,12.5909,12.5909,12.6178,12.6832,12.7371,12.7794,12.8128,12.8244,12.8156,12.7836,12.7374,12.5914,11.703,11.8143,11.8904,11.923,11.923,11.923,11.923,11.923,11.923,11.923,11.923,11.923,11.923,11.923,11.923,11.9737,12.0287,12.0943,12.1836,12.2726,12.3527,12.4285,12.4804,12.5114,12.48,12.4606,12.4509,12.4986,12.5415,12.5562,12.5488,12.5525,12.5133,12.4656,12.4336,12.3832,12.3287,12.3028,12.282,12.2569,12.2508,12.2729,12.2922,12.3098,12.3309,12.3163,12.2674,12.2196,12.1866,12.1435,12.1271,12.1408,12.1781,12.2467,12.2649,12.2834,12.3423,12.3637,12.3575,12.3691,12.4129,12.4567,12.4872,12.5376,12.6156,12.7021,12.8184,12.8829,12.9563,12.9834,12.9513,12.9012,12.8243,12.764,12.7101,12.6717,12.6717,12.6717,12.6717,12.6717,12.6717,12.6717,12.6717,12.6717,12.664,12.6498,12.5947,12.5178,12.4486,12.4101,12.387,12.4139,12.4755,12.5101,12.5409,12.6101,12.6717,12.6717,12.6717,12.6717,12.664,12.6447,12.6409,12.6524,12.6601,12.6563,12.6755,12.7178,12.7563,12.7832,12.7692,12.7706,12.7847,12.7413,12.699,11.6741,11.8143,11.8904,11.9194,11.923,11.923,11.923,11.923,11.923,11.923,11.923,11.923,11.923,11.923,11.923,11.9526,11.9968,12.0497,12.1132,12.1958,12.3287,12.4075,12.4518,12.4653,12.4606,12.4546,12.4582,12.4949,12.5598,12.5709,12.5709,12.5672,12.5672,12.5352,12.5089,12.4643,12.4343,12.397,12.3812,12.3697,12.3677,12.3793,12.3697,12.4072,12.4727,12.4533,12.4142,12.3408,12.2674,12.2084,12.1656,12.1752,12.2132,12.2758,12.308,12.3477,12.4011,12.4322,12.4396,12.463,12.5098,12.5522,12.5825,12.5975,12.6675,12.7295,12.8027,12.822,12.8796,12.9155,12.8897,12.8359,12.7705,12.7255,12.6717,12.6717,12.6717,12.6717,12.6717,12.6717,12.6717,12.6717,12.6717,12.6717,12.6717,12.646,12.5959,12.5216,12.4947,12.4216,12.3447,12.387,12.4293,12.4716,12.5293,12.614,12.6717,12.6717,12.6717,12.6717,12.6717,12.6717,12.6717,12.6717,12.6717,12.6678,12.6871,12.6986,12.6986,12.714,12.6986,12.6986,12.7332,12.7435,12.7065]}]]